<?xml version="1.0" encoding="UTF-8" standalone="no" ?>
<gpx xmlns="http://www.topografix.com/GPX/1/1" xmlns:xsi="http://www.w3.org/2001/XMLSchema-instance" xsi:schemaLocation="http://www.topografix.com/GPX/1/1 http://www.topografix.com/GPX/1/1/gpx.xsd" version="1.1" creator="VisuGPX - https://www.visugpx.com">
  <metadata>
    <name>Sun Trip 2019</name>
    <desc><![CDATA[Le parcours du Sun Trip 2019]]></desc>
  </metadata>
  <trk>
    <name><![CDATA[J12bis]]></name>
    <trkseg>
      <trkpt lat="44.88574" lon="7.3291">
        <ele>385</ele>
        <time>2019-04-17T17:42:40Z</time>
      </trkpt>
      <trkpt lat="44.8855" lon="7.32918">
        <ele>384</ele>
        <time>2019-04-17T17:43:40Z</time>
      </trkpt>
      <trkpt lat="44.88547" lon="7.32891">
        <ele>385</ele>
        <time>2019-04-17T17:44:40Z</time>
      </trkpt>
      <trkpt lat="44.88536" lon="7.32844">
        <ele>385</ele>
        <time>2019-04-17T17:45:40Z</time>
      </trkpt>
      <trkpt lat="44.88527" lon="7.32785">
        <ele>387</ele>
        <time>2019-04-17T17:46:40Z</time>
      </trkpt>
      <trkpt lat="44.88525" lon="7.32759">
        <ele>387</ele>
        <time>2019-04-17T17:47:40Z</time>
      </trkpt>
      <trkpt lat="44.88526" lon="7.32721">
        <ele>387</ele>
        <time>2019-04-17T17:48:40Z</time>
      </trkpt>
      <trkpt lat="44.88528" lon="7.32695">
        <ele>387</ele>
        <time>2019-04-17T17:49:40Z</time>
      </trkpt>
      <trkpt lat="44.88538" lon="7.32636">
        <ele>387</ele>
        <time>2019-04-17T17:50:40Z</time>
      </trkpt>
      <trkpt lat="44.88542" lon="7.32634">
        <ele>387</ele>
        <time>2019-04-17T17:51:40Z</time>
      </trkpt>
      <trkpt lat="44.88544" lon="7.32627">
        <ele>387</ele>
        <time>2019-04-17T17:52:40Z</time>
      </trkpt>
      <trkpt lat="44.88541" lon="7.32623">
        <ele>386</ele>
        <time>2019-04-17T17:53:40Z</time>
      </trkpt>
      <trkpt lat="44.88538" lon="7.32623">
        <ele>386</ele>
        <time>2019-04-17T17:54:40Z</time>
      </trkpt>
      <trkpt lat="44.88535" lon="7.32627">
        <ele>386</ele>
        <time>2019-04-17T17:55:40Z</time>
      </trkpt>
      <trkpt lat="44.88512" lon="7.32621">
        <ele>384</ele>
        <time>2019-04-17T17:56:40Z</time>
      </trkpt>
      <trkpt lat="44.88538" lon="7.32433">
        <ele>384</ele>
        <time>2019-04-17T17:57:40Z</time>
      </trkpt>
      <trkpt lat="44.8854" lon="7.32406">
        <ele>384</ele>
        <time>2019-04-17T17:58:40Z</time>
      </trkpt>
      <trkpt lat="44.8856" lon="7.3171">
        <ele>386</ele>
        <time>2019-04-17T17:59:40Z</time>
      </trkpt>
      <trkpt lat="44.88565" lon="7.31394">
        <ele>389</ele>
        <time>2019-04-17T18:00:40Z</time>
      </trkpt>
      <trkpt lat="44.88571" lon="7.31228">
        <ele>390</ele>
        <time>2019-04-17T18:01:40Z</time>
      </trkpt>
      <trkpt lat="44.88576" lon="7.31202">
        <ele>391</ele>
        <time>2019-04-17T18:02:40Z</time>
      </trkpt>
      <trkpt lat="44.8858" lon="7.31198">
        <ele>391</ele>
        <time>2019-04-17T18:03:40Z</time>
      </trkpt>
      <trkpt lat="44.88583" lon="7.31188">
        <ele>391</ele>
        <time>2019-04-17T18:04:40Z</time>
      </trkpt>
      <trkpt lat="44.88581" lon="7.31177">
        <ele>392</ele>
        <time>2019-04-17T18:05:40Z</time>
      </trkpt>
      <trkpt lat="44.88575" lon="7.3117">
        <ele>392</ele>
        <time>2019-04-17T18:06:40Z</time>
      </trkpt>
      <trkpt lat="44.88605" lon="7.30747">
        <ele>399</ele>
        <time>2019-04-17T18:07:40Z</time>
      </trkpt>
      <trkpt lat="44.88615" lon="7.30686">
        <ele>399</ele>
        <time>2019-04-17T18:08:40Z</time>
      </trkpt>
      <trkpt lat="44.88613" lon="7.3064">
        <ele>398</ele>
        <time>2019-04-17T18:09:40Z</time>
      </trkpt>
      <trkpt lat="44.88599" lon="7.30534">
        <ele>398</ele>
        <time>2019-04-17T18:10:40Z</time>
      </trkpt>
      <trkpt lat="44.88593" lon="7.30506">
        <ele>397</ele>
        <time>2019-04-17T18:11:40Z</time>
      </trkpt>
      <trkpt lat="44.88572" lon="7.30454">
        <ele>399</ele>
        <time>2019-04-17T18:12:40Z</time>
      </trkpt>
      <trkpt lat="44.88546" lon="7.30395">
        <ele>399</ele>
        <time>2019-04-17T18:13:40Z</time>
      </trkpt>
      <trkpt lat="44.88543" lon="7.30379">
        <ele>399</ele>
        <time>2019-04-17T18:14:40Z</time>
      </trkpt>
      <trkpt lat="44.88542" lon="7.30363">
        <ele>399</ele>
        <time>2019-04-17T18:15:40Z</time>
      </trkpt>
      <trkpt lat="44.88551" lon="7.3026">
        <ele>401</ele>
        <time>2019-04-17T18:16:40Z</time>
      </trkpt>
      <trkpt lat="44.88556" lon="7.30092">
        <ele>404</ele>
        <time>2019-04-17T18:17:40Z</time>
      </trkpt>
      <trkpt lat="44.88557" lon="7.30011">
        <ele>405</ele>
        <time>2019-04-17T18:18:40Z</time>
      </trkpt>
      <trkpt lat="44.88573" lon="7.29823">
        <ele>409</ele>
        <time>2019-04-17T18:19:40Z</time>
      </trkpt>
      <trkpt lat="44.88568" lon="7.29716">
        <ele>408</ele>
        <time>2019-04-17T18:20:40Z</time>
      </trkpt>
      <trkpt lat="44.88566" lon="7.29584">
        <ele>406</ele>
        <time>2019-04-17T18:21:40Z</time>
      </trkpt>
      <trkpt lat="44.88561" lon="7.29462">
        <ele>407</ele>
        <time>2019-04-17T18:22:40Z</time>
      </trkpt>
      <trkpt lat="44.88554" lon="7.29412">
        <ele>408</ele>
        <time>2019-04-17T18:23:40Z</time>
      </trkpt>
      <trkpt lat="44.88529" lon="7.29284">
        <ele>407</ele>
        <time>2019-04-17T18:24:40Z</time>
      </trkpt>
      <trkpt lat="44.88525" lon="7.29245">
        <ele>407</ele>
        <time>2019-04-17T18:25:40Z</time>
      </trkpt>
      <trkpt lat="44.88524" lon="7.29209">
        <ele>407</ele>
        <time>2019-04-17T18:26:40Z</time>
      </trkpt>
      <trkpt lat="44.88547" lon="7.28825">
        <ele>410</ele>
        <time>2019-04-17T18:27:40Z</time>
      </trkpt>
      <trkpt lat="44.88547" lon="7.28797">
        <ele>411</ele>
        <time>2019-04-17T18:28:40Z</time>
      </trkpt>
      <trkpt lat="44.88545" lon="7.28774">
        <ele>411</ele>
        <time>2019-04-17T18:29:40Z</time>
      </trkpt>
      <trkpt lat="44.88534" lon="7.28684">
        <ele>409</ele>
        <time>2019-04-17T18:30:40Z</time>
      </trkpt>
      <trkpt lat="44.88529" lon="7.28629">
        <ele>408</ele>
        <time>2019-04-17T18:31:40Z</time>
      </trkpt>
      <trkpt lat="44.8853" lon="7.28545">
        <ele>406</ele>
        <time>2019-04-17T18:32:40Z</time>
      </trkpt>
      <trkpt lat="44.88547" lon="7.28268">
        <ele>412</ele>
        <time>2019-04-17T18:33:40Z</time>
      </trkpt>
      <trkpt lat="44.88549" lon="7.28251">
        <ele>412</ele>
        <time>2019-04-17T18:34:40Z</time>
      </trkpt>
      <trkpt lat="44.88556" lon="7.28217">
        <ele>412</ele>
        <time>2019-04-17T18:35:40Z</time>
      </trkpt>
      <trkpt lat="44.88594" lon="7.28069">
        <ele>412</ele>
        <time>2019-04-17T18:36:40Z</time>
      </trkpt>
      <trkpt lat="44.88608" lon="7.28002">
        <ele>414</ele>
        <time>2019-04-17T18:37:40Z</time>
      </trkpt>
      <trkpt lat="44.88656" lon="7.27685">
        <ele>420</ele>
        <time>2019-04-17T18:38:40Z</time>
      </trkpt>
      <trkpt lat="44.88683" lon="7.275">
        <ele>423</ele>
        <time>2019-04-17T18:39:40Z</time>
      </trkpt>
      <trkpt lat="44.88684" lon="7.27477">
        <ele>424</ele>
        <time>2019-04-17T18:40:40Z</time>
      </trkpt>
      <trkpt lat="44.88682" lon="7.2744">
        <ele>424</ele>
        <time>2019-04-17T18:41:40Z</time>
      </trkpt>
      <trkpt lat="44.88659" lon="7.27202">
        <ele>426</ele>
        <time>2019-04-17T18:42:40Z</time>
      </trkpt>
      <trkpt lat="44.88659" lon="7.27165">
        <ele>425</ele>
        <time>2019-04-17T18:43:40Z</time>
      </trkpt>
      <trkpt lat="44.88673" lon="7.27052">
        <ele>428</ele>
        <time>2019-04-17T18:44:40Z</time>
      </trkpt>
      <trkpt lat="44.88706" lon="7.26765">
        <ele>433</ele>
        <time>2019-04-17T18:45:40Z</time>
      </trkpt>
      <trkpt lat="44.88713" lon="7.26714">
        <ele>432</ele>
        <time>2019-04-17T18:46:40Z</time>
      </trkpt>
      <trkpt lat="44.88717" lon="7.26697">
        <ele>432</ele>
        <time>2019-04-17T18:47:40Z</time>
      </trkpt>
      <trkpt lat="44.88804" lon="7.26452">
        <ele>438</ele>
        <time>2019-04-17T18:48:40Z</time>
      </trkpt>
      <trkpt lat="44.88857" lon="7.26353">
        <ele>442</ele>
        <time>2019-04-17T18:49:40Z</time>
      </trkpt>
      <trkpt lat="44.88949" lon="7.26154">
        <ele>445</ele>
        <time>2019-04-17T18:50:40Z</time>
      </trkpt>
      <trkpt lat="44.89053" lon="7.25922">
        <ele>444</ele>
        <time>2019-04-17T18:51:40Z</time>
      </trkpt>
      <trkpt lat="44.89061" lon="7.2589">
        <ele>444</ele>
        <time>2019-04-17T18:52:40Z</time>
      </trkpt>
      <trkpt lat="44.89096" lon="7.25628">
        <ele>451</ele>
        <time>2019-04-17T18:53:40Z</time>
      </trkpt>
      <trkpt lat="44.89109" lon="7.25525">
        <ele>456</ele>
        <time>2019-04-17T18:54:40Z</time>
      </trkpt>
      <trkpt lat="44.8911" lon="7.25492">
        <ele>456</ele>
        <time>2019-04-17T18:55:40Z</time>
      </trkpt>
      <trkpt lat="44.89101" lon="7.25291">
        <ele>457</ele>
        <time>2019-04-17T18:56:40Z</time>
      </trkpt>
      <trkpt lat="44.89096" lon="7.25231">
        <ele>457</ele>
        <time>2019-04-17T18:57:40Z</time>
      </trkpt>
      <trkpt lat="44.89082" lon="7.25092">
        <ele>454</ele>
        <time>2019-04-17T18:58:40Z</time>
      </trkpt>
      <trkpt lat="44.89061" lon="7.24915">
        <ele>450</ele>
        <time>2019-04-17T18:59:40Z</time>
      </trkpt>
      <trkpt lat="44.89056" lon="7.24865">
        <ele>450</ele>
        <time>2019-04-17T19:00:40Z</time>
      </trkpt>
      <trkpt lat="44.89057" lon="7.24824">
        <ele>450</ele>
        <time>2019-04-17T19:01:40Z</time>
      </trkpt>
      <trkpt lat="44.8906" lon="7.24785">
        <ele>451</ele>
        <time>2019-04-17T19:02:40Z</time>
      </trkpt>
      <trkpt lat="44.89064" lon="7.24762">
        <ele>451</ele>
        <time>2019-04-17T19:03:40Z</time>
      </trkpt>
      <trkpt lat="44.89072" lon="7.24734">
        <ele>451</ele>
        <time>2019-04-17T19:04:40Z</time>
      </trkpt>
      <trkpt lat="44.89093" lon="7.24677">
        <ele>453</ele>
        <time>2019-04-17T19:05:40Z</time>
      </trkpt>
      <trkpt lat="44.89125" lon="7.24607">
        <ele>453</ele>
        <time>2019-04-17T19:06:40Z</time>
      </trkpt>
      <trkpt lat="44.89147" lon="7.24565">
        <ele>453</ele>
        <time>2019-04-17T19:07:40Z</time>
      </trkpt>
      <trkpt lat="44.89154" lon="7.24553">
        <ele>453</ele>
        <time>2019-04-17T19:08:40Z</time>
      </trkpt>
      <trkpt lat="44.89191" lon="7.24512">
        <ele>458</ele>
        <time>2019-04-17T19:09:40Z</time>
      </trkpt>
      <trkpt lat="44.89205" lon="7.24489">
        <ele>459</ele>
        <time>2019-04-17T19:10:40Z</time>
      </trkpt>
      <trkpt lat="44.89215" lon="7.24487">
        <ele>459</ele>
        <time>2019-04-17T19:11:40Z</time>
      </trkpt>
      <trkpt lat="44.89223" lon="7.24479">
        <ele>459</ele>
        <time>2019-04-17T19:12:40Z</time>
      </trkpt>
      <trkpt lat="44.89229" lon="7.24465">
        <ele>459</ele>
        <time>2019-04-17T19:13:40Z</time>
      </trkpt>
      <trkpt lat="44.8923" lon="7.24456">
        <ele>458</ele>
        <time>2019-04-17T19:14:40Z</time>
      </trkpt>
      <trkpt lat="44.89242" lon="7.24439">
        <ele>457</ele>
        <time>2019-04-17T19:15:40Z</time>
      </trkpt>
      <trkpt lat="44.89271" lon="7.24422">
        <ele>458</ele>
        <time>2019-04-17T19:16:40Z</time>
      </trkpt>
      <trkpt lat="44.89293" lon="7.24419">
        <ele>459</ele>
        <time>2019-04-17T19:17:40Z</time>
      </trkpt>
      <trkpt lat="44.89324" lon="7.24419">
        <ele>461</ele>
        <time>2019-04-17T19:18:40Z</time>
      </trkpt>
      <trkpt lat="44.89573" lon="7.24464">
        <ele>478</ele>
        <time>2019-04-17T19:19:40Z</time>
      </trkpt>
      <trkpt lat="44.89607" lon="7.24473">
        <ele>477</ele>
        <time>2019-04-17T19:20:40Z</time>
      </trkpt>
      <trkpt lat="44.89632" lon="7.24481">
        <ele>477</ele>
        <time>2019-04-17T19:21:40Z</time>
      </trkpt>
      <trkpt lat="44.89647" lon="7.24489">
        <ele>477</ele>
        <time>2019-04-17T19:22:40Z</time>
      </trkpt>
      <trkpt lat="44.89647" lon="7.24495">
        <ele>478</ele>
        <time>2019-04-17T19:23:40Z</time>
      </trkpt>
      <trkpt lat="44.89651" lon="7.24506">
        <ele>481</ele>
        <time>2019-04-17T19:24:40Z</time>
      </trkpt>
      <trkpt lat="44.89659" lon="7.2451">
        <ele>482</ele>
        <time>2019-04-17T19:25:40Z</time>
      </trkpt>
      <trkpt lat="44.89667" lon="7.24505">
        <ele>478</ele>
        <time>2019-04-17T19:26:40Z</time>
      </trkpt>
      <trkpt lat="44.89669" lon="7.24499">
        <ele>475</ele>
        <time>2019-04-17T19:27:40Z</time>
      </trkpt>
      <trkpt lat="44.89786" lon="7.24552">
        <ele>473</ele>
        <time>2019-04-17T19:28:40Z</time>
      </trkpt>
      <trkpt lat="44.89805" lon="7.24563">
        <ele>472</ele>
        <time>2019-04-17T19:29:40Z</time>
      </trkpt>
      <trkpt lat="44.89815" lon="7.2457">
        <ele>471</ele>
        <time>2019-04-17T19:30:40Z</time>
      </trkpt>
      <trkpt lat="44.8994" lon="7.24721">
        <ele>482</ele>
        <time>2019-04-17T19:31:40Z</time>
      </trkpt>
      <trkpt lat="44.89987" lon="7.24771">
        <ele>482</ele>
        <time>2019-04-17T19:32:40Z</time>
      </trkpt>
      <trkpt lat="44.90116" lon="7.24868">
        <ele>481</ele>
        <time>2019-04-17T19:33:40Z</time>
      </trkpt>
      <trkpt lat="44.90134" lon="7.24877">
        <ele>481</ele>
        <time>2019-04-17T19:34:40Z</time>
      </trkpt>
      <trkpt lat="44.9017" lon="7.24886">
        <ele>476</ele>
        <time>2019-04-17T19:35:40Z</time>
      </trkpt>
      <trkpt lat="44.90376" lon="7.24906">
        <ele>474</ele>
        <time>2019-04-17T19:36:40Z</time>
      </trkpt>
      <trkpt lat="44.90406" lon="7.24905">
        <ele>473</ele>
        <time>2019-04-17T19:37:40Z</time>
      </trkpt>
      <trkpt lat="44.9049" lon="7.24896">
        <ele>473</ele>
        <time>2019-04-17T19:38:40Z</time>
      </trkpt>
      <trkpt lat="44.90536" lon="7.24895">
        <ele>474</ele>
        <time>2019-04-17T19:39:40Z</time>
      </trkpt>
      <trkpt lat="44.90546" lon="7.24899">
        <ele>474</ele>
        <time>2019-04-17T19:40:40Z</time>
      </trkpt>
      <trkpt lat="44.90561" lon="7.2491">
        <ele>474</ele>
        <time>2019-04-17T19:41:40Z</time>
      </trkpt>
      <trkpt lat="44.90587" lon="7.24921">
        <ele>475</ele>
        <time>2019-04-17T19:42:40Z</time>
      </trkpt>
      <trkpt lat="44.90593" lon="7.24929">
        <ele>475</ele>
        <time>2019-04-17T19:43:40Z</time>
      </trkpt>
      <trkpt lat="44.90604" lon="7.24934">
        <ele>475</ele>
        <time>2019-04-17T19:44:40Z</time>
      </trkpt>
      <trkpt lat="44.90815" lon="7.24958">
        <ele>480</ele>
        <time>2019-04-17T19:45:40Z</time>
      </trkpt>
      <trkpt lat="44.9088" lon="7.24974">
        <ele>482</ele>
        <time>2019-04-17T19:46:40Z</time>
      </trkpt>
      <trkpt lat="44.91011" lon="7.2501">
        <ele>483</ele>
        <time>2019-04-17T19:47:40Z</time>
      </trkpt>
      <trkpt lat="44.91031" lon="7.25013">
        <ele>484</ele>
        <time>2019-04-17T19:48:40Z</time>
      </trkpt>
      <trkpt lat="44.91055" lon="7.25011">
        <ele>483</ele>
        <time>2019-04-17T19:49:40Z</time>
      </trkpt>
      <trkpt lat="44.91078" lon="7.25004">
        <ele>483</ele>
        <time>2019-04-17T19:50:40Z</time>
      </trkpt>
      <trkpt lat="44.91304" lon="7.24888">
        <ele>488</ele>
        <time>2019-04-17T19:51:40Z</time>
      </trkpt>
      <trkpt lat="44.91542" lon="7.24774">
        <ele>495</ele>
        <time>2019-04-17T19:52:40Z</time>
      </trkpt>
      <trkpt lat="44.91566" lon="7.24768">
        <ele>494</ele>
        <time>2019-04-17T19:53:40Z</time>
      </trkpt>
      <trkpt lat="44.91593" lon="7.24769">
        <ele>495</ele>
        <time>2019-04-17T19:54:40Z</time>
      </trkpt>
      <trkpt lat="44.91869" lon="7.2483">
        <ele>503</ele>
        <time>2019-04-17T19:55:40Z</time>
      </trkpt>
      <trkpt lat="44.9189" lon="7.24829">
        <ele>504</ele>
        <time>2019-04-17T19:56:40Z</time>
      </trkpt>
      <trkpt lat="44.91909" lon="7.24818">
        <ele>504</ele>
        <time>2019-04-17T19:57:40Z</time>
      </trkpt>
      <trkpt lat="44.92001" lon="7.24744">
        <ele>505</ele>
        <time>2019-04-17T19:58:40Z</time>
      </trkpt>
      <trkpt lat="44.92081" lon="7.24691">
        <ele>507</ele>
        <time>2019-04-17T19:59:40Z</time>
      </trkpt>
      <trkpt lat="44.9209" lon="7.24684">
        <ele>507</ele>
        <time>2019-04-17T20:00:40Z</time>
      </trkpt>
      <trkpt lat="44.92121" lon="7.24646">
        <ele>507</ele>
        <time>2019-04-17T20:01:40Z</time>
      </trkpt>
      <trkpt lat="44.92191" lon="7.24557">
        <ele>507</ele>
        <time>2019-04-17T20:02:40Z</time>
      </trkpt>
      <trkpt lat="44.92231" lon="7.2451">
        <ele>507</ele>
        <time>2019-04-17T20:03:40Z</time>
      </trkpt>
      <trkpt lat="44.92415" lon="7.24323">
        <ele>509</ele>
        <time>2019-04-17T20:04:40Z</time>
      </trkpt>
      <trkpt lat="44.92474" lon="7.24268">
        <ele>512</ele>
        <time>2019-04-17T20:05:40Z</time>
      </trkpt>
      <trkpt lat="44.9253" lon="7.24207">
        <ele>513</ele>
        <time>2019-04-17T20:06:40Z</time>
      </trkpt>
      <trkpt lat="44.92781" lon="7.23955">
        <ele>517</ele>
        <time>2019-04-17T20:07:40Z</time>
      </trkpt>
      <trkpt lat="44.93099" lon="7.23605">
        <ele>525</ele>
        <time>2019-04-17T20:08:40Z</time>
      </trkpt>
      <trkpt lat="44.93142" lon="7.23559">
        <ele>527</ele>
        <time>2019-04-17T20:09:40Z</time>
      </trkpt>
      <trkpt lat="44.93156" lon="7.23546">
        <ele>528</ele>
        <time>2019-04-17T20:10:40Z</time>
      </trkpt>
      <trkpt lat="44.93181" lon="7.23529">
        <ele>528</ele>
        <time>2019-04-17T20:11:40Z</time>
      </trkpt>
      <trkpt lat="44.93192" lon="7.23523">
        <ele>529</ele>
        <time>2019-04-17T20:12:40Z</time>
      </trkpt>
      <trkpt lat="44.93521" lon="7.23388">
        <ele>536</ele>
        <time>2019-04-17T20:13:40Z</time>
      </trkpt>
      <trkpt lat="44.93548" lon="7.23369">
        <ele>537</ele>
        <time>2019-04-17T20:14:40Z</time>
      </trkpt>
      <trkpt lat="44.93575" lon="7.23337">
        <ele>536</ele>
        <time>2019-04-17T20:15:40Z</time>
      </trkpt>
      <trkpt lat="44.9359" lon="7.23312">
        <ele>536</ele>
        <time>2019-04-17T20:16:40Z</time>
      </trkpt>
      <trkpt lat="44.93604" lon="7.23278">
        <ele>535</ele>
        <time>2019-04-17T20:17:40Z</time>
      </trkpt>
      <trkpt lat="44.93622" lon="7.23214">
        <ele>536</ele>
        <time>2019-04-17T20:18:40Z</time>
      </trkpt>
      <trkpt lat="44.9364" lon="7.23173">
        <ele>537</ele>
        <time>2019-04-17T20:19:40Z</time>
      </trkpt>
      <trkpt lat="44.93651" lon="7.23156">
        <ele>538</ele>
        <time>2019-04-17T20:20:40Z</time>
      </trkpt>
      <trkpt lat="44.93677" lon="7.23121">
        <ele>539</ele>
        <time>2019-04-17T20:21:40Z</time>
      </trkpt>
      <trkpt lat="44.93703" lon="7.23098">
        <ele>540</ele>
        <time>2019-04-17T20:22:40Z</time>
      </trkpt>
      <trkpt lat="44.93801" lon="7.23033">
        <ele>541</ele>
        <time>2019-04-17T20:23:40Z</time>
      </trkpt>
      <trkpt lat="44.93877" lon="7.22967">
        <ele>541</ele>
        <time>2019-04-17T20:24:40Z</time>
      </trkpt>
      <trkpt lat="44.93911" lon="7.22943">
        <ele>540</ele>
        <time>2019-04-17T20:25:40Z</time>
      </trkpt>
      <trkpt lat="44.93953" lon="7.22922">
        <ele>541</ele>
        <time>2019-04-17T20:26:40Z</time>
      </trkpt>
      <trkpt lat="44.93995" lon="7.22909">
        <ele>542</ele>
        <time>2019-04-17T20:27:40Z</time>
      </trkpt>
      <trkpt lat="44.94095" lon="7.22888">
        <ele>544</ele>
        <time>2019-04-17T20:28:40Z</time>
      </trkpt>
      <trkpt lat="44.9413" lon="7.22873">
        <ele>545</ele>
        <time>2019-04-17T20:29:40Z</time>
      </trkpt>
      <trkpt lat="44.94152" lon="7.22858">
        <ele>546</ele>
        <time>2019-04-17T20:30:40Z</time>
      </trkpt>
      <trkpt lat="44.94165" lon="7.22855">
        <ele>547</ele>
        <time>2019-04-17T20:31:40Z</time>
      </trkpt>
      <trkpt lat="44.94169" lon="7.2285">
        <ele>547</ele>
        <time>2019-04-17T20:32:40Z</time>
      </trkpt>
      <trkpt lat="44.94171" lon="7.22843">
        <ele>547</ele>
        <time>2019-04-17T20:33:40Z</time>
      </trkpt>
      <trkpt lat="44.94183" lon="7.22827">
        <ele>547</ele>
        <time>2019-04-17T20:34:40Z</time>
      </trkpt>
      <trkpt lat="44.94204" lon="7.22793">
        <ele>548</ele>
        <time>2019-04-17T20:35:40Z</time>
      </trkpt>
      <trkpt lat="44.94315" lon="7.22609">
        <ele>546</ele>
        <time>2019-04-17T20:36:40Z</time>
      </trkpt>
      <trkpt lat="44.94339" lon="7.22575">
        <ele>546</ele>
        <time>2019-04-17T20:37:40Z</time>
      </trkpt>
      <trkpt lat="44.94368" lon="7.22543">
        <ele>547</ele>
        <time>2019-04-17T20:38:40Z</time>
      </trkpt>
      <trkpt lat="44.94405" lon="7.22514">
        <ele>549</ele>
        <time>2019-04-17T20:39:40Z</time>
      </trkpt>
      <trkpt lat="44.94562" lon="7.22407">
        <ele>554</ele>
        <time>2019-04-17T20:40:40Z</time>
      </trkpt>
      <trkpt lat="44.94576" lon="7.22395">
        <ele>555</ele>
        <time>2019-04-17T20:41:40Z</time>
      </trkpt>
      <trkpt lat="44.94585" lon="7.22383">
        <ele>555</ele>
        <time>2019-04-17T20:42:40Z</time>
      </trkpt>
      <trkpt lat="44.94599" lon="7.22362">
        <ele>556</ele>
        <time>2019-04-17T20:43:40Z</time>
      </trkpt>
      <trkpt lat="44.9469" lon="7.22202">
        <ele>561</ele>
        <time>2019-04-17T20:44:40Z</time>
      </trkpt>
      <trkpt lat="44.94697" lon="7.22185">
        <ele>561</ele>
        <time>2019-04-17T20:45:40Z</time>
      </trkpt>
      <trkpt lat="44.94719" lon="7.22102">
        <ele>558</ele>
        <time>2019-04-17T20:46:40Z</time>
      </trkpt>
      <trkpt lat="44.94729" lon="7.22073">
        <ele>558</ele>
        <time>2019-04-17T20:47:40Z</time>
      </trkpt>
      <trkpt lat="44.94825" lon="7.21854">
        <ele>558</ele>
        <time>2019-04-17T20:48:40Z</time>
      </trkpt>
      <trkpt lat="44.94834" lon="7.21838">
        <ele>558</ele>
        <time>2019-04-17T20:49:40Z</time>
      </trkpt>
      <trkpt lat="44.94856" lon="7.2181">
        <ele>560</ele>
        <time>2019-04-17T20:50:40Z</time>
      </trkpt>
      <trkpt lat="44.9494" lon="7.21729">
        <ele>563</ele>
        <time>2019-04-17T20:51:40Z</time>
      </trkpt>
      <trkpt lat="44.94954" lon="7.21714">
        <ele>564</ele>
        <time>2019-04-17T20:52:40Z</time>
      </trkpt>
      <trkpt lat="44.94966" lon="7.21696">
        <ele>564</ele>
        <time>2019-04-17T20:53:40Z</time>
      </trkpt>
      <trkpt lat="44.95002" lon="7.21626">
        <ele>566</ele>
        <time>2019-04-17T20:54:40Z</time>
      </trkpt>
      <trkpt lat="44.95059" lon="7.21486">
        <ele>569</ele>
        <time>2019-04-17T20:55:40Z</time>
      </trkpt>
      <trkpt lat="44.95143" lon="7.21291">
        <ele>571</ele>
        <time>2019-04-17T20:56:40Z</time>
      </trkpt>
      <trkpt lat="44.9516" lon="7.21262">
        <ele>573</ele>
        <time>2019-04-17T20:57:40Z</time>
      </trkpt>
      <trkpt lat="44.95178" lon="7.21242">
        <ele>574</ele>
        <time>2019-04-17T20:58:40Z</time>
      </trkpt>
      <trkpt lat="44.95224" lon="7.21207">
        <ele>578</ele>
        <time>2019-04-17T20:59:40Z</time>
      </trkpt>
      <trkpt lat="44.95238" lon="7.21191">
        <ele>580</ele>
        <time>2019-04-17T21:00:40Z</time>
      </trkpt>
      <trkpt lat="44.9525" lon="7.21171">
        <ele>581</ele>
        <time>2019-04-17T21:01:40Z</time>
      </trkpt>
      <trkpt lat="44.95259" lon="7.21147">
        <ele>582</ele>
        <time>2019-04-17T21:02:40Z</time>
      </trkpt>
      <trkpt lat="44.95295" lon="7.21013">
        <ele>586</ele>
        <time>2019-04-17T21:03:40Z</time>
      </trkpt>
      <trkpt lat="44.95308" lon="7.20972">
        <ele>586</ele>
        <time>2019-04-17T21:04:40Z</time>
      </trkpt>
      <trkpt lat="44.95361" lon="7.20877">
        <ele>588</ele>
        <time>2019-04-17T21:05:40Z</time>
      </trkpt>
      <trkpt lat="44.95367" lon="7.20859">
        <ele>588</ele>
        <time>2019-04-17T21:06:40Z</time>
      </trkpt>
      <trkpt lat="44.954" lon="7.20746">
        <ele>589</ele>
        <time>2019-04-17T21:07:40Z</time>
      </trkpt>
      <trkpt lat="44.95408" lon="7.20723">
        <ele>590</ele>
        <time>2019-04-17T21:08:40Z</time>
      </trkpt>
      <trkpt lat="44.95444" lon="7.20643">
        <ele>590</ele>
        <time>2019-04-17T21:09:40Z</time>
      </trkpt>
      <trkpt lat="44.95468" lon="7.20603">
        <ele>592</ele>
        <time>2019-04-17T21:10:40Z</time>
      </trkpt>
      <trkpt lat="44.95507" lon="7.20562">
        <ele>594</ele>
        <time>2019-04-17T21:11:40Z</time>
      </trkpt>
      <trkpt lat="44.95516" lon="7.20549">
        <ele>596</ele>
        <time>2019-04-17T21:12:40Z</time>
      </trkpt>
      <trkpt lat="44.95527" lon="7.20525">
        <ele>597</ele>
        <time>2019-04-17T21:13:40Z</time>
      </trkpt>
      <trkpt lat="44.95534" lon="7.20501">
        <ele>597</ele>
        <time>2019-04-17T21:14:40Z</time>
      </trkpt>
      <trkpt lat="44.95538" lon="7.20468">
        <ele>597</ele>
        <time>2019-04-17T21:15:40Z</time>
      </trkpt>
      <trkpt lat="44.95549" lon="7.20264">
        <ele>596</ele>
        <time>2019-04-17T21:16:40Z</time>
      </trkpt>
      <trkpt lat="44.95547" lon="7.20254">
        <ele>596</ele>
        <time>2019-04-17T21:17:40Z</time>
      </trkpt>
      <trkpt lat="44.9556" lon="7.20233">
        <ele>598</ele>
        <time>2019-04-17T21:18:40Z</time>
      </trkpt>
      <trkpt lat="44.95598" lon="7.20145">
        <ele>603</ele>
        <time>2019-04-17T21:19:40Z</time>
      </trkpt>
      <trkpt lat="44.95604" lon="7.20124">
        <ele>605</ele>
        <time>2019-04-17T21:20:40Z</time>
      </trkpt>
      <trkpt lat="44.95597" lon="7.20099">
        <ele>604</ele>
        <time>2019-04-17T21:21:40Z</time>
      </trkpt>
      <trkpt lat="44.95577" lon="7.2007">
        <ele>602</ele>
        <time>2019-04-17T21:22:40Z</time>
      </trkpt>
      <trkpt lat="44.95563" lon="7.2004">
        <ele>601</ele>
        <time>2019-04-17T21:23:40Z</time>
      </trkpt>
      <trkpt lat="44.95557" lon="7.19971">
        <ele>600</ele>
        <time>2019-04-17T21:24:40Z</time>
      </trkpt>
      <trkpt lat="44.9553" lon="7.19891">
        <ele>599</ele>
        <time>2019-04-17T21:25:40Z</time>
      </trkpt>
      <trkpt lat="44.95521" lon="7.19891">
        <ele>599</ele>
        <time>2019-04-17T21:26:40Z</time>
      </trkpt>
      <trkpt lat="44.95517" lon="7.19861">
        <ele>599</ele>
        <time>2019-04-17T21:27:40Z</time>
      </trkpt>
      <trkpt lat="44.95511" lon="7.19833">
        <ele>599</ele>
        <time>2019-04-17T21:28:40Z</time>
      </trkpt>
      <trkpt lat="44.95493" lon="7.19785">
        <ele>600</ele>
        <time>2019-04-17T21:29:40Z</time>
      </trkpt>
      <trkpt lat="44.95468" lon="7.19741">
        <ele>602</ele>
        <time>2019-04-17T21:30:40Z</time>
      </trkpt>
      <trkpt lat="44.95447" lon="7.19721">
        <ele>604</ele>
        <time>2019-04-17T21:31:40Z</time>
      </trkpt>
      <trkpt lat="44.954" lon="7.19687">
        <ele>603</ele>
        <time>2019-04-17T21:32:40Z</time>
      </trkpt>
      <trkpt lat="44.95378" lon="7.19664">
        <ele>602</ele>
        <time>2019-04-17T21:33:40Z</time>
      </trkpt>
      <trkpt lat="44.95357" lon="7.19632">
        <ele>603</ele>
        <time>2019-04-17T21:34:40Z</time>
      </trkpt>
      <trkpt lat="44.95344" lon="7.19603">
        <ele>604</ele>
        <time>2019-04-17T21:35:40Z</time>
      </trkpt>
      <trkpt lat="44.95334" lon="7.19563">
        <ele>605</ele>
        <time>2019-04-17T21:36:40Z</time>
      </trkpt>
      <trkpt lat="44.95326" lon="7.19513">
        <ele>603</ele>
        <time>2019-04-17T21:37:40Z</time>
      </trkpt>
      <trkpt lat="44.95325" lon="7.19489">
        <ele>602</ele>
        <time>2019-04-17T21:38:40Z</time>
      </trkpt>
      <trkpt lat="44.9533" lon="7.19471">
        <ele>600</ele>
        <time>2019-04-17T21:39:40Z</time>
      </trkpt>
      <trkpt lat="44.95336" lon="7.1946">
        <ele>600</ele>
        <time>2019-04-17T21:40:40Z</time>
      </trkpt>
      <trkpt lat="44.95346" lon="7.19451">
        <ele>600</ele>
        <time>2019-04-17T21:41:40Z</time>
      </trkpt>
      <trkpt lat="44.95361" lon="7.19443">
        <ele>601</ele>
        <time>2019-04-17T21:42:40Z</time>
      </trkpt>
      <trkpt lat="44.95382" lon="7.19445">
        <ele>605</ele>
        <time>2019-04-17T21:43:40Z</time>
      </trkpt>
      <trkpt lat="44.95417" lon="7.19463">
        <ele>613</ele>
        <time>2019-04-17T21:44:40Z</time>
      </trkpt>
      <trkpt lat="44.9543" lon="7.19464">
        <ele>614</ele>
        <time>2019-04-17T21:45:40Z</time>
      </trkpt>
      <trkpt lat="44.9545" lon="7.1946">
        <ele>615</ele>
        <time>2019-04-17T21:46:40Z</time>
      </trkpt>
      <trkpt lat="44.95515" lon="7.19429">
        <ele>615</ele>
        <time>2019-04-17T21:47:40Z</time>
      </trkpt>
      <trkpt lat="44.95549" lon="7.19407">
        <ele>617</ele>
        <time>2019-04-17T21:48:40Z</time>
      </trkpt>
      <trkpt lat="44.95566" lon="7.19386">
        <ele>617</ele>
        <time>2019-04-17T21:49:40Z</time>
      </trkpt>
      <trkpt lat="44.95576" lon="7.19368">
        <ele>617</ele>
        <time>2019-04-17T21:50:40Z</time>
      </trkpt>
      <trkpt lat="44.95615" lon="7.19275">
        <ele>617</ele>
        <time>2019-04-17T21:51:40Z</time>
      </trkpt>
      <trkpt lat="44.95622" lon="7.19265">
        <ele>618</ele>
        <time>2019-04-17T21:52:40Z</time>
      </trkpt>
      <trkpt lat="44.95657" lon="7.19226">
        <ele>620</ele>
        <time>2019-04-17T21:53:40Z</time>
      </trkpt>
      <trkpt lat="44.95781" lon="7.19069">
        <ele>627</ele>
        <time>2019-04-17T21:54:40Z</time>
      </trkpt>
      <trkpt lat="44.95871" lon="7.1896">
        <ele>632</ele>
        <time>2019-04-17T21:55:40Z</time>
      </trkpt>
      <trkpt lat="44.95901" lon="7.18926">
        <ele>633</ele>
        <time>2019-04-17T21:56:40Z</time>
      </trkpt>
      <trkpt lat="44.95937" lon="7.18903">
        <ele>636</ele>
        <time>2019-04-17T21:57:40Z</time>
      </trkpt>
      <trkpt lat="44.95965" lon="7.18878">
        <ele>638</ele>
        <time>2019-04-17T21:58:40Z</time>
      </trkpt>
      <trkpt lat="44.95996" lon="7.18829">
        <ele>640</ele>
        <time>2019-04-17T21:59:40Z</time>
      </trkpt>
      <trkpt lat="44.9601" lon="7.18818">
        <ele>639</ele>
        <time>2019-04-17T22:00:40Z</time>
      </trkpt>
      <trkpt lat="44.96025" lon="7.18808">
        <ele>638</ele>
        <time>2019-04-17T22:01:40Z</time>
      </trkpt>
      <trkpt lat="44.96084" lon="7.18789">
        <ele>641</ele>
        <time>2019-04-17T22:02:40Z</time>
      </trkpt>
      <trkpt lat="44.96148" lon="7.18764">
        <ele>647</ele>
        <time>2019-04-17T22:03:40Z</time>
      </trkpt>
      <trkpt lat="44.96183" lon="7.18736">
        <ele>649</ele>
        <time>2019-04-17T22:04:40Z</time>
      </trkpt>
      <trkpt lat="44.96248" lon="7.18669">
        <ele>651</ele>
        <time>2019-04-17T22:05:40Z</time>
      </trkpt>
      <trkpt lat="44.96322" lon="7.18617">
        <ele>653</ele>
        <time>2019-04-17T22:06:40Z</time>
      </trkpt>
      <trkpt lat="44.96346" lon="7.18597">
        <ele>654</ele>
        <time>2019-04-17T22:07:40Z</time>
      </trkpt>
      <trkpt lat="44.96373" lon="7.18585">
        <ele>654</ele>
        <time>2019-04-17T22:08:40Z</time>
      </trkpt>
      <trkpt lat="44.96433" lon="7.18574">
        <ele>656</ele>
        <time>2019-04-17T22:09:40Z</time>
      </trkpt>
      <trkpt lat="44.96448" lon="7.18569">
        <ele>657</ele>
        <time>2019-04-17T22:10:40Z</time>
      </trkpt>
      <trkpt lat="44.96488" lon="7.18552">
        <ele>657</ele>
        <time>2019-04-17T22:11:40Z</time>
      </trkpt>
      <trkpt lat="44.96556" lon="7.18513">
        <ele>658</ele>
        <time>2019-04-17T22:12:40Z</time>
      </trkpt>
      <trkpt lat="44.96593" lon="7.18484">
        <ele>659</ele>
        <time>2019-04-17T22:13:40Z</time>
      </trkpt>
      <trkpt lat="44.96617" lon="7.18449">
        <ele>660</ele>
        <time>2019-04-17T22:14:40Z</time>
      </trkpt>
      <trkpt lat="44.96636" lon="7.18404">
        <ele>657</ele>
        <time>2019-04-17T22:15:40Z</time>
      </trkpt>
      <trkpt lat="44.96692" lon="7.1823">
        <ele>657</ele>
        <time>2019-04-17T22:16:40Z</time>
      </trkpt>
      <trkpt lat="44.96715" lon="7.18152">
        <ele>661</ele>
        <time>2019-04-17T22:17:40Z</time>
      </trkpt>
      <trkpt lat="44.96738" lon="7.18026">
        <ele>660</ele>
        <time>2019-04-17T22:18:40Z</time>
      </trkpt>
      <trkpt lat="44.96757" lon="7.17973">
        <ele>661</ele>
        <time>2019-04-17T22:19:40Z</time>
      </trkpt>
      <trkpt lat="44.96779" lon="7.17927">
        <ele>662</ele>
        <time>2019-04-17T22:20:40Z</time>
      </trkpt>
      <trkpt lat="44.96806" lon="7.17887">
        <ele>663</ele>
        <time>2019-04-17T22:21:40Z</time>
      </trkpt>
      <trkpt lat="44.96844" lon="7.17849">
        <ele>661</ele>
        <time>2019-04-17T22:22:40Z</time>
      </trkpt>
      <trkpt lat="44.96872" lon="7.1783">
        <ele>660</ele>
        <time>2019-04-17T22:23:40Z</time>
      </trkpt>
      <trkpt lat="44.97046" lon="7.17771">
        <ele>666</ele>
        <time>2019-04-17T22:24:40Z</time>
      </trkpt>
      <trkpt lat="44.97094" lon="7.1774">
        <ele>668</ele>
        <time>2019-04-17T22:25:40Z</time>
      </trkpt>
      <trkpt lat="44.97146" lon="7.17694">
        <ele>669</ele>
        <time>2019-04-17T22:26:40Z</time>
      </trkpt>
      <trkpt lat="44.97199" lon="7.17628">
        <ele>675</ele>
        <time>2019-04-17T22:27:40Z</time>
      </trkpt>
      <trkpt lat="44.97313" lon="7.17435">
        <ele>702</ele>
        <time>2019-04-17T22:28:40Z</time>
      </trkpt>
      <trkpt lat="44.97364" lon="7.17287">
        <ele>703</ele>
        <time>2019-04-17T22:29:40Z</time>
      </trkpt>
      <trkpt lat="44.97389" lon="7.17242">
        <ele>702</ele>
        <time>2019-04-17T22:30:40Z</time>
      </trkpt>
      <trkpt lat="44.97426" lon="7.17213">
        <ele>699</ele>
        <time>2019-04-17T22:31:40Z</time>
      </trkpt>
      <trkpt lat="44.97483" lon="7.17191">
        <ele>700</ele>
        <time>2019-04-17T22:32:40Z</time>
      </trkpt>
      <trkpt lat="44.97551" lon="7.17141">
        <ele>703</ele>
        <time>2019-04-17T22:33:40Z</time>
      </trkpt>
      <trkpt lat="44.97574" lon="7.17109">
        <ele>703</ele>
        <time>2019-04-17T22:34:40Z</time>
      </trkpt>
      <trkpt lat="44.9758" lon="7.17072">
        <ele>699</ele>
        <time>2019-04-17T22:35:40Z</time>
      </trkpt>
      <trkpt lat="44.97582" lon="7.17038">
        <ele>697</ele>
        <time>2019-04-17T22:36:40Z</time>
      </trkpt>
      <trkpt lat="44.97576" lon="7.1697">
        <ele>694</ele>
        <time>2019-04-17T22:37:40Z</time>
      </trkpt>
      <trkpt lat="44.97583" lon="7.16736">
        <ele>695</ele>
        <time>2019-04-17T22:38:40Z</time>
      </trkpt>
      <trkpt lat="44.9759" lon="7.16685">
        <ele>697</ele>
        <time>2019-04-17T22:39:40Z</time>
      </trkpt>
      <trkpt lat="44.97662" lon="7.16386">
        <ele>710</ele>
        <time>2019-04-17T22:40:40Z</time>
      </trkpt>
      <trkpt lat="44.97689" lon="7.16284">
        <ele>711</ele>
        <time>2019-04-17T22:41:40Z</time>
      </trkpt>
      <trkpt lat="44.97705" lon="7.16247">
        <ele>710</ele>
        <time>2019-04-17T22:42:40Z</time>
      </trkpt>
      <trkpt lat="44.97726" lon="7.16223">
        <ele>712</ele>
        <time>2019-04-17T22:43:40Z</time>
      </trkpt>
      <trkpt lat="44.97754" lon="7.16207">
        <ele>714</ele>
        <time>2019-04-17T22:44:40Z</time>
      </trkpt>
      <trkpt lat="44.97794" lon="7.16195">
        <ele>719</ele>
        <time>2019-04-17T22:45:40Z</time>
      </trkpt>
      <trkpt lat="44.97827" lon="7.16171">
        <ele>720</ele>
        <time>2019-04-17T22:46:40Z</time>
      </trkpt>
      <trkpt lat="44.97951" lon="7.16064">
        <ele>728</ele>
        <time>2019-04-17T22:47:40Z</time>
      </trkpt>
      <trkpt lat="44.97983" lon="7.16026">
        <ele>731</ele>
        <time>2019-04-17T22:48:40Z</time>
      </trkpt>
      <trkpt lat="44.98065" lon="7.15889">
        <ele>739</ele>
        <time>2019-04-17T22:49:40Z</time>
      </trkpt>
      <trkpt lat="44.98088" lon="7.15844">
        <ele>738</ele>
        <time>2019-04-17T22:50:40Z</time>
      </trkpt>
      <trkpt lat="44.98142" lon="7.15693">
        <ele>743</ele>
        <time>2019-04-17T22:51:40Z</time>
      </trkpt>
      <trkpt lat="44.98239" lon="7.15459">
        <ele>744</ele>
        <time>2019-04-17T22:52:40Z</time>
      </trkpt>
      <trkpt lat="44.98248" lon="7.15424">
        <ele>742</ele>
        <time>2019-04-17T22:53:40Z</time>
      </trkpt>
      <trkpt lat="44.98252" lon="7.15387">
        <ele>741</ele>
        <time>2019-04-17T22:54:40Z</time>
      </trkpt>
      <trkpt lat="44.98256" lon="7.15178">
        <ele>750</ele>
        <time>2019-04-17T22:55:40Z</time>
      </trkpt>
      <trkpt lat="44.98263" lon="7.15073">
        <ele>755</ele>
        <time>2019-04-17T22:56:40Z</time>
      </trkpt>
      <trkpt lat="44.98288" lon="7.1488">
        <ele>756</ele>
        <time>2019-04-17T22:57:40Z</time>
      </trkpt>
      <trkpt lat="44.98306" lon="7.14795">
        <ele>757</ele>
        <time>2019-04-17T22:58:40Z</time>
      </trkpt>
      <trkpt lat="44.98321" lon="7.1475">
        <ele>758</ele>
        <time>2019-04-17T22:59:40Z</time>
      </trkpt>
      <trkpt lat="44.98341" lon="7.14721">
        <ele>760</ele>
        <time>2019-04-17T23:00:40Z</time>
      </trkpt>
      <trkpt lat="44.98371" lon="7.14686">
        <ele>762</ele>
        <time>2019-04-17T23:01:40Z</time>
      </trkpt>
      <trkpt lat="44.98386" lon="7.14672">
        <ele>762</ele>
        <time>2019-04-17T23:02:40Z</time>
      </trkpt>
      <trkpt lat="44.98428" lon="7.14656">
        <ele>764</ele>
        <time>2019-04-17T23:03:40Z</time>
      </trkpt>
      <trkpt lat="44.98455" lon="7.14641">
        <ele>765</ele>
        <time>2019-04-17T23:04:40Z</time>
      </trkpt>
      <trkpt lat="44.98554" lon="7.14525">
        <ele>766</ele>
        <time>2019-04-17T23:05:40Z</time>
      </trkpt>
      <trkpt lat="44.9864" lon="7.14423">
        <ele>770</ele>
        <time>2019-04-17T23:06:40Z</time>
      </trkpt>
      <trkpt lat="44.98766" lon="7.14248">
        <ele>778</ele>
        <time>2019-04-17T23:07:40Z</time>
      </trkpt>
      <trkpt lat="44.98784" lon="7.14229">
        <ele>779</ele>
        <time>2019-04-17T23:08:40Z</time>
      </trkpt>
      <trkpt lat="44.98839" lon="7.14176">
        <ele>782</ele>
        <time>2019-04-17T23:09:40Z</time>
      </trkpt>
      <trkpt lat="44.98865" lon="7.14159">
        <ele>783</ele>
        <time>2019-04-17T23:10:40Z</time>
      </trkpt>
      <trkpt lat="44.98881" lon="7.14154">
        <ele>785</ele>
        <time>2019-04-17T23:11:40Z</time>
      </trkpt>
      <trkpt lat="44.9908" lon="7.14118">
        <ele>802</ele>
        <time>2019-04-17T23:12:40Z</time>
      </trkpt>
      <trkpt lat="44.99112" lon="7.14108">
        <ele>804</ele>
        <time>2019-04-17T23:13:40Z</time>
      </trkpt>
      <trkpt lat="44.99282" lon="7.14041">
        <ele>814</ele>
        <time>2019-04-17T23:14:40Z</time>
      </trkpt>
      <trkpt lat="44.99295" lon="7.14034">
        <ele>815</ele>
        <time>2019-04-17T23:15:40Z</time>
      </trkpt>
      <trkpt lat="44.99303" lon="7.14027">
        <ele>814</ele>
        <time>2019-04-17T23:16:40Z</time>
      </trkpt>
      <trkpt lat="44.9933" lon="7.13986">
        <ele>809</ele>
        <time>2019-04-17T23:17:40Z</time>
      </trkpt>
      <trkpt lat="44.9956" lon="7.13583">
        <ele>823</ele>
        <time>2019-04-17T23:18:40Z</time>
      </trkpt>
      <trkpt lat="44.99585" lon="7.13524">
        <ele>825</ele>
        <time>2019-04-17T23:19:40Z</time>
      </trkpt>
      <trkpt lat="44.99596" lon="7.13483">
        <ele>828</ele>
        <time>2019-04-17T23:20:40Z</time>
      </trkpt>
      <trkpt lat="44.99599" lon="7.13468">
        <ele>829</ele>
        <time>2019-04-17T23:21:40Z</time>
      </trkpt>
      <trkpt lat="44.99601" lon="7.1345">
        <ele>830</ele>
        <time>2019-04-17T23:22:40Z</time>
      </trkpt>
      <trkpt lat="44.99581" lon="7.13344">
        <ele>830</ele>
        <time>2019-04-17T23:23:40Z</time>
      </trkpt>
      <trkpt lat="44.9958" lon="7.13321">
        <ele>831</ele>
        <time>2019-04-17T23:24:40Z</time>
      </trkpt>
      <trkpt lat="44.99589" lon="7.13292">
        <ele>833</ele>
        <time>2019-04-17T23:25:40Z</time>
      </trkpt>
      <trkpt lat="44.99609" lon="7.13272">
        <ele>835</ele>
        <time>2019-04-17T23:26:40Z</time>
      </trkpt>
      <trkpt lat="44.99925" lon="7.1314">
        <ele>850</ele>
        <time>2019-04-17T23:27:40Z</time>
      </trkpt>
      <trkpt lat="44.99974" lon="7.13103">
        <ele>850</ele>
        <time>2019-04-17T23:28:40Z</time>
      </trkpt>
      <trkpt lat="44.99989" lon="7.13079">
        <ele>850</ele>
        <time>2019-04-17T23:29:40Z</time>
      </trkpt>
      <trkpt lat="45.00044" lon="7.1294">
        <ele>855</ele>
        <time>2019-04-17T23:30:40Z</time>
      </trkpt>
      <trkpt lat="45.00061" lon="7.12915">
        <ele>856</ele>
        <time>2019-04-17T23:31:40Z</time>
      </trkpt>
      <trkpt lat="45.0009" lon="7.1289">
        <ele>858</ele>
        <time>2019-04-17T23:32:40Z</time>
      </trkpt>
      <trkpt lat="45.00149" lon="7.12871">
        <ele>860</ele>
        <time>2019-04-17T23:33:40Z</time>
      </trkpt>
      <trkpt lat="45.00213" lon="7.12834">
        <ele>863</ele>
        <time>2019-04-17T23:34:40Z</time>
      </trkpt>
      <trkpt lat="45.00307" lon="7.12766">
        <ele>868</ele>
        <time>2019-04-17T23:35:40Z</time>
      </trkpt>
      <trkpt lat="45.00343" lon="7.12735">
        <ele>869</ele>
        <time>2019-04-17T23:36:40Z</time>
      </trkpt>
      <trkpt lat="45.0039" lon="7.12663">
        <ele>875</ele>
        <time>2019-04-17T23:37:40Z</time>
      </trkpt>
      <trkpt lat="45.00415" lon="7.12614">
        <ele>877</ele>
        <time>2019-04-17T23:38:40Z</time>
      </trkpt>
      <trkpt lat="45.00423" lon="7.12557">
        <ele>880</ele>
        <time>2019-04-17T23:39:40Z</time>
      </trkpt>
      <trkpt lat="45.00435" lon="7.12508">
        <ele>882</ele>
        <time>2019-04-17T23:40:40Z</time>
      </trkpt>
      <trkpt lat="45.0046" lon="7.12475">
        <ele>887</ele>
        <time>2019-04-17T23:41:40Z</time>
      </trkpt>
      <trkpt lat="45.00541" lon="7.12434">
        <ele>897</ele>
        <time>2019-04-17T23:42:40Z</time>
      </trkpt>
      <trkpt lat="45.00636" lon="7.12361">
        <ele>905</ele>
        <time>2019-04-17T23:43:40Z</time>
      </trkpt>
      <trkpt lat="45.00664" lon="7.12319">
        <ele>906</ele>
        <time>2019-04-17T23:44:40Z</time>
      </trkpt>
      <trkpt lat="45.00698" lon="7.12237">
        <ele>905</ele>
        <time>2019-04-17T23:45:40Z</time>
      </trkpt>
      <trkpt lat="45.00726" lon="7.12197">
        <ele>907</ele>
        <time>2019-04-17T23:46:40Z</time>
      </trkpt>
      <trkpt lat="45.0077" lon="7.12147">
        <ele>910</ele>
        <time>2019-04-17T23:47:40Z</time>
      </trkpt>
      <trkpt lat="45.01135" lon="7.11793">
        <ele>941</ele>
        <time>2019-04-17T23:48:40Z</time>
      </trkpt>
      <trkpt lat="45.01189" lon="7.11758">
        <ele>942</ele>
        <time>2019-04-17T23:49:40Z</time>
      </trkpt>
      <trkpt lat="45.01217" lon="7.1175">
        <ele>945</ele>
        <time>2019-04-17T23:50:40Z</time>
      </trkpt>
      <trkpt lat="45.01294" lon="7.11742">
        <ele>956</ele>
        <time>2019-04-17T23:51:40Z</time>
      </trkpt>
      <trkpt lat="45.01323" lon="7.11733">
        <ele>958</ele>
        <time>2019-04-17T23:52:40Z</time>
      </trkpt>
      <trkpt lat="45.01391" lon="7.11694">
        <ele>959</ele>
        <time>2019-04-17T23:53:40Z</time>
      </trkpt>
      <trkpt lat="45.01459" lon="7.11673">
        <ele>964</ele>
        <time>2019-04-17T23:54:40Z</time>
      </trkpt>
      <trkpt lat="45.0148" lon="7.1166">
        <ele>965</ele>
        <time>2019-04-17T23:55:40Z</time>
      </trkpt>
      <trkpt lat="45.01562" lon="7.116">
        <ele>971</ele>
        <time>2019-04-17T23:56:40Z</time>
      </trkpt>
      <trkpt lat="45.01589" lon="7.11578">
        <ele>973</ele>
        <time>2019-04-17T23:57:40Z</time>
      </trkpt>
      <trkpt lat="45.01603" lon="7.11558">
        <ele>975</ele>
        <time>2019-04-17T23:58:40Z</time>
      </trkpt>
      <trkpt lat="45.01851" lon="7.111">
        <ele>987</ele>
        <time>2019-04-17T23:59:40Z</time>
      </trkpt>
      <trkpt lat="45.01872" lon="7.11073">
        <ele>987</ele>
        <time>2019-04-18T00:00:40Z</time>
      </trkpt>
      <trkpt lat="45.01891" lon="7.11055">
        <ele>987</ele>
        <time>2019-04-18T00:01:40Z</time>
      </trkpt>
      <trkpt lat="45.02072" lon="7.10898">
        <ele>993</ele>
        <time>2019-04-18T00:02:40Z</time>
      </trkpt>
      <trkpt lat="45.021" lon="7.10864">
        <ele>997</ele>
        <time>2019-04-18T00:03:40Z</time>
      </trkpt>
      <trkpt lat="45.02117" lon="7.10831">
        <ele>999</ele>
        <time>2019-04-18T00:04:40Z</time>
      </trkpt>
      <trkpt lat="45.02156" lon="7.10721">
        <ele>997</ele>
        <time>2019-04-18T00:05:40Z</time>
      </trkpt>
      <trkpt lat="45.02226" lon="7.10515">
        <ele>1006</ele>
        <time>2019-04-18T00:06:40Z</time>
      </trkpt>
      <trkpt lat="45.02255" lon="7.10423">
        <ele>1008</ele>
        <time>2019-04-18T00:07:40Z</time>
      </trkpt>
      <trkpt lat="45.02272" lon="7.10356">
        <ele>1016</ele>
        <time>2019-04-18T00:08:40Z</time>
      </trkpt>
      <trkpt lat="45.02276" lon="7.10317">
        <ele>1019</ele>
        <time>2019-04-18T00:09:40Z</time>
      </trkpt>
      <trkpt lat="45.02284" lon="7.10194">
        <ele>1028</ele>
        <time>2019-04-18T00:10:40Z</time>
      </trkpt>
      <trkpt lat="45.02281" lon="7.10121">
        <ele>1032</ele>
        <time>2019-04-18T00:11:40Z</time>
      </trkpt>
      <trkpt lat="45.02276" lon="7.10092">
        <ele>1031</ele>
        <time>2019-04-18T00:12:40Z</time>
      </trkpt>
      <trkpt lat="45.02257" lon="7.10037">
        <ele>1031</ele>
        <time>2019-04-18T00:13:40Z</time>
      </trkpt>
      <trkpt lat="45.02249" lon="7.10018">
        <ele>1031</ele>
        <time>2019-04-18T00:14:40Z</time>
      </trkpt>
      <trkpt lat="45.02219" lon="7.09973">
        <ele>1025</ele>
        <time>2019-04-18T00:15:40Z</time>
      </trkpt>
      <trkpt lat="45.02211" lon="7.09945">
        <ele>1025</ele>
        <time>2019-04-18T00:16:40Z</time>
      </trkpt>
      <trkpt lat="45.02207" lon="7.09829">
        <ele>1031</ele>
        <time>2019-04-18T00:17:40Z</time>
      </trkpt>
      <trkpt lat="45.02205" lon="7.09738">
        <ele>1033</ele>
        <time>2019-04-18T00:18:40Z</time>
      </trkpt>
      <trkpt lat="45.022" lon="7.09673">
        <ele>1027</ele>
        <time>2019-04-18T00:19:40Z</time>
      </trkpt>
      <trkpt lat="45.02207" lon="7.09636">
        <ele>1028</ele>
        <time>2019-04-18T00:20:40Z</time>
      </trkpt>
      <trkpt lat="45.02218" lon="7.09601">
        <ele>1030</ele>
        <time>2019-04-18T00:21:40Z</time>
      </trkpt>
      <trkpt lat="45.02239" lon="7.09553">
        <ele>1034</ele>
        <time>2019-04-18T00:22:40Z</time>
      </trkpt>
      <trkpt lat="45.02277" lon="7.09484">
        <ele>1038</ele>
        <time>2019-04-18T00:23:40Z</time>
      </trkpt>
      <trkpt lat="45.02299" lon="7.09433">
        <ele>1041</ele>
        <time>2019-04-18T00:24:40Z</time>
      </trkpt>
      <trkpt lat="45.02341" lon="7.09298">
        <ele>1045</ele>
        <time>2019-04-18T00:25:40Z</time>
      </trkpt>
      <trkpt lat="45.02376" lon="7.09067">
        <ele>1046</ele>
        <time>2019-04-18T00:26:40Z</time>
      </trkpt>
      <trkpt lat="45.02381" lon="7.09014">
        <ele>1047</ele>
        <time>2019-04-18T00:27:40Z</time>
      </trkpt>
      <trkpt lat="45.02384" lon="7.08844">
        <ele>1045</ele>
        <time>2019-04-18T00:28:40Z</time>
      </trkpt>
      <trkpt lat="45.02387" lon="7.08807">
        <ele>1045</ele>
        <time>2019-04-18T00:29:40Z</time>
      </trkpt>
      <trkpt lat="45.02398" lon="7.08758">
        <ele>1045</ele>
        <time>2019-04-18T00:30:40Z</time>
      </trkpt>
      <trkpt lat="45.02422" lon="7.08713">
        <ele>1046</ele>
        <time>2019-04-18T00:31:40Z</time>
      </trkpt>
      <trkpt lat="45.02468" lon="7.08646">
        <ele>1048</ele>
        <time>2019-04-18T00:32:40Z</time>
      </trkpt>
      <trkpt lat="45.02477" lon="7.08625">
        <ele>1049</ele>
        <time>2019-04-18T00:33:40Z</time>
      </trkpt>
      <trkpt lat="45.02486" lon="7.08595">
        <ele>1049</ele>
        <time>2019-04-18T00:34:40Z</time>
      </trkpt>
      <trkpt lat="45.02502" lon="7.08503">
        <ele>1049</ele>
        <time>2019-04-18T00:35:40Z</time>
      </trkpt>
      <trkpt lat="45.02505" lon="7.08482">
        <ele>1050</ele>
        <time>2019-04-18T00:36:40Z</time>
      </trkpt>
      <trkpt lat="45.02509" lon="7.08406">
        <ele>1053</ele>
        <time>2019-04-18T00:37:40Z</time>
      </trkpt>
      <trkpt lat="45.02507" lon="7.08367">
        <ele>1054</ele>
        <time>2019-04-18T00:38:40Z</time>
      </trkpt>
      <trkpt lat="45.02499" lon="7.08337">
        <ele>1053</ele>
        <time>2019-04-18T00:39:40Z</time>
      </trkpt>
      <trkpt lat="45.02483" lon="7.08303">
        <ele>1050</ele>
        <time>2019-04-18T00:40:40Z</time>
      </trkpt>
      <trkpt lat="45.02477" lon="7.08281">
        <ele>1050</ele>
        <time>2019-04-18T00:41:40Z</time>
      </trkpt>
      <trkpt lat="45.02461" lon="7.08192">
        <ele>1048</ele>
        <time>2019-04-18T00:42:40Z</time>
      </trkpt>
      <trkpt lat="45.02458" lon="7.08168">
        <ele>1048</ele>
        <time>2019-04-18T00:43:40Z</time>
      </trkpt>
      <trkpt lat="45.02458" lon="7.08152">
        <ele>1048</ele>
        <time>2019-04-18T00:44:40Z</time>
      </trkpt>
      <trkpt lat="45.02478" lon="7.0807">
        <ele>1050</ele>
        <time>2019-04-18T00:45:40Z</time>
      </trkpt>
      <trkpt lat="45.02485" lon="7.08053">
        <ele>1050</ele>
        <time>2019-04-18T00:46:40Z</time>
      </trkpt>
      <trkpt lat="45.02491" lon="7.08042">
        <ele>1050</ele>
        <time>2019-04-18T00:47:40Z</time>
      </trkpt>
      <trkpt lat="45.02527" lon="7.07993">
        <ele>1056</ele>
        <time>2019-04-18T00:48:40Z</time>
      </trkpt>
      <trkpt lat="45.02537" lon="7.07974">
        <ele>1058</ele>
        <time>2019-04-18T00:49:40Z</time>
      </trkpt>
      <trkpt lat="45.02548" lon="7.07942">
        <ele>1060</ele>
        <time>2019-04-18T00:50:40Z</time>
      </trkpt>
      <trkpt lat="45.02586" lon="7.07852">
        <ele>1064</ele>
        <time>2019-04-18T00:51:40Z</time>
      </trkpt>
      <trkpt lat="45.02594" lon="7.07825">
        <ele>1065</ele>
        <time>2019-04-18T00:52:40Z</time>
      </trkpt>
      <trkpt lat="45.02603" lon="7.07781">
        <ele>1065</ele>
        <time>2019-04-18T00:53:40Z</time>
      </trkpt>
      <trkpt lat="45.02618" lon="7.07697">
        <ele>1069</ele>
        <time>2019-04-18T00:54:40Z</time>
      </trkpt>
      <trkpt lat="45.02618" lon="7.07672">
        <ele>1069</ele>
        <time>2019-04-18T00:55:40Z</time>
      </trkpt>
      <trkpt lat="45.02616" lon="7.0764">
        <ele>1068</ele>
        <time>2019-04-18T00:56:40Z</time>
      </trkpt>
      <trkpt lat="45.02613" lon="7.07619">
        <ele>1068</ele>
        <time>2019-04-18T00:57:40Z</time>
      </trkpt>
      <trkpt lat="45.02602" lon="7.07577">
        <ele>1064</ele>
        <time>2019-04-18T00:58:40Z</time>
      </trkpt>
      <trkpt lat="45.02601" lon="7.07561">
        <ele>1063</ele>
        <time>2019-04-18T00:59:40Z</time>
      </trkpt>
      <trkpt lat="45.02602" lon="7.07542">
        <ele>1063</ele>
        <time>2019-04-18T01:00:40Z</time>
      </trkpt>
      <trkpt lat="45.0261" lon="7.0751">
        <ele>1067</ele>
        <time>2019-04-18T01:01:40Z</time>
      </trkpt>
      <trkpt lat="45.02629" lon="7.07443">
        <ele>1071</ele>
        <time>2019-04-18T01:02:40Z</time>
      </trkpt>
      <trkpt lat="45.02638" lon="7.07404">
        <ele>1072</ele>
        <time>2019-04-18T01:03:40Z</time>
      </trkpt>
      <trkpt lat="45.02659" lon="7.07284">
        <ele>1073</ele>
        <time>2019-04-18T01:04:40Z</time>
      </trkpt>
      <trkpt lat="45.02665" lon="7.07236">
        <ele>1073</ele>
        <time>2019-04-18T01:05:40Z</time>
      </trkpt>
      <trkpt lat="45.02673" lon="7.06934">
        <ele>1086</ele>
        <time>2019-04-18T01:06:40Z</time>
      </trkpt>
      <trkpt lat="45.02673" lon="7.0691">
        <ele>1087</ele>
        <time>2019-04-18T01:07:40Z</time>
      </trkpt>
      <trkpt lat="45.02668" lon="7.06871">
        <ele>1084</ele>
        <time>2019-04-18T01:08:40Z</time>
      </trkpt>
      <trkpt lat="45.02644" lon="7.06809">
        <ele>1078</ele>
        <time>2019-04-18T01:09:40Z</time>
      </trkpt>
      <trkpt lat="45.0264" lon="7.06791">
        <ele>1077</ele>
        <time>2019-04-18T01:10:40Z</time>
      </trkpt>
      <trkpt lat="45.0264" lon="7.06766">
        <ele>1078</ele>
        <time>2019-04-18T01:11:40Z</time>
      </trkpt>
      <trkpt lat="45.02646" lon="7.06752">
        <ele>1079</ele>
        <time>2019-04-18T01:12:40Z</time>
      </trkpt>
      <trkpt lat="45.02685" lon="7.06684">
        <ele>1087</ele>
        <time>2019-04-18T01:13:40Z</time>
      </trkpt>
      <trkpt lat="45.02693" lon="7.06656">
        <ele>1090</ele>
        <time>2019-04-18T01:14:40Z</time>
      </trkpt>
      <trkpt lat="45.02702" lon="7.06593">
        <ele>1092</ele>
        <time>2019-04-18T01:15:40Z</time>
      </trkpt>
      <trkpt lat="45.02706" lon="7.06521">
        <ele>1093</ele>
        <time>2019-04-18T01:16:40Z</time>
      </trkpt>
      <trkpt lat="45.02726" lon="7.06291">
        <ele>1101</ele>
        <time>2019-04-18T01:17:40Z</time>
      </trkpt>
      <trkpt lat="45.02738" lon="7.06217">
        <ele>1098</ele>
        <time>2019-04-18T01:18:40Z</time>
      </trkpt>
      <trkpt lat="45.02746" lon="7.06171">
        <ele>1095</ele>
        <time>2019-04-18T01:19:40Z</time>
      </trkpt>
      <trkpt lat="45.02753" lon="7.06145">
        <ele>1095</ele>
        <time>2019-04-18T01:20:40Z</time>
      </trkpt>
      <trkpt lat="45.02764" lon="7.06113">
        <ele>1099</ele>
        <time>2019-04-18T01:21:40Z</time>
      </trkpt>
      <trkpt lat="45.02767" lon="7.06095">
        <ele>1099</ele>
        <time>2019-04-18T01:22:40Z</time>
      </trkpt>
      <trkpt lat="45.02771" lon="7.06025">
        <ele>1104</ele>
        <time>2019-04-18T01:23:40Z</time>
      </trkpt>
      <trkpt lat="45.02771" lon="7.06003">
        <ele>1106</ele>
        <time>2019-04-18T01:24:40Z</time>
      </trkpt>
      <trkpt lat="45.02769" lon="7.05983">
        <ele>1108</ele>
        <time>2019-04-18T01:25:40Z</time>
      </trkpt>
      <trkpt lat="45.02763" lon="7.05952">
        <ele>1110</ele>
        <time>2019-04-18T01:26:40Z</time>
      </trkpt>
      <trkpt lat="45.02749" lon="7.05906">
        <ele>1109</ele>
        <time>2019-04-18T01:27:40Z</time>
      </trkpt>
      <trkpt lat="45.02742" lon="7.05852">
        <ele>1113</ele>
        <time>2019-04-18T01:28:40Z</time>
      </trkpt>
      <trkpt lat="45.02736" lon="7.05822">
        <ele>1113</ele>
        <time>2019-04-18T01:29:40Z</time>
      </trkpt>
      <trkpt lat="45.02731" lon="7.05806">
        <ele>1112</ele>
        <time>2019-04-18T01:30:40Z</time>
      </trkpt>
      <trkpt lat="45.02726" lon="7.05795">
        <ele>1111</ele>
        <time>2019-04-18T01:31:40Z</time>
      </trkpt>
      <trkpt lat="45.02713" lon="7.05779">
        <ele>1107</ele>
        <time>2019-04-18T01:32:40Z</time>
      </trkpt>
      <trkpt lat="45.02675" lon="7.05749">
        <ele>1096</ele>
        <time>2019-04-18T01:33:40Z</time>
      </trkpt>
      <trkpt lat="45.02669" lon="7.05742">
        <ele>1094</ele>
        <time>2019-04-18T01:34:40Z</time>
      </trkpt>
      <trkpt lat="45.02666" lon="7.05734">
        <ele>1093</ele>
        <time>2019-04-18T01:35:40Z</time>
      </trkpt>
      <trkpt lat="45.02664" lon="7.05724">
        <ele>1092</ele>
        <time>2019-04-18T01:36:40Z</time>
      </trkpt>
      <trkpt lat="45.02665" lon="7.05714">
        <ele>1092</ele>
        <time>2019-04-18T01:37:40Z</time>
      </trkpt>
      <trkpt lat="45.02668" lon="7.05705">
        <ele>1093</ele>
        <time>2019-04-18T01:38:40Z</time>
      </trkpt>
      <trkpt lat="45.02673" lon="7.05697">
        <ele>1094</ele>
        <time>2019-04-18T01:39:40Z</time>
      </trkpt>
      <trkpt lat="45.02696" lon="7.05679">
        <ele>1098</ele>
        <time>2019-04-18T01:40:40Z</time>
      </trkpt>
      <trkpt lat="45.02713" lon="7.05669">
        <ele>1101</ele>
        <time>2019-04-18T01:41:40Z</time>
      </trkpt>
      <trkpt lat="45.02739" lon="7.05661">
        <ele>1104</ele>
        <time>2019-04-18T01:42:40Z</time>
      </trkpt>
      <trkpt lat="45.02824" lon="7.05647">
        <ele>1115</ele>
        <time>2019-04-18T01:43:40Z</time>
      </trkpt>
      <trkpt lat="45.02884" lon="7.0563">
        <ele>1118</ele>
        <time>2019-04-18T01:44:40Z</time>
      </trkpt>
      <trkpt lat="45.02943" lon="7.05634">
        <ele>1122</ele>
        <time>2019-04-18T01:45:40Z</time>
      </trkpt>
      <trkpt lat="45.02961" lon="7.0564">
        <ele>1123</ele>
        <time>2019-04-18T01:46:40Z</time>
      </trkpt>
      <trkpt lat="45.02997" lon="7.05666">
        <ele>1130</ele>
        <time>2019-04-18T01:47:40Z</time>
      </trkpt>
      <trkpt lat="45.03023" lon="7.05678">
        <ele>1135</ele>
        <time>2019-04-18T01:48:40Z</time>
      </trkpt>
      <trkpt lat="45.03053" lon="7.05679">
        <ele>1136</ele>
        <time>2019-04-18T01:49:40Z</time>
      </trkpt>
      <trkpt lat="45.03073" lon="7.05672">
        <ele>1134</ele>
        <time>2019-04-18T01:50:40Z</time>
      </trkpt>
      <trkpt lat="45.03088" lon="7.05665">
        <ele>1133</ele>
        <time>2019-04-18T01:51:40Z</time>
      </trkpt>
      <trkpt lat="45.03279" lon="7.05533">
        <ele>1144</ele>
        <time>2019-04-18T01:52:40Z</time>
      </trkpt>
      <trkpt lat="45.03295" lon="7.05514">
        <ele>1144</ele>
        <time>2019-04-18T01:53:40Z</time>
      </trkpt>
      <trkpt lat="45.03301" lon="7.05502">
        <ele>1143</ele>
        <time>2019-04-18T01:54:40Z</time>
      </trkpt>
      <trkpt lat="45.03319" lon="7.05451">
        <ele>1143</ele>
        <time>2019-04-18T01:55:40Z</time>
      </trkpt>
      <trkpt lat="45.03321" lon="7.05447">
        <ele>1143</ele>
        <time>2019-04-18T01:56:40Z</time>
      </trkpt>
      <trkpt lat="45.0333" lon="7.05444">
        <ele>1145</ele>
        <time>2019-04-18T01:57:40Z</time>
      </trkpt>
      <trkpt lat="45.03333" lon="7.05438">
        <ele>1145</ele>
        <time>2019-04-18T01:58:40Z</time>
      </trkpt>
      <trkpt lat="45.03347" lon="7.05436">
        <ele>1148</ele>
        <time>2019-04-18T01:59:40Z</time>
      </trkpt>
      <trkpt lat="45.03397" lon="7.05411">
        <ele>1155</ele>
        <time>2019-04-18T02:00:40Z</time>
      </trkpt>
      <trkpt lat="45.03401" lon="7.05411">
        <ele>1155</ele>
        <time>2019-04-18T02:01:40Z</time>
      </trkpt>
      <trkpt lat="45.03409" lon="7.05416">
        <ele>1157</ele>
        <time>2019-04-18T02:02:40Z</time>
      </trkpt>
      <trkpt lat="45.0341" lon="7.05421">
        <ele>1158</ele>
        <time>2019-04-18T02:03:40Z</time>
      </trkpt>
      <trkpt lat="45.0341" lon="7.05427">
        <ele>1160</ele>
        <time>2019-04-18T02:04:40Z</time>
      </trkpt>
      <trkpt lat="45.03403" lon="7.05437">
        <ele>1160</ele>
        <time>2019-04-18T02:05:40Z</time>
      </trkpt>
      <trkpt lat="45.03403" lon="7.05443">
        <ele>1161</ele>
        <time>2019-04-18T02:06:40Z</time>
      </trkpt>
      <trkpt lat="45.03426" lon="7.05426">
        <ele>1162</ele>
        <time>2019-04-18T02:07:40Z</time>
      </trkpt>
      <trkpt lat="45.03438" lon="7.0541">
        <ele>1162</ele>
        <time>2019-04-18T02:08:40Z</time>
      </trkpt>
      <trkpt lat="45.03456" lon="7.05375">
        <ele>1161</ele>
        <time>2019-04-18T02:09:40Z</time>
      </trkpt>
      <trkpt lat="45.0347" lon="7.05355">
        <ele>1160</ele>
        <time>2019-04-18T02:10:40Z</time>
      </trkpt>
      <trkpt lat="45.03502" lon="7.05329">
        <ele>1161</ele>
        <time>2019-04-18T02:11:40Z</time>
      </trkpt>
      <trkpt lat="45.0351" lon="7.05321">
        <ele>1163</ele>
        <time>2019-04-18T02:12:40Z</time>
      </trkpt>
      <trkpt lat="45.03519" lon="7.05306">
        <ele>1165</ele>
        <time>2019-04-18T02:13:40Z</time>
      </trkpt>
      <trkpt lat="45.03526" lon="7.05283">
        <ele>1167</ele>
        <time>2019-04-18T02:14:40Z</time>
      </trkpt>
      <trkpt lat="45.03529" lon="7.05253">
        <ele>1167</ele>
        <time>2019-04-18T02:15:40Z</time>
      </trkpt>
      <trkpt lat="45.03525" lon="7.05211">
        <ele>1164</ele>
        <time>2019-04-18T02:16:40Z</time>
      </trkpt>
      <trkpt lat="45.03527" lon="7.05184">
        <ele>1163</ele>
        <time>2019-04-18T02:17:40Z</time>
      </trkpt>
      <trkpt lat="45.03538" lon="7.0516">
        <ele>1162</ele>
        <time>2019-04-18T02:18:40Z</time>
      </trkpt>
      <trkpt lat="45.03546" lon="7.05151">
        <ele>1162</ele>
        <time>2019-04-18T02:19:40Z</time>
      </trkpt>
      <trkpt lat="45.03558" lon="7.0514">
        <ele>1163</ele>
        <time>2019-04-18T02:20:40Z</time>
      </trkpt>
      <trkpt lat="45.03606" lon="7.05102">
        <ele>1166</ele>
        <time>2019-04-18T02:21:40Z</time>
      </trkpt>
      <trkpt lat="45.03619" lon="7.05087">
        <ele>1166</ele>
        <time>2019-04-18T02:22:40Z</time>
      </trkpt>
      <trkpt lat="45.03629" lon="7.05068">
        <ele>1166</ele>
        <time>2019-04-18T02:23:40Z</time>
      </trkpt>
      <trkpt lat="45.03634" lon="7.05046">
        <ele>1165</ele>
        <time>2019-04-18T02:24:40Z</time>
      </trkpt>
      <trkpt lat="45.03648" lon="7.04878">
        <ele>1164</ele>
        <time>2019-04-18T02:25:40Z</time>
      </trkpt>
      <trkpt lat="45.03651" lon="7.04863">
        <ele>1164</ele>
        <time>2019-04-18T02:26:40Z</time>
      </trkpt>
      <trkpt lat="45.0366" lon="7.04839">
        <ele>1166</ele>
        <time>2019-04-18T02:27:40Z</time>
      </trkpt>
      <trkpt lat="45.03675" lon="7.04814">
        <ele>1165</ele>
        <time>2019-04-18T02:28:40Z</time>
      </trkpt>
      <trkpt lat="45.03682" lon="7.04805">
        <ele>1165</ele>
        <time>2019-04-18T02:29:40Z</time>
      </trkpt>
      <trkpt lat="45.03711" lon="7.04785">
        <ele>1167</ele>
        <time>2019-04-18T02:30:40Z</time>
      </trkpt>
      <trkpt lat="45.03741" lon="7.04748">
        <ele>1169</ele>
        <time>2019-04-18T02:31:40Z</time>
      </trkpt>
      <trkpt lat="45.03813" lon="7.04682">
        <ele>1174</ele>
        <time>2019-04-18T02:32:40Z</time>
      </trkpt>
      <trkpt lat="45.03892" lon="7.04607">
        <ele>1183</ele>
        <time>2019-04-18T02:33:40Z</time>
      </trkpt>
      <trkpt lat="45.03972" lon="7.04521">
        <ele>1196</ele>
        <time>2019-04-18T02:34:40Z</time>
      </trkpt>
      <trkpt lat="45.04004" lon="7.0448">
        <ele>1203</ele>
        <time>2019-04-18T02:35:40Z</time>
      </trkpt>
      <trkpt lat="45.04017" lon="7.04454">
        <ele>1208</ele>
        <time>2019-04-18T02:36:40Z</time>
      </trkpt>
      <trkpt lat="45.04028" lon="7.04421">
        <ele>1210</ele>
        <time>2019-04-18T02:37:40Z</time>
      </trkpt>
      <trkpt lat="45.04031" lon="7.04391">
        <ele>1209</ele>
        <time>2019-04-18T02:38:40Z</time>
      </trkpt>
      <trkpt lat="45.04029" lon="7.04319">
        <ele>1203</ele>
        <time>2019-04-18T02:39:40Z</time>
      </trkpt>
      <trkpt lat="45.04032" lon="7.04298">
        <ele>1204</ele>
        <time>2019-04-18T02:40:40Z</time>
      </trkpt>
      <trkpt lat="45.04042" lon="7.0426">
        <ele>1207</ele>
        <time>2019-04-18T02:41:40Z</time>
      </trkpt>
      <trkpt lat="45.04052" lon="7.04213">
        <ele>1209</ele>
        <time>2019-04-18T02:42:40Z</time>
      </trkpt>
      <trkpt lat="45.04077" lon="7.04146">
        <ele>1218</ele>
        <time>2019-04-18T02:43:40Z</time>
      </trkpt>
      <trkpt lat="45.04093" lon="7.04113">
        <ele>1224</ele>
        <time>2019-04-18T02:44:40Z</time>
      </trkpt>
      <trkpt lat="45.04099" lon="7.04032">
        <ele>1230</ele>
        <time>2019-04-18T02:45:40Z</time>
      </trkpt>
      <trkpt lat="45.04107" lon="7.0401">
        <ele>1236</ele>
        <time>2019-04-18T02:46:40Z</time>
      </trkpt>
      <trkpt lat="45.04162" lon="7.03936">
        <ele>1261</ele>
        <time>2019-04-18T02:47:40Z</time>
      </trkpt>
      <trkpt lat="45.0425" lon="7.03889">
        <ele>1301</ele>
        <time>2019-04-18T02:48:40Z</time>
      </trkpt>
      <trkpt lat="45.04352" lon="7.03704">
        <ele>1354</ele>
        <time>2019-04-18T02:49:40Z</time>
      </trkpt>
      <trkpt lat="45.04369" lon="7.035">
        <ele>1321</ele>
        <time>2019-04-18T02:50:40Z</time>
      </trkpt>
      <trkpt lat="45.04368" lon="7.03275">
        <ele>1268</ele>
        <time>2019-04-18T02:51:40Z</time>
      </trkpt>
      <trkpt lat="45.04375" lon="7.03239">
        <ele>1265</ele>
        <time>2019-04-18T02:52:40Z</time>
      </trkpt>
      <trkpt lat="45.04394" lon="7.03185">
        <ele>1270</ele>
        <time>2019-04-18T02:53:40Z</time>
      </trkpt>
      <trkpt lat="45.04403" lon="7.03144">
        <ele>1275</ele>
        <time>2019-04-18T02:54:40Z</time>
      </trkpt>
      <trkpt lat="45.0441" lon="7.03099">
        <ele>1280</ele>
        <time>2019-04-18T02:55:40Z</time>
      </trkpt>
      <trkpt lat="45.0441" lon="7.03065">
        <ele>1282</ele>
        <time>2019-04-18T02:56:40Z</time>
      </trkpt>
      <trkpt lat="45.04405" lon="7.0303">
        <ele>1282</ele>
        <time>2019-04-18T02:57:40Z</time>
      </trkpt>
      <trkpt lat="45.04401" lon="7.03012">
        <ele>1281</ele>
        <time>2019-04-18T02:58:40Z</time>
      </trkpt>
      <trkpt lat="45.04401" lon="7.02994">
        <ele>1283</ele>
        <time>2019-04-18T02:59:40Z</time>
      </trkpt>
      <trkpt lat="45.04404" lon="7.02974">
        <ele>1285</ele>
        <time>2019-04-18T03:00:40Z</time>
      </trkpt>
      <trkpt lat="45.04415" lon="7.02934">
        <ele>1292</ele>
        <time>2019-04-18T03:01:40Z</time>
      </trkpt>
      <trkpt lat="45.04436" lon="7.02754">
        <ele>1300</ele>
        <time>2019-04-18T03:02:40Z</time>
      </trkpt>
      <trkpt lat="45.04437" lon="7.02729">
        <ele>1303</ele>
        <time>2019-04-18T03:03:40Z</time>
      </trkpt>
      <trkpt lat="45.04435" lon="7.02705">
        <ele>1306</ele>
        <time>2019-04-18T03:04:40Z</time>
      </trkpt>
      <trkpt lat="45.04431" lon="7.02689">
        <ele>1307</ele>
        <time>2019-04-18T03:05:40Z</time>
      </trkpt>
      <trkpt lat="45.04419" lon="7.02665">
        <ele>1307</ele>
        <time>2019-04-18T03:06:40Z</time>
      </trkpt>
      <trkpt lat="45.04414" lon="7.02651">
        <ele>1304</ele>
        <time>2019-04-18T03:07:40Z</time>
      </trkpt>
      <trkpt lat="45.04413" lon="7.02639">
        <ele>1302</ele>
        <time>2019-04-18T03:08:40Z</time>
      </trkpt>
      <trkpt lat="45.04415" lon="7.02627">
        <ele>1302</ele>
        <time>2019-04-18T03:09:40Z</time>
      </trkpt>
      <trkpt lat="45.04422" lon="7.02608">
        <ele>1304</ele>
        <time>2019-04-18T03:10:40Z</time>
      </trkpt>
      <trkpt lat="45.04446" lon="7.02558">
        <ele>1304</ele>
        <time>2019-04-18T03:11:40Z</time>
      </trkpt>
      <trkpt lat="45.04457" lon="7.02548">
        <ele>1306</ele>
        <time>2019-04-18T03:12:40Z</time>
      </trkpt>
      <trkpt lat="45.04482" lon="7.02534">
        <ele>1315</ele>
        <time>2019-04-18T03:13:40Z</time>
      </trkpt>
      <trkpt lat="45.0449" lon="7.02521">
        <ele>1317</ele>
        <time>2019-04-18T03:14:40Z</time>
      </trkpt>
      <trkpt lat="45.04494" lon="7.02501">
        <ele>1316</ele>
        <time>2019-04-18T03:15:40Z</time>
      </trkpt>
      <trkpt lat="45.04502" lon="7.0248">
        <ele>1316</ele>
        <time>2019-04-18T03:16:40Z</time>
      </trkpt>
      <trkpt lat="45.04512" lon="7.0246">
        <ele>1315</ele>
        <time>2019-04-18T03:17:40Z</time>
      </trkpt>
      <trkpt lat="45.0453" lon="7.02444">
        <ele>1319</ele>
        <time>2019-04-18T03:18:40Z</time>
      </trkpt>
      <trkpt lat="45.04556" lon="7.024">
        <ele>1323</ele>
        <time>2019-04-18T03:19:40Z</time>
      </trkpt>
      <trkpt lat="45.04561" lon="7.02384">
        <ele>1325</ele>
        <time>2019-04-18T03:20:40Z</time>
      </trkpt>
      <trkpt lat="45.04571" lon="7.02313">
        <ele>1327</ele>
        <time>2019-04-18T03:21:40Z</time>
      </trkpt>
      <trkpt lat="45.04579" lon="7.02281">
        <ele>1331</ele>
        <time>2019-04-18T03:22:40Z</time>
      </trkpt>
      <trkpt lat="45.04598" lon="7.02234">
        <ele>1339</ele>
        <time>2019-04-18T03:23:40Z</time>
      </trkpt>
      <trkpt lat="45.04605" lon="7.0219">
        <ele>1345</ele>
        <time>2019-04-18T03:24:40Z</time>
      </trkpt>
      <trkpt lat="45.04616" lon="7.02007">
        <ele>1365</ele>
        <time>2019-04-18T03:25:40Z</time>
      </trkpt>
      <trkpt lat="45.04613" lon="7.01973">
        <ele>1365</ele>
        <time>2019-04-18T03:26:40Z</time>
      </trkpt>
      <trkpt lat="45.04594" lon="7.01919">
        <ele>1359</ele>
        <time>2019-04-18T03:27:40Z</time>
      </trkpt>
      <trkpt lat="45.04579" lon="7.01891">
        <ele>1359</ele>
        <time>2019-04-18T03:28:40Z</time>
      </trkpt>
      <trkpt lat="45.04541" lon="7.01849">
        <ele>1351</ele>
        <time>2019-04-18T03:29:40Z</time>
      </trkpt>
      <trkpt lat="45.04532" lon="7.01832">
        <ele>1350</ele>
        <time>2019-04-18T03:30:40Z</time>
      </trkpt>
      <trkpt lat="45.0453" lon="7.01817">
        <ele>1349</ele>
        <time>2019-04-18T03:31:40Z</time>
      </trkpt>
      <trkpt lat="45.0453" lon="7.018">
        <ele>1350</ele>
        <time>2019-04-18T03:32:40Z</time>
      </trkpt>
      <trkpt lat="45.0454" lon="7.01776">
        <ele>1354</ele>
        <time>2019-04-18T03:33:40Z</time>
      </trkpt>
      <trkpt lat="45.04564" lon="7.01746">
        <ele>1365</ele>
        <time>2019-04-18T03:34:40Z</time>
      </trkpt>
      <trkpt lat="45.04574" lon="7.017">
        <ele>1368</ele>
        <time>2019-04-18T03:35:40Z</time>
      </trkpt>
      <trkpt lat="45.0458" lon="7.01683">
        <ele>1370</ele>
        <time>2019-04-18T03:36:40Z</time>
      </trkpt>
      <trkpt lat="45.04587" lon="7.01622">
        <ele>1373</ele>
        <time>2019-04-18T03:37:40Z</time>
      </trkpt>
      <trkpt lat="45.04588" lon="7.01593">
        <ele>1373</ele>
        <time>2019-04-18T03:38:40Z</time>
      </trkpt>
      <trkpt lat="45.04584" lon="7.01576">
        <ele>1371</ele>
        <time>2019-04-18T03:39:40Z</time>
      </trkpt>
      <trkpt lat="45.04564" lon="7.01532">
        <ele>1368</ele>
        <time>2019-04-18T03:40:40Z</time>
      </trkpt>
      <trkpt lat="45.04559" lon="7.01507">
        <ele>1368</ele>
        <time>2019-04-18T03:41:40Z</time>
      </trkpt>
      <trkpt lat="45.04559" lon="7.01485">
        <ele>1370</ele>
        <time>2019-04-18T03:42:40Z</time>
      </trkpt>
      <trkpt lat="45.04566" lon="7.01459">
        <ele>1373</ele>
        <time>2019-04-18T03:43:40Z</time>
      </trkpt>
      <trkpt lat="45.04575" lon="7.01435">
        <ele>1377</ele>
        <time>2019-04-18T03:44:40Z</time>
      </trkpt>
      <trkpt lat="45.04578" lon="7.01413">
        <ele>1378</ele>
        <time>2019-04-18T03:45:40Z</time>
      </trkpt>
      <trkpt lat="45.04578" lon="7.01388">
        <ele>1377</ele>
        <time>2019-04-18T03:46:40Z</time>
      </trkpt>
      <trkpt lat="45.04574" lon="7.01341">
        <ele>1375</ele>
        <time>2019-04-18T03:47:40Z</time>
      </trkpt>
      <trkpt lat="45.04575" lon="7.0131">
        <ele>1375</ele>
        <time>2019-04-18T03:48:40Z</time>
      </trkpt>
      <trkpt lat="45.04581" lon="7.01266">
        <ele>1375</ele>
        <time>2019-04-18T03:49:40Z</time>
      </trkpt>
      <trkpt lat="45.04582" lon="7.01197">
        <ele>1377</ele>
        <time>2019-04-18T03:50:40Z</time>
      </trkpt>
      <trkpt lat="45.04588" lon="7.01135">
        <ele>1386</ele>
        <time>2019-04-18T03:51:40Z</time>
      </trkpt>
      <trkpt lat="45.04587" lon="7.0111">
        <ele>1390</ele>
        <time>2019-04-18T03:52:40Z</time>
      </trkpt>
      <trkpt lat="45.04553" lon="7.00942">
        <ele>1398</ele>
        <time>2019-04-18T03:53:40Z</time>
      </trkpt>
      <trkpt lat="45.0455" lon="7.00901">
        <ele>1396</ele>
        <time>2019-04-18T03:54:40Z</time>
      </trkpt>
      <trkpt lat="45.04555" lon="7.00872">
        <ele>1395</ele>
        <time>2019-04-18T03:55:40Z</time>
      </trkpt>
      <trkpt lat="45.0457" lon="7.00844">
        <ele>1395</ele>
        <time>2019-04-18T03:56:40Z</time>
      </trkpt>
      <trkpt lat="45.04604" lon="7.00809">
        <ele>1398</ele>
        <time>2019-04-18T03:57:40Z</time>
      </trkpt>
      <trkpt lat="45.04693" lon="7.00738">
        <ele>1404</ele>
        <time>2019-04-18T03:58:40Z</time>
      </trkpt>
      <trkpt lat="45.04716" lon="7.00709">
        <ele>1405</ele>
        <time>2019-04-18T03:59:40Z</time>
      </trkpt>
      <trkpt lat="45.04735" lon="7.00678">
        <ele>1405</ele>
        <time>2019-04-18T04:00:40Z</time>
      </trkpt>
      <trkpt lat="45.04746" lon="7.0065">
        <ele>1405</ele>
        <time>2019-04-18T04:01:40Z</time>
      </trkpt>
      <trkpt lat="45.04753" lon="7.00624">
        <ele>1405</ele>
        <time>2019-04-18T04:02:40Z</time>
      </trkpt>
      <trkpt lat="45.04755" lon="7.00504">
        <ele>1402</ele>
        <time>2019-04-18T04:03:40Z</time>
      </trkpt>
      <trkpt lat="45.04754" lon="7.00431">
        <ele>1403</ele>
        <time>2019-04-18T04:04:40Z</time>
      </trkpt>
      <trkpt lat="45.04759" lon="7.00371">
        <ele>1406</ele>
        <time>2019-04-18T04:05:40Z</time>
      </trkpt>
      <trkpt lat="45.04769" lon="7.00355">
        <ele>1410</ele>
        <time>2019-04-18T04:06:40Z</time>
      </trkpt>
      <trkpt lat="45.04777" lon="7.00333">
        <ele>1414</ele>
        <time>2019-04-18T04:07:40Z</time>
      </trkpt>
      <trkpt lat="45.04779" lon="7.00274">
        <ele>1418</ele>
        <time>2019-04-18T04:08:40Z</time>
      </trkpt>
      <trkpt lat="45.04775" lon="7.00241">
        <ele>1418</ele>
        <time>2019-04-18T04:09:40Z</time>
      </trkpt>
      <trkpt lat="45.04762" lon="7.00165">
        <ele>1422</ele>
        <time>2019-04-18T04:10:40Z</time>
      </trkpt>
      <trkpt lat="45.04749" lon="7.00135">
        <ele>1418</ele>
        <time>2019-04-18T04:11:40Z</time>
      </trkpt>
      <trkpt lat="45.04686" lon="7.00101">
        <ele>1411</ele>
        <time>2019-04-18T04:12:40Z</time>
      </trkpt>
      <trkpt lat="45.04663" lon="7.00071">
        <ele>1409</ele>
        <time>2019-04-18T04:13:40Z</time>
      </trkpt>
      <trkpt lat="45.04636" lon="7.00018">
        <ele>1411</ele>
        <time>2019-04-18T04:14:40Z</time>
      </trkpt>
      <trkpt lat="45.04617" lon="6.99962">
        <ele>1413</ele>
        <time>2019-04-18T04:15:40Z</time>
      </trkpt>
      <trkpt lat="45.04604" lon="6.99915">
        <ele>1415</ele>
        <time>2019-04-18T04:16:40Z</time>
      </trkpt>
      <trkpt lat="45.046" lon="6.99861">
        <ele>1416</ele>
        <time>2019-04-18T04:17:40Z</time>
      </trkpt>
      <trkpt lat="45.04619" lon="6.99605">
        <ele>1420</ele>
        <time>2019-04-18T04:18:40Z</time>
      </trkpt>
      <trkpt lat="45.04619" lon="6.99576">
        <ele>1421</ele>
        <time>2019-04-18T04:19:40Z</time>
      </trkpt>
      <trkpt lat="45.04614" lon="6.99535">
        <ele>1423</ele>
        <time>2019-04-18T04:20:40Z</time>
      </trkpt>
      <trkpt lat="45.04603" lon="6.99492">
        <ele>1423</ele>
        <time>2019-04-18T04:21:40Z</time>
      </trkpt>
      <trkpt lat="45.04524" lon="6.99258">
        <ele>1426</ele>
        <time>2019-04-18T04:22:40Z</time>
      </trkpt>
      <trkpt lat="45.04482" lon="6.99102">
        <ele>1427</ele>
        <time>2019-04-18T04:23:40Z</time>
      </trkpt>
      <trkpt lat="45.04408" lon="6.98927">
        <ele>1429</ele>
        <time>2019-04-18T04:24:40Z</time>
      </trkpt>
      <trkpt lat="45.04393" lon="6.98895">
        <ele>1431</ele>
        <time>2019-04-18T04:25:40Z</time>
      </trkpt>
      <trkpt lat="45.04345" lon="6.98831">
        <ele>1423</ele>
        <time>2019-04-18T04:26:40Z</time>
      </trkpt>
      <trkpt lat="45.04332" lon="6.98797">
        <ele>1421</ele>
        <time>2019-04-18T04:27:40Z</time>
      </trkpt>
      <trkpt lat="45.04329" lon="6.98762">
        <ele>1424</ele>
        <time>2019-04-18T04:28:40Z</time>
      </trkpt>
      <trkpt lat="45.04343" lon="6.98655">
        <ele>1431</ele>
        <time>2019-04-18T04:29:40Z</time>
      </trkpt>
      <trkpt lat="45.04341" lon="6.9862">
        <ele>1435</ele>
        <time>2019-04-18T04:30:40Z</time>
      </trkpt>
      <trkpt lat="45.04275" lon="6.98344">
        <ele>1436</ele>
        <time>2019-04-18T04:31:40Z</time>
      </trkpt>
      <trkpt lat="45.04263" lon="6.98313">
        <ele>1435</ele>
        <time>2019-04-18T04:32:40Z</time>
      </trkpt>
      <trkpt lat="45.04244" lon="6.98283">
        <ele>1432</ele>
        <time>2019-04-18T04:33:40Z</time>
      </trkpt>
      <trkpt lat="45.0423" lon="6.98251">
        <ele>1433</ele>
        <time>2019-04-18T04:34:40Z</time>
      </trkpt>
      <trkpt lat="45.04223" lon="6.9822">
        <ele>1434</ele>
        <time>2019-04-18T04:35:40Z</time>
      </trkpt>
      <trkpt lat="45.04214" lon="6.98157">
        <ele>1438</ele>
        <time>2019-04-18T04:36:40Z</time>
      </trkpt>
      <trkpt lat="45.04178" lon="6.98023">
        <ele>1442</ele>
        <time>2019-04-18T04:37:40Z</time>
      </trkpt>
      <trkpt lat="45.04156" lon="6.97953">
        <ele>1445</ele>
        <time>2019-04-18T04:38:40Z</time>
      </trkpt>
      <trkpt lat="45.04143" lon="6.97922">
        <ele>1446</ele>
        <time>2019-04-18T04:39:40Z</time>
      </trkpt>
      <trkpt lat="45.04134" lon="6.97903">
        <ele>1446</ele>
        <time>2019-04-18T04:40:40Z</time>
      </trkpt>
      <trkpt lat="45.04117" lon="6.97882">
        <ele>1444</ele>
        <time>2019-04-18T04:41:40Z</time>
      </trkpt>
      <trkpt lat="45.04098" lon="6.97866">
        <ele>1439</ele>
        <time>2019-04-18T04:42:40Z</time>
      </trkpt>
      <trkpt lat="45.04076" lon="6.97851">
        <ele>1434</ele>
        <time>2019-04-18T04:43:40Z</time>
      </trkpt>
      <trkpt lat="45.04059" lon="6.97836">
        <ele>1434</ele>
        <time>2019-04-18T04:44:40Z</time>
      </trkpt>
      <trkpt lat="45.04046" lon="6.97811">
        <ele>1435</ele>
        <time>2019-04-18T04:45:40Z</time>
      </trkpt>
      <trkpt lat="45.04037" lon="6.97774">
        <ele>1439</ele>
        <time>2019-04-18T04:46:40Z</time>
      </trkpt>
      <trkpt lat="45.04034" lon="6.97733">
        <ele>1442</ele>
        <time>2019-04-18T04:47:40Z</time>
      </trkpt>
      <trkpt lat="45.04032" lon="6.97659">
        <ele>1446</ele>
        <time>2019-04-18T04:48:40Z</time>
      </trkpt>
      <trkpt lat="45.04027" lon="6.97618">
        <ele>1449</ele>
        <time>2019-04-18T04:49:40Z</time>
      </trkpt>
      <trkpt lat="45.04013" lon="6.9756">
        <ele>1449</ele>
        <time>2019-04-18T04:50:40Z</time>
      </trkpt>
      <trkpt lat="45.03989" lon="6.97495">
        <ele>1448</ele>
        <time>2019-04-18T04:51:40Z</time>
      </trkpt>
      <trkpt lat="45.03957" lon="6.97425">
        <ele>1454</ele>
        <time>2019-04-18T04:52:40Z</time>
      </trkpt>
      <trkpt lat="45.03914" lon="6.97349">
        <ele>1453</ele>
        <time>2019-04-18T04:53:40Z</time>
      </trkpt>
      <trkpt lat="45.03871" lon="6.97294">
        <ele>1454</ele>
        <time>2019-04-18T04:54:40Z</time>
      </trkpt>
      <trkpt lat="45.03822" lon="6.97225">
        <ele>1454</ele>
        <time>2019-04-18T04:55:40Z</time>
      </trkpt>
      <trkpt lat="45.03767" lon="6.97133">
        <ele>1455</ele>
        <time>2019-04-18T04:56:40Z</time>
      </trkpt>
      <trkpt lat="45.03719" lon="6.97059">
        <ele>1454</ele>
        <time>2019-04-18T04:57:40Z</time>
      </trkpt>
      <trkpt lat="45.03714" lon="6.97045">
        <ele>1454</ele>
        <time>2019-04-18T04:58:40Z</time>
      </trkpt>
      <trkpt lat="45.03709" lon="6.97021">
        <ele>1454</ele>
        <time>2019-04-18T04:59:40Z</time>
      </trkpt>
      <trkpt lat="45.03706" lon="6.96973">
        <ele>1456</ele>
        <time>2019-04-18T05:00:40Z</time>
      </trkpt>
      <trkpt lat="45.03701" lon="6.96937">
        <ele>1458</ele>
        <time>2019-04-18T05:01:40Z</time>
      </trkpt>
      <trkpt lat="45.03681" lon="6.96882">
        <ele>1458</ele>
        <time>2019-04-18T05:02:40Z</time>
      </trkpt>
      <trkpt lat="45.03623" lon="6.96729">
        <ele>1469</ele>
        <time>2019-04-18T05:03:40Z</time>
      </trkpt>
      <trkpt lat="45.03579" lon="6.9664">
        <ele>1470</ele>
        <time>2019-04-18T05:04:40Z</time>
      </trkpt>
      <trkpt lat="45.03557" lon="6.96607">
        <ele>1473</ele>
        <time>2019-04-18T05:05:40Z</time>
      </trkpt>
      <trkpt lat="45.03533" lon="6.96584">
        <ele>1471</ele>
        <time>2019-04-18T05:06:40Z</time>
      </trkpt>
      <trkpt lat="45.03504" lon="6.96564">
        <ele>1467</ele>
        <time>2019-04-18T05:07:40Z</time>
      </trkpt>
      <trkpt lat="45.03477" lon="6.96551">
        <ele>1467</ele>
        <time>2019-04-18T05:08:40Z</time>
      </trkpt>
      <trkpt lat="45.03416" lon="6.96549">
        <ele>1463</ele>
        <time>2019-04-18T05:09:40Z</time>
      </trkpt>
      <trkpt lat="45.03395" lon="6.96543">
        <ele>1464</ele>
        <time>2019-04-18T05:10:40Z</time>
      </trkpt>
      <trkpt lat="45.03353" lon="6.96512">
        <ele>1468</ele>
        <time>2019-04-18T05:11:40Z</time>
      </trkpt>
      <trkpt lat="45.03276" lon="6.96447">
        <ele>1472</ele>
        <time>2019-04-18T05:12:40Z</time>
      </trkpt>
      <trkpt lat="45.0324" lon="6.96404">
        <ele>1472</ele>
        <time>2019-04-18T05:13:40Z</time>
      </trkpt>
      <trkpt lat="45.03214" lon="6.9637">
        <ele>1470</ele>
        <time>2019-04-18T05:14:40Z</time>
      </trkpt>
      <trkpt lat="45.03201" lon="6.96341">
        <ele>1470</ele>
        <time>2019-04-18T05:15:40Z</time>
      </trkpt>
      <trkpt lat="45.03198" lon="6.96304">
        <ele>1470</ele>
        <time>2019-04-18T05:16:40Z</time>
      </trkpt>
      <trkpt lat="45.03204" lon="6.96234">
        <ele>1473</ele>
        <time>2019-04-18T05:17:40Z</time>
      </trkpt>
      <trkpt lat="45.03203" lon="6.96199">
        <ele>1475</ele>
        <time>2019-04-18T05:18:40Z</time>
      </trkpt>
      <trkpt lat="45.03195" lon="6.9616">
        <ele>1477</ele>
        <time>2019-04-18T05:19:40Z</time>
      </trkpt>
      <trkpt lat="45.0319" lon="6.96145">
        <ele>1478</ele>
        <time>2019-04-18T05:20:40Z</time>
      </trkpt>
      <trkpt lat="45.03163" lon="6.96104">
        <ele>1477</ele>
        <time>2019-04-18T05:21:40Z</time>
      </trkpt>
      <trkpt lat="45.03066" lon="6.96016">
        <ele>1472</ele>
        <time>2019-04-18T05:22:40Z</time>
      </trkpt>
      <trkpt lat="45.03043" lon="6.95986">
        <ele>1475</ele>
        <time>2019-04-18T05:23:40Z</time>
      </trkpt>
      <trkpt lat="45.03015" lon="6.95931">
        <ele>1479</ele>
        <time>2019-04-18T05:24:40Z</time>
      </trkpt>
      <trkpt lat="45.02937" lon="6.95802">
        <ele>1491</ele>
        <time>2019-04-18T05:25:40Z</time>
      </trkpt>
      <trkpt lat="45.02913" lon="6.95765">
        <ele>1492</ele>
        <time>2019-04-18T05:26:40Z</time>
      </trkpt>
      <trkpt lat="45.02871" lon="6.95736">
        <ele>1491</ele>
        <time>2019-04-18T05:27:40Z</time>
      </trkpt>
      <trkpt lat="45.02834" lon="6.95695">
        <ele>1488</ele>
        <time>2019-04-18T05:28:40Z</time>
      </trkpt>
      <trkpt lat="45.02795" lon="6.95637">
        <ele>1495</ele>
        <time>2019-04-18T05:29:40Z</time>
      </trkpt>
      <trkpt lat="45.0277" lon="6.95609">
        <ele>1493</ele>
        <time>2019-04-18T05:30:40Z</time>
      </trkpt>
      <trkpt lat="45.02731" lon="6.95575">
        <ele>1492</ele>
        <time>2019-04-18T05:31:40Z</time>
      </trkpt>
      <trkpt lat="45.02646" lon="6.95507">
        <ele>1499</ele>
        <time>2019-04-18T05:32:40Z</time>
      </trkpt>
      <trkpt lat="45.02621" lon="6.95479">
        <ele>1506</ele>
        <time>2019-04-18T05:33:40Z</time>
      </trkpt>
      <trkpt lat="45.02609" lon="6.95453">
        <ele>1507</ele>
        <time>2019-04-18T05:34:40Z</time>
      </trkpt>
      <trkpt lat="45.02585" lon="6.95389">
        <ele>1502</ele>
        <time>2019-04-18T05:35:40Z</time>
      </trkpt>
      <trkpt lat="45.0257" lon="6.95356">
        <ele>1506</ele>
        <time>2019-04-18T05:36:40Z</time>
      </trkpt>
      <trkpt lat="45.02541" lon="6.95313">
        <ele>1509</ele>
        <time>2019-04-18T05:37:40Z</time>
      </trkpt>
      <trkpt lat="45.02459" lon="6.95207">
        <ele>1511</ele>
        <time>2019-04-18T05:38:40Z</time>
      </trkpt>
      <trkpt lat="45.02389" lon="6.95128">
        <ele>1508</ele>
        <time>2019-04-18T05:39:40Z</time>
      </trkpt>
      <trkpt lat="45.02338" lon="6.9505">
        <ele>1508</ele>
        <time>2019-04-18T05:40:40Z</time>
      </trkpt>
      <trkpt lat="45.02306" lon="6.95009">
        <ele>1509</ele>
        <time>2019-04-18T05:41:40Z</time>
      </trkpt>
      <trkpt lat="45.02277" lon="6.94986">
        <ele>1506</ele>
        <time>2019-04-18T05:42:40Z</time>
      </trkpt>
      <trkpt lat="45.02196" lon="6.94952">
        <ele>1504</ele>
        <time>2019-04-18T05:43:40Z</time>
      </trkpt>
      <trkpt lat="45.02137" lon="6.94923">
        <ele>1502</ele>
        <time>2019-04-18T05:44:40Z</time>
      </trkpt>
      <trkpt lat="45.02103" lon="6.94896">
        <ele>1503</ele>
        <time>2019-04-18T05:45:40Z</time>
      </trkpt>
      <trkpt lat="45.02038" lon="6.9483">
        <ele>1502</ele>
        <time>2019-04-18T05:46:40Z</time>
      </trkpt>
      <trkpt lat="45.01981" lon="6.94762">
        <ele>1504</ele>
        <time>2019-04-18T05:47:40Z</time>
      </trkpt>
      <trkpt lat="45.01951" lon="6.9473">
        <ele>1504</ele>
        <time>2019-04-18T05:48:40Z</time>
      </trkpt>
      <trkpt lat="45.01955" lon="6.94717">
        <ele>1504</ele>
        <time>2019-04-18T05:49:40Z</time>
      </trkpt>
      <trkpt lat="45.01952" lon="6.94704">
        <ele>1504</ele>
        <time>2019-04-18T05:50:40Z</time>
      </trkpt>
      <trkpt lat="45.01948" lon="6.94699">
        <ele>1504</ele>
        <time>2019-04-18T05:51:40Z</time>
      </trkpt>
      <trkpt lat="45.01939" lon="6.94695">
        <ele>1504</ele>
        <time>2019-04-18T05:52:40Z</time>
      </trkpt>
      <trkpt lat="45.0193" lon="6.94699">
        <ele>1503</ele>
        <time>2019-04-18T05:53:40Z</time>
      </trkpt>
      <trkpt lat="45.01911" lon="6.94665">
        <ele>1503</ele>
        <time>2019-04-18T05:54:40Z</time>
      </trkpt>
      <trkpt lat="45.01864" lon="6.94605">
        <ele>1507</ele>
        <time>2019-04-18T05:55:40Z</time>
      </trkpt>
      <trkpt lat="45.01741" lon="6.94434">
        <ele>1511</ele>
        <time>2019-04-18T05:56:40Z</time>
      </trkpt>
      <trkpt lat="45.01699" lon="6.94383">
        <ele>1511</ele>
        <time>2019-04-18T05:57:40Z</time>
      </trkpt>
      <trkpt lat="45.01665" lon="6.94339">
        <ele>1511</ele>
        <time>2019-04-18T05:58:40Z</time>
      </trkpt>
      <trkpt lat="45.01634" lon="6.94294">
        <ele>1512</ele>
        <time>2019-04-18T05:59:40Z</time>
      </trkpt>
      <trkpt lat="45.01583" lon="6.94232">
        <ele>1514</ele>
        <time>2019-04-18T06:00:40Z</time>
      </trkpt>
      <trkpt lat="45.01552" lon="6.94209">
        <ele>1515</ele>
        <time>2019-04-18T06:01:40Z</time>
      </trkpt>
      <trkpt lat="45.01537" lon="6.942">
        <ele>1516</ele>
        <time>2019-04-18T06:02:40Z</time>
      </trkpt>
      <trkpt lat="45.01358" lon="6.94115">
        <ele>1525</ele>
        <time>2019-04-18T06:03:40Z</time>
      </trkpt>
      <trkpt lat="45.01329" lon="6.94093">
        <ele>1526</ele>
        <time>2019-04-18T06:04:40Z</time>
      </trkpt>
      <trkpt lat="45.0131" lon="6.94074">
        <ele>1527</ele>
        <time>2019-04-18T06:05:40Z</time>
      </trkpt>
      <trkpt lat="45.0125" lon="6.93997">
        <ele>1533</ele>
        <time>2019-04-18T06:06:40Z</time>
      </trkpt>
      <trkpt lat="45.01143" lon="6.93902">
        <ele>1533</ele>
        <time>2019-04-18T06:07:40Z</time>
      </trkpt>
      <trkpt lat="45.01117" lon="6.93871">
        <ele>1533</ele>
        <time>2019-04-18T06:08:40Z</time>
      </trkpt>
      <trkpt lat="45.01098" lon="6.93826">
        <ele>1533</ele>
        <time>2019-04-18T06:09:40Z</time>
      </trkpt>
      <trkpt lat="45.0109" lon="6.93783">
        <ele>1533</ele>
        <time>2019-04-18T06:10:40Z</time>
      </trkpt>
      <trkpt lat="45.01091" lon="6.93736">
        <ele>1534</ele>
        <time>2019-04-18T06:11:40Z</time>
      </trkpt>
      <trkpt lat="45.01084" lon="6.93677">
        <ele>1533</ele>
        <time>2019-04-18T06:12:40Z</time>
      </trkpt>
      <trkpt lat="45.01068" lon="6.93614">
        <ele>1534</ele>
        <time>2019-04-18T06:13:40Z</time>
      </trkpt>
      <trkpt lat="45.01053" lon="6.93571">
        <ele>1535</ele>
        <time>2019-04-18T06:14:40Z</time>
      </trkpt>
      <trkpt lat="45.01032" lon="6.9353">
        <ele>1538</ele>
        <time>2019-04-18T06:15:40Z</time>
      </trkpt>
      <trkpt lat="45.01008" lon="6.93501">
        <ele>1539</ele>
        <time>2019-04-18T06:16:40Z</time>
      </trkpt>
      <trkpt lat="45.00804" lon="6.93373">
        <ele>1542</ele>
        <time>2019-04-18T06:17:40Z</time>
      </trkpt>
      <trkpt lat="45.00782" lon="6.93369">
        <ele>1542</ele>
        <time>2019-04-18T06:18:40Z</time>
      </trkpt>
      <trkpt lat="45.00759" lon="6.93372">
        <ele>1542</ele>
        <time>2019-04-18T06:19:40Z</time>
      </trkpt>
      <trkpt lat="45.00736" lon="6.93366">
        <ele>1542</ele>
        <time>2019-04-18T06:20:40Z</time>
      </trkpt>
      <trkpt lat="45.00718" lon="6.93345">
        <ele>1543</ele>
        <time>2019-04-18T06:21:40Z</time>
      </trkpt>
      <trkpt lat="45.007" lon="6.93291">
        <ele>1547</ele>
        <time>2019-04-18T06:22:40Z</time>
      </trkpt>
      <trkpt lat="45.00687" lon="6.93269">
        <ele>1548</ele>
        <time>2019-04-18T06:23:40Z</time>
      </trkpt>
      <trkpt lat="45.00596" lon="6.93193">
        <ele>1557</ele>
        <time>2019-04-18T06:24:40Z</time>
      </trkpt>
      <trkpt lat="45.00583" lon="6.93187">
        <ele>1557</ele>
        <time>2019-04-18T06:25:40Z</time>
      </trkpt>
      <trkpt lat="45.00542" lon="6.93179">
        <ele>1556</ele>
        <time>2019-04-18T06:26:40Z</time>
      </trkpt>
      <trkpt lat="45.00518" lon="6.93168">
        <ele>1555</ele>
        <time>2019-04-18T06:27:40Z</time>
      </trkpt>
      <trkpt lat="45.0047" lon="6.93138">
        <ele>1560</ele>
        <time>2019-04-18T06:28:40Z</time>
      </trkpt>
      <trkpt lat="45.00418" lon="6.931">
        <ele>1562</ele>
        <time>2019-04-18T06:29:40Z</time>
      </trkpt>
      <trkpt lat="45.00395" lon="6.93076">
        <ele>1564</ele>
        <time>2019-04-18T06:30:40Z</time>
      </trkpt>
      <trkpt lat="45.00367" lon="6.93032">
        <ele>1568</ele>
        <time>2019-04-18T06:31:40Z</time>
      </trkpt>
      <trkpt lat="45.00347" lon="6.92951">
        <ele>1576</ele>
        <time>2019-04-18T06:32:40Z</time>
      </trkpt>
      <trkpt lat="45.00334" lon="6.92916">
        <ele>1577</ele>
        <time>2019-04-18T06:33:40Z</time>
      </trkpt>
      <trkpt lat="45.0031" lon="6.92881">
        <ele>1579</ele>
        <time>2019-04-18T06:34:40Z</time>
      </trkpt>
      <trkpt lat="45.00283" lon="6.92853">
        <ele>1580</ele>
        <time>2019-04-18T06:35:40Z</time>
      </trkpt>
      <trkpt lat="45.00105" lon="6.92716">
        <ele>1584</ele>
        <time>2019-04-18T06:36:40Z</time>
      </trkpt>
      <trkpt lat="45.00063" lon="6.92676">
        <ele>1588</ele>
        <time>2019-04-18T06:37:40Z</time>
      </trkpt>
      <trkpt lat="44.99966" lon="6.92563">
        <ele>1592</ele>
        <time>2019-04-18T06:38:40Z</time>
      </trkpt>
      <trkpt lat="44.99945" lon="6.92534">
        <ele>1593</ele>
        <time>2019-04-18T06:39:40Z</time>
      </trkpt>
      <trkpt lat="44.99928" lon="6.92503">
        <ele>1597</ele>
        <time>2019-04-18T06:40:40Z</time>
      </trkpt>
      <trkpt lat="44.99905" lon="6.92476">
        <ele>1597</ele>
        <time>2019-04-18T06:41:40Z</time>
      </trkpt>
      <trkpt lat="44.99886" lon="6.92451">
        <ele>1596</ele>
        <time>2019-04-18T06:42:40Z</time>
      </trkpt>
      <trkpt lat="44.99821" lon="6.92316">
        <ele>1600</ele>
        <time>2019-04-18T06:43:40Z</time>
      </trkpt>
      <trkpt lat="44.99813" lon="6.9228">
        <ele>1604</ele>
        <time>2019-04-18T06:44:40Z</time>
      </trkpt>
      <trkpt lat="44.9981" lon="6.92239">
        <ele>1610</ele>
        <time>2019-04-18T06:45:40Z</time>
      </trkpt>
      <trkpt lat="44.99799" lon="6.9221">
        <ele>1613</ele>
        <time>2019-04-18T06:46:40Z</time>
      </trkpt>
      <trkpt lat="44.99775" lon="6.92159">
        <ele>1613</ele>
        <time>2019-04-18T06:47:40Z</time>
      </trkpt>
      <trkpt lat="44.99761" lon="6.92134">
        <ele>1613</ele>
        <time>2019-04-18T06:48:40Z</time>
      </trkpt>
      <trkpt lat="44.99721" lon="6.9208">
        <ele>1612</ele>
        <time>2019-04-18T06:49:40Z</time>
      </trkpt>
      <trkpt lat="44.99706" lon="6.92043">
        <ele>1613</ele>
        <time>2019-04-18T06:50:40Z</time>
      </trkpt>
      <trkpt lat="44.99698" lon="6.92001">
        <ele>1617</ele>
        <time>2019-04-18T06:51:40Z</time>
      </trkpt>
      <trkpt lat="44.99693" lon="6.91948">
        <ele>1620</ele>
        <time>2019-04-18T06:52:40Z</time>
      </trkpt>
      <trkpt lat="44.99686" lon="6.91924">
        <ele>1620</ele>
        <time>2019-04-18T06:53:40Z</time>
      </trkpt>
      <trkpt lat="44.99691" lon="6.91918">
        <ele>1622</ele>
        <time>2019-04-18T06:54:40Z</time>
      </trkpt>
      <trkpt lat="44.99693" lon="6.91914">
        <ele>1623</ele>
        <time>2019-04-18T06:55:40Z</time>
      </trkpt>
      <trkpt lat="44.99693" lon="6.91909">
        <ele>1623</ele>
        <time>2019-04-18T06:56:40Z</time>
      </trkpt>
      <trkpt lat="44.99691" lon="6.919">
        <ele>1624</ele>
        <time>2019-04-18T06:57:40Z</time>
      </trkpt>
      <trkpt lat="44.99685" lon="6.91895">
        <ele>1622</ele>
        <time>2019-04-18T06:58:40Z</time>
      </trkpt>
      <trkpt lat="44.99676" lon="6.91898">
        <ele>1619</ele>
        <time>2019-04-18T06:59:40Z</time>
      </trkpt>
      <trkpt lat="44.99668" lon="6.91881">
        <ele>1619</ele>
        <time>2019-04-18T07:00:40Z</time>
      </trkpt>
      <trkpt lat="44.99631" lon="6.91826">
        <ele>1620</ele>
        <time>2019-04-18T07:01:40Z</time>
      </trkpt>
      <trkpt lat="44.99587" lon="6.91765">
        <ele>1622</ele>
        <time>2019-04-18T07:02:40Z</time>
      </trkpt>
      <trkpt lat="44.99521" lon="6.91692">
        <ele>1630</ele>
        <time>2019-04-18T07:03:40Z</time>
      </trkpt>
      <trkpt lat="44.99503" lon="6.91677">
        <ele>1630</ele>
        <time>2019-04-18T07:04:40Z</time>
      </trkpt>
      <trkpt lat="44.99487" lon="6.91672">
        <ele>1632</ele>
        <time>2019-04-18T07:05:40Z</time>
      </trkpt>
      <trkpt lat="44.99471" lon="6.91675">
        <ele>1634</ele>
        <time>2019-04-18T07:06:40Z</time>
      </trkpt>
      <trkpt lat="44.99425" lon="6.9171">
        <ele>1633</ele>
        <time>2019-04-18T07:07:40Z</time>
      </trkpt>
      <trkpt lat="44.99398" lon="6.9172">
        <ele>1631</ele>
        <time>2019-04-18T07:08:40Z</time>
      </trkpt>
      <trkpt lat="44.99368" lon="6.91725">
        <ele>1630</ele>
        <time>2019-04-18T07:09:40Z</time>
      </trkpt>
      <trkpt lat="44.99339" lon="6.91719">
        <ele>1632</ele>
        <time>2019-04-18T07:10:40Z</time>
      </trkpt>
      <trkpt lat="44.99132" lon="6.91617">
        <ele>1653</ele>
        <time>2019-04-18T07:11:40Z</time>
      </trkpt>
      <trkpt lat="44.99091" lon="6.91612">
        <ele>1653</ele>
        <time>2019-04-18T07:12:40Z</time>
      </trkpt>
      <trkpt lat="44.99055" lon="6.91594">
        <ele>1659</ele>
        <time>2019-04-18T07:13:40Z</time>
      </trkpt>
      <trkpt lat="44.99025" lon="6.9157">
        <ele>1665</ele>
        <time>2019-04-18T07:14:40Z</time>
      </trkpt>
      <trkpt lat="44.99011" lon="6.91568">
        <ele>1665</ele>
        <time>2019-04-18T07:15:40Z</time>
      </trkpt>
      <trkpt lat="44.98981" lon="6.91576">
        <ele>1662</ele>
        <time>2019-04-18T07:16:40Z</time>
      </trkpt>
      <trkpt lat="44.98965" lon="6.91573">
        <ele>1664</ele>
        <time>2019-04-18T07:17:40Z</time>
      </trkpt>
      <trkpt lat="44.98948" lon="6.91561">
        <ele>1669</ele>
        <time>2019-04-18T07:18:40Z</time>
      </trkpt>
      <trkpt lat="44.98939" lon="6.91558">
        <ele>1671</ele>
        <time>2019-04-18T07:19:40Z</time>
      </trkpt>
      <trkpt lat="44.98888" lon="6.91584">
        <ele>1666</ele>
        <time>2019-04-18T07:20:40Z</time>
      </trkpt>
      <trkpt lat="44.98873" lon="6.91586">
        <ele>1666</ele>
        <time>2019-04-18T07:21:40Z</time>
      </trkpt>
      <trkpt lat="44.98813" lon="6.91578">
        <ele>1668</ele>
        <time>2019-04-18T07:22:40Z</time>
      </trkpt>
      <trkpt lat="44.98778" lon="6.91578">
        <ele>1665</ele>
        <time>2019-04-18T07:23:40Z</time>
      </trkpt>
      <trkpt lat="44.98767" lon="6.91572">
        <ele>1666</ele>
        <time>2019-04-18T07:24:40Z</time>
      </trkpt>
      <trkpt lat="44.98764" lon="6.9156">
        <ele>1669</ele>
        <time>2019-04-18T07:25:40Z</time>
      </trkpt>
      <trkpt lat="44.98769" lon="6.91552">
        <ele>1672</ele>
        <time>2019-04-18T07:26:40Z</time>
      </trkpt>
      <trkpt lat="44.98778" lon="6.9155">
        <ele>1673</ele>
        <time>2019-04-18T07:27:40Z</time>
      </trkpt>
      <trkpt lat="44.98812" lon="6.91554">
        <ele>1675</ele>
        <time>2019-04-18T07:28:40Z</time>
      </trkpt>
      <trkpt lat="44.98851" lon="6.91552">
        <ele>1676</ele>
        <time>2019-04-18T07:29:40Z</time>
      </trkpt>
      <trkpt lat="44.98873" lon="6.91547">
        <ele>1677</ele>
        <time>2019-04-18T07:30:40Z</time>
      </trkpt>
      <trkpt lat="44.98887" lon="6.91541">
        <ele>1678</ele>
        <time>2019-04-18T07:31:40Z</time>
      </trkpt>
      <trkpt lat="44.98901" lon="6.91532">
        <ele>1680</ele>
        <time>2019-04-18T07:32:40Z</time>
      </trkpt>
      <trkpt lat="44.98925" lon="6.91504">
        <ele>1687</ele>
        <time>2019-04-18T07:33:40Z</time>
      </trkpt>
      <trkpt lat="44.98934" lon="6.91498">
        <ele>1689</ele>
        <time>2019-04-18T07:34:40Z</time>
      </trkpt>
      <trkpt lat="44.98962" lon="6.91496">
        <ele>1690</ele>
        <time>2019-04-18T07:35:40Z</time>
      </trkpt>
      <trkpt lat="44.99028" lon="6.91499">
        <ele>1692</ele>
        <time>2019-04-18T07:36:40Z</time>
      </trkpt>
      <trkpt lat="44.99095" lon="6.91508">
        <ele>1693</ele>
        <time>2019-04-18T07:37:40Z</time>
      </trkpt>
      <trkpt lat="44.99116" lon="6.91506">
        <ele>1694</ele>
        <time>2019-04-18T07:38:40Z</time>
      </trkpt>
      <trkpt lat="44.99137" lon="6.915">
        <ele>1698</ele>
        <time>2019-04-18T07:39:40Z</time>
      </trkpt>
      <trkpt lat="44.99177" lon="6.9148">
        <ele>1705</ele>
        <time>2019-04-18T07:40:40Z</time>
      </trkpt>
      <trkpt lat="44.99199" lon="6.91476">
        <ele>1707</ele>
        <time>2019-04-18T07:41:40Z</time>
      </trkpt>
      <trkpt lat="44.99336" lon="6.9147">
        <ele>1715</ele>
        <time>2019-04-18T07:42:40Z</time>
      </trkpt>
      <trkpt lat="44.9934" lon="6.91467">
        <ele>1715</ele>
        <time>2019-04-18T07:43:40Z</time>
      </trkpt>
      <trkpt lat="44.99343" lon="6.91461">
        <ele>1717</ele>
        <time>2019-04-18T07:44:40Z</time>
      </trkpt>
      <trkpt lat="44.99342" lon="6.91453">
        <ele>1720</ele>
        <time>2019-04-18T07:45:40Z</time>
      </trkpt>
      <trkpt lat="44.99337" lon="6.91449">
        <ele>1722</ele>
        <time>2019-04-18T07:46:40Z</time>
      </trkpt>
      <trkpt lat="44.99319" lon="6.91447">
        <ele>1722</ele>
        <time>2019-04-18T07:47:40Z</time>
      </trkpt>
      <trkpt lat="44.99258" lon="6.91448">
        <ele>1718</ele>
        <time>2019-04-18T07:48:40Z</time>
      </trkpt>
      <trkpt lat="44.99237" lon="6.91447">
        <ele>1717</ele>
        <time>2019-04-18T07:49:40Z</time>
      </trkpt>
      <trkpt lat="44.99162" lon="6.91421">
        <ele>1724</ele>
        <time>2019-04-18T07:50:40Z</time>
      </trkpt>
      <trkpt lat="44.99055" lon="6.91393">
        <ele>1733</ele>
        <time>2019-04-18T07:51:40Z</time>
      </trkpt>
      <trkpt lat="44.9898" lon="6.91368">
        <ele>1735</ele>
        <time>2019-04-18T07:52:40Z</time>
      </trkpt>
      <trkpt lat="44.98946" lon="6.91347">
        <ele>1741</ele>
        <time>2019-04-18T07:53:40Z</time>
      </trkpt>
      <trkpt lat="44.98886" lon="6.9133">
        <ele>1743</ele>
        <time>2019-04-18T07:54:40Z</time>
      </trkpt>
      <trkpt lat="44.98838" lon="6.91299">
        <ele>1751</ele>
        <time>2019-04-18T07:55:40Z</time>
      </trkpt>
      <trkpt lat="44.98796" lon="6.91281">
        <ele>1754</ele>
        <time>2019-04-18T07:56:40Z</time>
      </trkpt>
      <trkpt lat="44.98749" lon="6.91269">
        <ele>1755</ele>
        <time>2019-04-18T07:57:40Z</time>
      </trkpt>
      <trkpt lat="44.98721" lon="6.91252">
        <ele>1758</ele>
        <time>2019-04-18T07:58:40Z</time>
      </trkpt>
      <trkpt lat="44.98688" lon="6.91227">
        <ele>1761</ele>
        <time>2019-04-18T07:59:40Z</time>
      </trkpt>
      <trkpt lat="44.98667" lon="6.91206">
        <ele>1763</ele>
        <time>2019-04-18T08:00:40Z</time>
      </trkpt>
      <trkpt lat="44.98631" lon="6.91139">
        <ele>1775</ele>
        <time>2019-04-18T08:01:40Z</time>
      </trkpt>
      <trkpt lat="44.98617" lon="6.91127">
        <ele>1776</ele>
        <time>2019-04-18T08:02:40Z</time>
      </trkpt>
      <trkpt lat="44.98602" lon="6.9112">
        <ele>1776</ele>
        <time>2019-04-18T08:03:40Z</time>
      </trkpt>
      <trkpt lat="44.98563" lon="6.91112">
        <ele>1774</ele>
        <time>2019-04-18T08:04:40Z</time>
      </trkpt>
      <trkpt lat="44.98496" lon="6.91073">
        <ele>1783</ele>
        <time>2019-04-18T08:05:40Z</time>
      </trkpt>
      <trkpt lat="44.98462" lon="6.91069">
        <ele>1783</ele>
        <time>2019-04-18T08:06:40Z</time>
      </trkpt>
      <trkpt lat="44.98425" lon="6.91068">
        <ele>1783</ele>
        <time>2019-04-18T08:07:40Z</time>
      </trkpt>
      <trkpt lat="44.98397" lon="6.91071">
        <ele>1780</ele>
        <time>2019-04-18T08:08:40Z</time>
      </trkpt>
      <trkpt lat="44.98372" lon="6.91068">
        <ele>1779</ele>
        <time>2019-04-18T08:09:40Z</time>
      </trkpt>
      <trkpt lat="44.98352" lon="6.91058">
        <ele>1780</ele>
        <time>2019-04-18T08:10:40Z</time>
      </trkpt>
      <trkpt lat="44.98326" lon="6.91031">
        <ele>1784</ele>
        <time>2019-04-18T08:11:40Z</time>
      </trkpt>
      <trkpt lat="44.98305" lon="6.90995">
        <ele>1789</ele>
        <time>2019-04-18T08:12:40Z</time>
      </trkpt>
      <trkpt lat="44.98271" lon="6.90927">
        <ele>1800</ele>
        <time>2019-04-18T08:13:40Z</time>
      </trkpt>
      <trkpt lat="44.98255" lon="6.90902">
        <ele>1802</ele>
        <time>2019-04-18T08:14:40Z</time>
      </trkpt>
      <trkpt lat="44.98221" lon="6.90869">
        <ele>1804</ele>
        <time>2019-04-18T08:15:40Z</time>
      </trkpt>
      <trkpt lat="44.9819" lon="6.90847">
        <ele>1805</ele>
        <time>2019-04-18T08:16:40Z</time>
      </trkpt>
      <trkpt lat="44.98169" lon="6.90827">
        <ele>1807</ele>
        <time>2019-04-18T08:17:40Z</time>
      </trkpt>
      <trkpt lat="44.98145" lon="6.90801">
        <ele>1810</ele>
        <time>2019-04-18T08:18:40Z</time>
      </trkpt>
      <trkpt lat="44.98087" lon="6.90773">
        <ele>1808</ele>
        <time>2019-04-18T08:19:40Z</time>
      </trkpt>
      <trkpt lat="44.9805" lon="6.90747">
        <ele>1809</ele>
        <time>2019-04-18T08:20:40Z</time>
      </trkpt>
      <trkpt lat="44.98014" lon="6.90707">
        <ele>1816</ele>
        <time>2019-04-18T08:21:40Z</time>
      </trkpt>
      <trkpt lat="44.97955" lon="6.90627">
        <ele>1824</ele>
        <time>2019-04-18T08:22:40Z</time>
      </trkpt>
      <trkpt lat="44.97936" lon="6.90612">
        <ele>1822</ele>
        <time>2019-04-18T08:23:40Z</time>
      </trkpt>
      <trkpt lat="44.97922" lon="6.90586">
        <ele>1824</ele>
        <time>2019-04-18T08:24:40Z</time>
      </trkpt>
      <trkpt lat="44.97891" lon="6.90484">
        <ele>1828</ele>
        <time>2019-04-18T08:25:40Z</time>
      </trkpt>
      <trkpt lat="44.97884" lon="6.90454">
        <ele>1831</ele>
        <time>2019-04-18T08:26:40Z</time>
      </trkpt>
      <trkpt lat="44.97878" lon="6.90402">
        <ele>1841</ele>
        <time>2019-04-18T08:27:40Z</time>
      </trkpt>
      <trkpt lat="44.9787" lon="6.90372">
        <ele>1846</ele>
        <time>2019-04-18T08:28:40Z</time>
      </trkpt>
      <trkpt lat="44.97854" lon="6.90339">
        <ele>1847</ele>
        <time>2019-04-18T08:29:40Z</time>
      </trkpt>
      <trkpt lat="44.9782" lon="6.90277">
        <ele>1849</ele>
        <time>2019-04-18T08:30:40Z</time>
      </trkpt>
      <trkpt lat="44.97803" lon="6.90258">
        <ele>1846</ele>
        <time>2019-04-18T08:31:40Z</time>
      </trkpt>
      <trkpt lat="44.97794" lon="6.90236">
        <ele>1849</ele>
        <time>2019-04-18T08:32:40Z</time>
      </trkpt>
      <trkpt lat="44.97785" lon="6.90203">
        <ele>1854</ele>
        <time>2019-04-18T08:33:40Z</time>
      </trkpt>
      <trkpt lat="44.97776" lon="6.90181">
        <ele>1857</ele>
        <time>2019-04-18T08:34:40Z</time>
      </trkpt>
      <trkpt lat="44.97736" lon="6.90127">
        <ele>1861</ele>
        <time>2019-04-18T08:35:40Z</time>
      </trkpt>
      <trkpt lat="44.97714" lon="6.90108">
        <ele>1862</ele>
        <time>2019-04-18T08:36:40Z</time>
      </trkpt>
      <trkpt lat="44.97651" lon="6.90046">
        <ele>1866</ele>
        <time>2019-04-18T08:37:40Z</time>
      </trkpt>
      <trkpt lat="44.97629" lon="6.90037">
        <ele>1864</ele>
        <time>2019-04-18T08:38:40Z</time>
      </trkpt>
      <trkpt lat="44.97605" lon="6.9003">
        <ele>1862</ele>
        <time>2019-04-18T08:39:40Z</time>
      </trkpt>
      <trkpt lat="44.97578" lon="6.90011">
        <ele>1861</ele>
        <time>2019-04-18T08:40:40Z</time>
      </trkpt>
      <trkpt lat="44.97565" lon="6.8999">
        <ele>1863</ele>
        <time>2019-04-18T08:41:40Z</time>
      </trkpt>
      <trkpt lat="44.97524" lon="6.89911">
        <ele>1872</ele>
        <time>2019-04-18T08:42:40Z</time>
      </trkpt>
      <trkpt lat="44.97514" lon="6.89868">
        <ele>1874</ele>
        <time>2019-04-18T08:43:40Z</time>
      </trkpt>
      <trkpt lat="44.97506" lon="6.89798">
        <ele>1879</ele>
        <time>2019-04-18T08:44:40Z</time>
      </trkpt>
      <trkpt lat="44.975" lon="6.89675">
        <ele>1891</ele>
        <time>2019-04-18T08:45:40Z</time>
      </trkpt>
      <trkpt lat="44.97488" lon="6.89589">
        <ele>1896</ele>
        <time>2019-04-18T08:46:40Z</time>
      </trkpt>
      <trkpt lat="44.97486" lon="6.89533">
        <ele>1900</ele>
        <time>2019-04-18T08:47:40Z</time>
      </trkpt>
      <trkpt lat="44.97473" lon="6.89451">
        <ele>1906</ele>
        <time>2019-04-18T08:48:40Z</time>
      </trkpt>
      <trkpt lat="44.97474" lon="6.89422">
        <ele>1911</ele>
        <time>2019-04-18T08:49:40Z</time>
      </trkpt>
      <trkpt lat="44.97472" lon="6.89401">
        <ele>1915</ele>
        <time>2019-04-18T08:50:40Z</time>
      </trkpt>
      <trkpt lat="44.97468" lon="6.89392">
        <ele>1916</ele>
        <time>2019-04-18T08:51:40Z</time>
      </trkpt>
      <trkpt lat="44.97457" lon="6.89382">
        <ele>1915</ele>
        <time>2019-04-18T08:52:40Z</time>
      </trkpt>
      <trkpt lat="44.97445" lon="6.89375">
        <ele>1912</ele>
        <time>2019-04-18T08:53:40Z</time>
      </trkpt>
      <trkpt lat="44.97423" lon="6.8937">
        <ele>1906</ele>
        <time>2019-04-18T08:54:40Z</time>
      </trkpt>
      <trkpt lat="44.97403" lon="6.89359">
        <ele>1903</ele>
        <time>2019-04-18T08:55:40Z</time>
      </trkpt>
      <trkpt lat="44.97379" lon="6.89331">
        <ele>1904</ele>
        <time>2019-04-18T08:56:40Z</time>
      </trkpt>
      <trkpt lat="44.97362" lon="6.89297">
        <ele>1908</ele>
        <time>2019-04-18T08:57:40Z</time>
      </trkpt>
      <trkpt lat="44.9734" lon="6.89217">
        <ele>1924</ele>
        <time>2019-04-18T08:58:40Z</time>
      </trkpt>
      <trkpt lat="44.97326" lon="6.89191">
        <ele>1928</ele>
        <time>2019-04-18T08:59:40Z</time>
      </trkpt>
      <trkpt lat="44.97305" lon="6.89166">
        <ele>1927</ele>
        <time>2019-04-18T09:00:40Z</time>
      </trkpt>
      <trkpt lat="44.97228" lon="6.89017">
        <ele>1934</ele>
        <time>2019-04-18T09:01:40Z</time>
      </trkpt>
      <trkpt lat="44.97216" lon="6.88982">
        <ele>1937</ele>
        <time>2019-04-18T09:02:40Z</time>
      </trkpt>
      <trkpt lat="44.97206" lon="6.88933">
        <ele>1943</ele>
        <time>2019-04-18T09:03:40Z</time>
      </trkpt>
      <trkpt lat="44.97198" lon="6.88906">
        <ele>1946</ele>
        <time>2019-04-18T09:04:40Z</time>
      </trkpt>
      <trkpt lat="44.97158" lon="6.88864">
        <ele>1940</ele>
        <time>2019-04-18T09:05:40Z</time>
      </trkpt>
      <trkpt lat="44.97151" lon="6.88848">
        <ele>1940</ele>
        <time>2019-04-18T09:06:40Z</time>
      </trkpt>
      <trkpt lat="44.97145" lon="6.88826">
        <ele>1941</ele>
        <time>2019-04-18T09:07:40Z</time>
      </trkpt>
      <trkpt lat="44.97139" lon="6.88766">
        <ele>1948</ele>
        <time>2019-04-18T09:08:40Z</time>
      </trkpt>
      <trkpt lat="44.9714" lon="6.88738">
        <ele>1952</ele>
        <time>2019-04-18T09:09:40Z</time>
      </trkpt>
      <trkpt lat="44.97145" lon="6.88666">
        <ele>1961</ele>
        <time>2019-04-18T09:10:40Z</time>
      </trkpt>
      <trkpt lat="44.97144" lon="6.88652">
        <ele>1964</ele>
        <time>2019-04-18T09:11:40Z</time>
      </trkpt>
      <trkpt lat="44.97141" lon="6.8864">
        <ele>1966</ele>
        <time>2019-04-18T09:12:40Z</time>
      </trkpt>
      <trkpt lat="44.97132" lon="6.88626">
        <ele>1967</ele>
        <time>2019-04-18T09:13:40Z</time>
      </trkpt>
      <trkpt lat="44.97122" lon="6.88623">
        <ele>1967</ele>
        <time>2019-04-18T09:14:40Z</time>
      </trkpt>
      <trkpt lat="44.97105" lon="6.88625">
        <ele>1964</ele>
        <time>2019-04-18T09:15:40Z</time>
      </trkpt>
      <trkpt lat="44.97086" lon="6.88636">
        <ele>1959</ele>
        <time>2019-04-18T09:16:40Z</time>
      </trkpt>
      <trkpt lat="44.97067" lon="6.88642">
        <ele>1958</ele>
        <time>2019-04-18T09:17:40Z</time>
      </trkpt>
      <trkpt lat="44.97002" lon="6.88635">
        <ele>1961</ele>
        <time>2019-04-18T09:18:40Z</time>
      </trkpt>
      <trkpt lat="44.96969" lon="6.88626">
        <ele>1961</ele>
        <time>2019-04-18T09:19:40Z</time>
      </trkpt>
      <trkpt lat="44.9692" lon="6.88597">
        <ele>1968</ele>
        <time>2019-04-18T09:20:40Z</time>
      </trkpt>
      <trkpt lat="44.96891" lon="6.88567">
        <ele>1969</ele>
        <time>2019-04-18T09:21:40Z</time>
      </trkpt>
      <trkpt lat="44.96842" lon="6.88487">
        <ele>1973</ele>
        <time>2019-04-18T09:22:40Z</time>
      </trkpt>
      <trkpt lat="44.96821" lon="6.88432">
        <ele>1985</ele>
        <time>2019-04-18T09:23:40Z</time>
      </trkpt>
      <trkpt lat="44.96801" lon="6.88407">
        <ele>1989</ele>
        <time>2019-04-18T09:24:40Z</time>
      </trkpt>
      <trkpt lat="44.96745" lon="6.88375">
        <ele>1992</ele>
        <time>2019-04-18T09:25:40Z</time>
      </trkpt>
      <trkpt lat="44.96636" lon="6.88287">
        <ele>2008</ele>
        <time>2019-04-18T09:26:40Z</time>
      </trkpt>
      <trkpt lat="44.96623" lon="6.88286">
        <ele>2008</ele>
        <time>2019-04-18T09:27:40Z</time>
      </trkpt>
      <trkpt lat="44.96604" lon="6.88291">
        <ele>2005</ele>
        <time>2019-04-18T09:28:40Z</time>
      </trkpt>
      <trkpt lat="44.96585" lon="6.88303">
        <ele>1999</ele>
        <time>2019-04-18T09:29:40Z</time>
      </trkpt>
      <trkpt lat="44.96542" lon="6.88319">
        <ele>1999</ele>
        <time>2019-04-18T09:30:40Z</time>
      </trkpt>
      <trkpt lat="44.9647" lon="6.88335">
        <ele>2000</ele>
        <time>2019-04-18T09:31:40Z</time>
      </trkpt>
      <trkpt lat="44.96432" lon="6.88334">
        <ele>2003</ele>
        <time>2019-04-18T09:32:40Z</time>
      </trkpt>
      <trkpt lat="44.96344" lon="6.88313">
        <ele>2015</ele>
        <time>2019-04-18T09:33:40Z</time>
      </trkpt>
      <trkpt lat="44.96288" lon="6.88318">
        <ele>2017</ele>
        <time>2019-04-18T09:34:40Z</time>
      </trkpt>
      <trkpt lat="44.96223" lon="6.88358">
        <ele>2015</ele>
        <time>2019-04-18T09:35:40Z</time>
      </trkpt>
      <trkpt lat="44.96168" lon="6.88396">
        <ele>2017</ele>
        <time>2019-04-18T09:36:40Z</time>
      </trkpt>
      <trkpt lat="44.96141" lon="6.88418">
        <ele>2018</ele>
        <time>2019-04-18T09:37:40Z</time>
      </trkpt>
      <trkpt lat="44.96116" lon="6.8843">
        <ele>2020</ele>
        <time>2019-04-18T09:38:40Z</time>
      </trkpt>
      <trkpt lat="44.96098" lon="6.88435">
        <ele>2022</ele>
        <time>2019-04-18T09:39:40Z</time>
      </trkpt>
      <trkpt lat="44.9607" lon="6.88431">
        <ele>2026</ele>
        <time>2019-04-18T09:40:40Z</time>
      </trkpt>
      <trkpt lat="44.9605" lon="6.88415">
        <ele>2029</ele>
        <time>2019-04-18T09:41:40Z</time>
      </trkpt>
      <trkpt lat="44.96033" lon="6.88396">
        <ele>2031</ele>
        <time>2019-04-18T09:42:40Z</time>
      </trkpt>
      <trkpt lat="44.95993" lon="6.88345">
        <ele>2036</ele>
        <time>2019-04-18T09:43:40Z</time>
      </trkpt>
      <trkpt lat="44.95998" lon="6.88336">
        <ele>2037</ele>
        <time>2019-04-18T09:44:40Z</time>
      </trkpt>
      <trkpt lat="44.95999" lon="6.88331">
        <ele>2037</ele>
        <time>2019-04-18T09:45:40Z</time>
      </trkpt>
      <trkpt lat="44.95998" lon="6.88325">
        <ele>2038</ele>
        <time>2019-04-18T09:46:40Z</time>
      </trkpt>
      <trkpt lat="44.95993" lon="6.88316">
        <ele>2038</ele>
        <time>2019-04-18T09:47:40Z</time>
      </trkpt>
      <trkpt lat="44.9599" lon="6.88314">
        <ele>2039</ele>
        <time>2019-04-18T09:48:40Z</time>
      </trkpt>
      <trkpt lat="44.95983" lon="6.88314">
        <ele>2038</ele>
        <time>2019-04-18T09:49:40Z</time>
      </trkpt>
      <trkpt lat="44.95977" lon="6.8832">
        <ele>2038</ele>
        <time>2019-04-18T09:50:40Z</time>
      </trkpt>
      <trkpt lat="44.95975" lon="6.88324">
        <ele>2037</ele>
        <time>2019-04-18T09:51:40Z</time>
      </trkpt>
      <trkpt lat="44.95961" lon="6.88311">
        <ele>2038</ele>
        <time>2019-04-18T09:52:40Z</time>
      </trkpt>
      <trkpt lat="44.95909" lon="6.88254">
        <ele>2037</ele>
        <time>2019-04-18T09:53:40Z</time>
      </trkpt>
      <trkpt lat="44.95853" lon="6.88199">
        <ele>2041</ele>
        <time>2019-04-18T09:54:40Z</time>
      </trkpt>
      <trkpt lat="44.95724" lon="6.88077">
        <ele>2035</ele>
        <time>2019-04-18T09:55:40Z</time>
      </trkpt>
      <trkpt lat="44.95706" lon="6.88054">
        <ele>2035</ele>
        <time>2019-04-18T09:56:40Z</time>
      </trkpt>
      <trkpt lat="44.95687" lon="6.88017">
        <ele>2035</ele>
        <time>2019-04-18T09:57:40Z</time>
      </trkpt>
      <trkpt lat="44.95682" lon="6.87974">
        <ele>2036</ele>
        <time>2019-04-18T09:58:40Z</time>
      </trkpt>
      <trkpt lat="44.95677" lon="6.87963">
        <ele>2036</ele>
        <time>2019-04-18T09:59:40Z</time>
      </trkpt>
      <trkpt lat="44.95661" lon="6.87948">
        <ele>2036</ele>
        <time>2019-04-18T10:00:40Z</time>
      </trkpt>
      <trkpt lat="44.95645" lon="6.87897">
        <ele>2036</ele>
        <time>2019-04-18T10:01:40Z</time>
      </trkpt>
      <trkpt lat="44.95635" lon="6.87858">
        <ele>2035</ele>
        <time>2019-04-18T10:02:40Z</time>
      </trkpt>
      <trkpt lat="44.95636" lon="6.87833">
        <ele>2035</ele>
        <time>2019-04-18T10:03:40Z</time>
      </trkpt>
      <trkpt lat="44.95638" lon="6.87822">
        <ele>2034</ele>
        <time>2019-04-18T10:04:40Z</time>
      </trkpt>
      <trkpt lat="44.95643" lon="6.87811">
        <ele>2033</ele>
        <time>2019-04-18T10:05:40Z</time>
      </trkpt>
      <trkpt lat="44.9565" lon="6.878">
        <ele>2033</ele>
        <time>2019-04-18T10:06:40Z</time>
      </trkpt>
      <trkpt lat="44.95661" lon="6.87787">
        <ele>2032</ele>
        <time>2019-04-18T10:07:40Z</time>
      </trkpt>
      <trkpt lat="44.95686" lon="6.87764">
        <ele>2031</ele>
        <time>2019-04-18T10:08:40Z</time>
      </trkpt>
      <trkpt lat="44.957" lon="6.87744">
        <ele>2030</ele>
        <time>2019-04-18T10:09:40Z</time>
      </trkpt>
      <trkpt lat="44.95706" lon="6.87724">
        <ele>2029</ele>
        <time>2019-04-18T10:10:40Z</time>
      </trkpt>
      <trkpt lat="44.95708" lon="6.87703">
        <ele>2028</ele>
        <time>2019-04-18T10:11:40Z</time>
      </trkpt>
      <trkpt lat="44.95705" lon="6.87677">
        <ele>2025</ele>
        <time>2019-04-18T10:12:40Z</time>
      </trkpt>
      <trkpt lat="44.9567" lon="6.87523">
        <ele>2018</ele>
        <time>2019-04-18T10:13:40Z</time>
      </trkpt>
      <trkpt lat="44.95665" lon="6.87499">
        <ele>2017</ele>
        <time>2019-04-18T10:14:40Z</time>
      </trkpt>
      <trkpt lat="44.95665" lon="6.87477">
        <ele>2014</ele>
        <time>2019-04-18T10:15:40Z</time>
      </trkpt>
      <trkpt lat="44.95669" lon="6.87449">
        <ele>2012</ele>
        <time>2019-04-18T10:16:40Z</time>
      </trkpt>
      <trkpt lat="44.95679" lon="6.87427">
        <ele>2011</ele>
        <time>2019-04-18T10:17:40Z</time>
      </trkpt>
      <trkpt lat="44.95683" lon="6.87408">
        <ele>2010</ele>
        <time>2019-04-18T10:18:40Z</time>
      </trkpt>
      <trkpt lat="44.95684" lon="6.87381">
        <ele>2009</ele>
        <time>2019-04-18T10:19:40Z</time>
      </trkpt>
      <trkpt lat="44.9568" lon="6.87361">
        <ele>2008</ele>
        <time>2019-04-18T10:20:40Z</time>
      </trkpt>
      <trkpt lat="44.95665" lon="6.87333">
        <ele>2004</ele>
        <time>2019-04-18T10:21:40Z</time>
      </trkpt>
      <trkpt lat="44.95574" lon="6.8723">
        <ele>1993</ele>
        <time>2019-04-18T10:22:40Z</time>
      </trkpt>
      <trkpt lat="44.95511" lon="6.87162">
        <ele>1985</ele>
        <time>2019-04-18T10:23:40Z</time>
      </trkpt>
      <trkpt lat="44.95457" lon="6.87089">
        <ele>1980</ele>
        <time>2019-04-18T10:24:40Z</time>
      </trkpt>
      <trkpt lat="44.95425" lon="6.8704">
        <ele>1973</ele>
        <time>2019-04-18T10:25:40Z</time>
      </trkpt>
      <trkpt lat="44.95411" lon="6.87009">
        <ele>1971</ele>
        <time>2019-04-18T10:26:40Z</time>
      </trkpt>
      <trkpt lat="44.95402" lon="6.8698">
        <ele>1969</ele>
        <time>2019-04-18T10:27:40Z</time>
      </trkpt>
      <trkpt lat="44.95399" lon="6.86946">
        <ele>1968</ele>
        <time>2019-04-18T10:28:40Z</time>
      </trkpt>
      <trkpt lat="44.95398" lon="6.86914">
        <ele>1967</ele>
        <time>2019-04-18T10:29:40Z</time>
      </trkpt>
      <trkpt lat="44.95408" lon="6.86861">
        <ele>1968</ele>
        <time>2019-04-18T10:30:40Z</time>
      </trkpt>
      <trkpt lat="44.9541" lon="6.86836">
        <ele>1968</ele>
        <time>2019-04-18T10:31:40Z</time>
      </trkpt>
      <trkpt lat="44.95409" lon="6.86814">
        <ele>1966</ele>
        <time>2019-04-18T10:32:40Z</time>
      </trkpt>
      <trkpt lat="44.95404" lon="6.8679">
        <ele>1963</ele>
        <time>2019-04-18T10:33:40Z</time>
      </trkpt>
      <trkpt lat="44.95396" lon="6.86766">
        <ele>1959</ele>
        <time>2019-04-18T10:34:40Z</time>
      </trkpt>
      <trkpt lat="44.95389" lon="6.86738">
        <ele>1956</ele>
        <time>2019-04-18T10:35:40Z</time>
      </trkpt>
      <trkpt lat="44.95387" lon="6.86714">
        <ele>1954</ele>
        <time>2019-04-18T10:36:40Z</time>
      </trkpt>
      <trkpt lat="44.95388" lon="6.8669">
        <ele>1953</ele>
        <time>2019-04-18T10:37:40Z</time>
      </trkpt>
      <trkpt lat="44.95392" lon="6.86671">
        <ele>1953</ele>
        <time>2019-04-18T10:38:40Z</time>
      </trkpt>
      <trkpt lat="44.954" lon="6.86644">
        <ele>1951</ele>
        <time>2019-04-18T10:39:40Z</time>
      </trkpt>
      <trkpt lat="44.95414" lon="6.86614">
        <ele>1949</ele>
        <time>2019-04-18T10:40:40Z</time>
      </trkpt>
      <trkpt lat="44.95471" lon="6.86506">
        <ele>1946</ele>
        <time>2019-04-18T10:41:40Z</time>
      </trkpt>
      <trkpt lat="44.95473" lon="6.86491">
        <ele>1948</ele>
        <time>2019-04-18T10:42:40Z</time>
      </trkpt>
      <trkpt lat="44.95472" lon="6.8648">
        <ele>1951</ele>
        <time>2019-04-18T10:43:40Z</time>
      </trkpt>
      <trkpt lat="44.95466" lon="6.8647">
        <ele>1952</ele>
        <time>2019-04-18T10:44:40Z</time>
      </trkpt>
      <trkpt lat="44.95456" lon="6.86463">
        <ele>1951</ele>
        <time>2019-04-18T10:45:40Z</time>
      </trkpt>
      <trkpt lat="44.95437" lon="6.86462">
        <ele>1947</ele>
        <time>2019-04-18T10:46:40Z</time>
      </trkpt>
      <trkpt lat="44.95388" lon="6.86463">
        <ele>1937</ele>
        <time>2019-04-18T10:47:40Z</time>
      </trkpt>
      <trkpt lat="44.95368" lon="6.86457">
        <ele>1934</ele>
        <time>2019-04-18T10:48:40Z</time>
      </trkpt>
      <trkpt lat="44.9531" lon="6.86406">
        <ele>1928</ele>
        <time>2019-04-18T10:49:40Z</time>
      </trkpt>
      <trkpt lat="44.95281" lon="6.86388">
        <ele>1920</ele>
        <time>2019-04-18T10:50:40Z</time>
      </trkpt>
      <trkpt lat="44.95265" lon="6.86367">
        <ele>1918</ele>
        <time>2019-04-18T10:51:40Z</time>
      </trkpt>
      <trkpt lat="44.95249" lon="6.86339">
        <ele>1916</ele>
        <time>2019-04-18T10:52:40Z</time>
      </trkpt>
      <trkpt lat="44.9524" lon="6.86311">
        <ele>1913</ele>
        <time>2019-04-18T10:53:40Z</time>
      </trkpt>
      <trkpt lat="44.95228" lon="6.86258">
        <ele>1909</ele>
        <time>2019-04-18T10:54:40Z</time>
      </trkpt>
      <trkpt lat="44.95219" lon="6.86228">
        <ele>1909</ele>
        <time>2019-04-18T10:55:40Z</time>
      </trkpt>
      <trkpt lat="44.95212" lon="6.86214">
        <ele>1908</ele>
        <time>2019-04-18T10:56:40Z</time>
      </trkpt>
      <trkpt lat="44.95196" lon="6.86192">
        <ele>1906</ele>
        <time>2019-04-18T10:57:40Z</time>
      </trkpt>
      <trkpt lat="44.9514" lon="6.86133">
        <ele>1902</ele>
        <time>2019-04-18T10:58:40Z</time>
      </trkpt>
      <trkpt lat="44.95125" lon="6.86121">
        <ele>1901</ele>
        <time>2019-04-18T10:59:40Z</time>
      </trkpt>
      <trkpt lat="44.95054" lon="6.86098">
        <ele>1885</ele>
        <time>2019-04-18T11:00:40Z</time>
      </trkpt>
      <trkpt lat="44.95018" lon="6.86077">
        <ele>1878</ele>
        <time>2019-04-18T11:01:40Z</time>
      </trkpt>
      <trkpt lat="44.94988" lon="6.86051">
        <ele>1873</ele>
        <time>2019-04-18T11:02:40Z</time>
      </trkpt>
      <trkpt lat="44.94974" lon="6.8603">
        <ele>1874</ele>
        <time>2019-04-18T11:03:40Z</time>
      </trkpt>
      <trkpt lat="44.94966" lon="6.86008">
        <ele>1878</ele>
        <time>2019-04-18T11:04:40Z</time>
      </trkpt>
      <trkpt lat="44.94964" lon="6.85987">
        <ele>1880</ele>
        <time>2019-04-18T11:05:40Z</time>
      </trkpt>
      <trkpt lat="44.94968" lon="6.85959">
        <ele>1881</ele>
        <time>2019-04-18T11:06:40Z</time>
      </trkpt>
      <trkpt lat="44.94987" lon="6.85892">
        <ele>1884</ele>
        <time>2019-04-18T11:07:40Z</time>
      </trkpt>
      <trkpt lat="44.94987" lon="6.85873">
        <ele>1882</ele>
        <time>2019-04-18T11:08:40Z</time>
      </trkpt>
      <trkpt lat="44.94984" lon="6.85847">
        <ele>1879</ele>
        <time>2019-04-18T11:09:40Z</time>
      </trkpt>
      <trkpt lat="44.94984" lon="6.85829">
        <ele>1877</ele>
        <time>2019-04-18T11:10:40Z</time>
      </trkpt>
      <trkpt lat="44.94991" lon="6.8581">
        <ele>1876</ele>
        <time>2019-04-18T11:11:40Z</time>
      </trkpt>
      <trkpt lat="44.95004" lon="6.85784">
        <ele>1876</ele>
        <time>2019-04-18T11:12:40Z</time>
      </trkpt>
      <trkpt lat="44.95026" lon="6.85752">
        <ele>1877</ele>
        <time>2019-04-18T11:13:40Z</time>
      </trkpt>
      <trkpt lat="44.95035" lon="6.85726">
        <ele>1875</ele>
        <time>2019-04-18T11:14:40Z</time>
      </trkpt>
      <trkpt lat="44.95047" lon="6.85668">
        <ele>1870</ele>
        <time>2019-04-18T11:15:40Z</time>
      </trkpt>
      <trkpt lat="44.95048" lon="6.85642">
        <ele>1869</ele>
        <time>2019-04-18T11:16:40Z</time>
      </trkpt>
      <trkpt lat="44.95046" lon="6.85613">
        <ele>1869</ele>
        <time>2019-04-18T11:17:40Z</time>
      </trkpt>
      <trkpt lat="44.95037" lon="6.85577">
        <ele>1867</ele>
        <time>2019-04-18T11:18:40Z</time>
      </trkpt>
      <trkpt lat="44.95007" lon="6.8553">
        <ele>1861</ele>
        <time>2019-04-18T11:19:40Z</time>
      </trkpt>
      <trkpt lat="44.94991" lon="6.85519">
        <ele>1857</ele>
        <time>2019-04-18T11:20:40Z</time>
      </trkpt>
      <trkpt lat="44.94974" lon="6.85519">
        <ele>1852</ele>
        <time>2019-04-18T11:21:40Z</time>
      </trkpt>
      <trkpt lat="44.94959" lon="6.8553">
        <ele>1848</ele>
        <time>2019-04-18T11:22:40Z</time>
      </trkpt>
      <trkpt lat="44.94939" lon="6.85566">
        <ele>1845</ele>
        <time>2019-04-18T11:23:40Z</time>
      </trkpt>
      <trkpt lat="44.94911" lon="6.85636">
        <ele>1842</ele>
        <time>2019-04-18T11:24:40Z</time>
      </trkpt>
      <trkpt lat="44.94888" lon="6.85708">
        <ele>1837</ele>
        <time>2019-04-18T11:25:40Z</time>
      </trkpt>
      <trkpt lat="44.94851" lon="6.85847">
        <ele>1829</ele>
        <time>2019-04-18T11:26:40Z</time>
      </trkpt>
      <trkpt lat="44.94846" lon="6.85874">
        <ele>1829</ele>
        <time>2019-04-18T11:27:40Z</time>
      </trkpt>
      <trkpt lat="44.94844" lon="6.85905">
        <ele>1831</ele>
        <time>2019-04-18T11:28:40Z</time>
      </trkpt>
      <trkpt lat="44.94849" lon="6.85944">
        <ele>1830</ele>
        <time>2019-04-18T11:29:40Z</time>
      </trkpt>
      <trkpt lat="44.94861" lon="6.85997">
        <ele>1829</ele>
        <time>2019-04-18T11:30:40Z</time>
      </trkpt>
      <trkpt lat="44.94869" lon="6.86023">
        <ele>1826</ele>
        <time>2019-04-18T11:31:40Z</time>
      </trkpt>
      <trkpt lat="44.94871" lon="6.86038">
        <ele>1822</ele>
        <time>2019-04-18T11:32:40Z</time>
      </trkpt>
      <trkpt lat="44.94866" lon="6.86049">
        <ele>1816</ele>
        <time>2019-04-18T11:33:40Z</time>
      </trkpt>
      <trkpt lat="44.94859" lon="6.86051">
        <ele>1811</ele>
        <time>2019-04-18T11:34:40Z</time>
      </trkpt>
      <trkpt lat="44.94851" lon="6.86044">
        <ele>1809</ele>
        <time>2019-04-18T11:35:40Z</time>
      </trkpt>
      <trkpt lat="44.94845" lon="6.86027">
        <ele>1811</ele>
        <time>2019-04-18T11:36:40Z</time>
      </trkpt>
      <trkpt lat="44.9484" lon="6.85996">
        <ele>1817</ele>
        <time>2019-04-18T11:37:40Z</time>
      </trkpt>
      <trkpt lat="44.94816" lon="6.85915">
        <ele>1819</ele>
        <time>2019-04-18T11:38:40Z</time>
      </trkpt>
      <trkpt lat="44.94814" lon="6.85889">
        <ele>1816</ele>
        <time>2019-04-18T11:39:40Z</time>
      </trkpt>
      <trkpt lat="44.94819" lon="6.85795">
        <ele>1812</ele>
        <time>2019-04-18T11:40:40Z</time>
      </trkpt>
      <trkpt lat="44.94816" lon="6.85755">
        <ele>1810</ele>
        <time>2019-04-18T11:41:40Z</time>
      </trkpt>
      <trkpt lat="44.94794" lon="6.8566">
        <ele>1795</ele>
        <time>2019-04-18T11:42:40Z</time>
      </trkpt>
      <trkpt lat="44.94785" lon="6.85613">
        <ele>1791</ele>
        <time>2019-04-18T11:43:40Z</time>
      </trkpt>
      <trkpt lat="44.94787" lon="6.8556">
        <ele>1790</ele>
        <time>2019-04-18T11:44:40Z</time>
      </trkpt>
      <trkpt lat="44.94791" lon="6.85496">
        <ele>1787</ele>
        <time>2019-04-18T11:45:40Z</time>
      </trkpt>
      <trkpt lat="44.94796" lon="6.8546">
        <ele>1785</ele>
        <time>2019-04-18T11:46:40Z</time>
      </trkpt>
      <trkpt lat="44.94808" lon="6.85414">
        <ele>1786</ele>
        <time>2019-04-18T11:47:40Z</time>
      </trkpt>
      <trkpt lat="44.94817" lon="6.85389">
        <ele>1788</ele>
        <time>2019-04-18T11:48:40Z</time>
      </trkpt>
      <trkpt lat="44.94822" lon="6.85361">
        <ele>1788</ele>
        <time>2019-04-18T11:49:40Z</time>
      </trkpt>
      <trkpt lat="44.94821" lon="6.85338">
        <ele>1785</ele>
        <time>2019-04-18T11:50:40Z</time>
      </trkpt>
      <trkpt lat="44.94813" lon="6.85323">
        <ele>1783</ele>
        <time>2019-04-18T11:51:40Z</time>
      </trkpt>
      <trkpt lat="44.94779" lon="6.85298">
        <ele>1774</ele>
        <time>2019-04-18T11:52:40Z</time>
      </trkpt>
      <trkpt lat="44.94767" lon="6.85276">
        <ele>1774</ele>
        <time>2019-04-18T11:53:40Z</time>
      </trkpt>
      <trkpt lat="44.94759" lon="6.8524">
        <ele>1776</ele>
        <time>2019-04-18T11:54:40Z</time>
      </trkpt>
      <trkpt lat="44.94754" lon="6.85193">
        <ele>1774</ele>
        <time>2019-04-18T11:55:40Z</time>
      </trkpt>
      <trkpt lat="44.94752" lon="6.85082">
        <ele>1769</ele>
        <time>2019-04-18T11:56:40Z</time>
      </trkpt>
      <trkpt lat="44.94748" lon="6.85041">
        <ele>1768</ele>
        <time>2019-04-18T11:57:40Z</time>
      </trkpt>
      <trkpt lat="44.9474" lon="6.85001">
        <ele>1765</ele>
        <time>2019-04-18T11:58:40Z</time>
      </trkpt>
      <trkpt lat="44.94729" lon="6.84979">
        <ele>1763</ele>
        <time>2019-04-18T11:59:40Z</time>
      </trkpt>
      <trkpt lat="44.94724" lon="6.84952">
        <ele>1762</ele>
        <time>2019-04-18T12:00:40Z</time>
      </trkpt>
      <trkpt lat="44.94724" lon="6.84905">
        <ele>1763</ele>
        <time>2019-04-18T12:01:40Z</time>
      </trkpt>
      <trkpt lat="44.94704" lon="6.84852">
        <ele>1758</ele>
        <time>2019-04-18T12:02:40Z</time>
      </trkpt>
      <trkpt lat="44.94701" lon="6.84819">
        <ele>1757</ele>
        <time>2019-04-18T12:03:40Z</time>
      </trkpt>
      <trkpt lat="44.94704" lon="6.84754">
        <ele>1759</ele>
        <time>2019-04-18T12:04:40Z</time>
      </trkpt>
      <trkpt lat="44.947" lon="6.8472">
        <ele>1760</ele>
        <time>2019-04-18T12:05:40Z</time>
      </trkpt>
      <trkpt lat="44.94688" lon="6.84683">
        <ele>1758</ele>
        <time>2019-04-18T12:06:40Z</time>
      </trkpt>
      <trkpt lat="44.94617" lon="6.845">
        <ele>1751</ele>
        <time>2019-04-18T12:07:40Z</time>
      </trkpt>
      <trkpt lat="44.94606" lon="6.84477">
        <ele>1750</ele>
        <time>2019-04-18T12:08:40Z</time>
      </trkpt>
      <trkpt lat="44.94593" lon="6.84461">
        <ele>1747</ele>
        <time>2019-04-18T12:09:40Z</time>
      </trkpt>
      <trkpt lat="44.94572" lon="6.84443">
        <ele>1743</ele>
        <time>2019-04-18T12:10:40Z</time>
      </trkpt>
      <trkpt lat="44.94548" lon="6.84432">
        <ele>1737</ele>
        <time>2019-04-18T12:11:40Z</time>
      </trkpt>
      <trkpt lat="44.94532" lon="6.84414">
        <ele>1736</ele>
        <time>2019-04-18T12:12:40Z</time>
      </trkpt>
      <trkpt lat="44.94523" lon="6.84389">
        <ele>1737</ele>
        <time>2019-04-18T12:13:40Z</time>
      </trkpt>
      <trkpt lat="44.94514" lon="6.84352">
        <ele>1739</ele>
        <time>2019-04-18T12:14:40Z</time>
      </trkpt>
      <trkpt lat="44.94439" lon="6.8423">
        <ele>1730</ele>
        <time>2019-04-18T12:15:40Z</time>
      </trkpt>
      <trkpt lat="44.94417" lon="6.84183">
        <ele>1727</ele>
        <time>2019-04-18T12:16:40Z</time>
      </trkpt>
      <trkpt lat="44.94402" lon="6.84142">
        <ele>1724</ele>
        <time>2019-04-18T12:17:40Z</time>
      </trkpt>
      <trkpt lat="44.94395" lon="6.84107">
        <ele>1723</ele>
        <time>2019-04-18T12:18:40Z</time>
      </trkpt>
      <trkpt lat="44.94393" lon="6.8406">
        <ele>1721</ele>
        <time>2019-04-18T12:19:40Z</time>
      </trkpt>
      <trkpt lat="44.94398" lon="6.8402">
        <ele>1720</ele>
        <time>2019-04-18T12:20:40Z</time>
      </trkpt>
      <trkpt lat="44.9441" lon="6.83951">
        <ele>1720</ele>
        <time>2019-04-18T12:21:40Z</time>
      </trkpt>
      <trkpt lat="44.94409" lon="6.83918">
        <ele>1718</ele>
        <time>2019-04-18T12:22:40Z</time>
      </trkpt>
      <trkpt lat="44.94398" lon="6.83812">
        <ele>1713</ele>
        <time>2019-04-18T12:23:40Z</time>
      </trkpt>
      <trkpt lat="44.94393" lon="6.83785">
        <ele>1713</ele>
        <time>2019-04-18T12:24:40Z</time>
      </trkpt>
      <trkpt lat="44.94357" lon="6.83697">
        <ele>1706</ele>
        <time>2019-04-18T12:25:40Z</time>
      </trkpt>
      <trkpt lat="44.94332" lon="6.83612">
        <ele>1700</ele>
        <time>2019-04-18T12:26:40Z</time>
      </trkpt>
      <trkpt lat="44.94321" lon="6.83568">
        <ele>1698</ele>
        <time>2019-04-18T12:27:40Z</time>
      </trkpt>
      <trkpt lat="44.94317" lon="6.83538">
        <ele>1698</ele>
        <time>2019-04-18T12:28:40Z</time>
      </trkpt>
      <trkpt lat="44.94324" lon="6.83397">
        <ele>1698</ele>
        <time>2019-04-18T12:29:40Z</time>
      </trkpt>
      <trkpt lat="44.94336" lon="6.83343">
        <ele>1697</ele>
        <time>2019-04-18T12:30:40Z</time>
      </trkpt>
      <trkpt lat="44.94336" lon="6.83323">
        <ele>1696</ele>
        <time>2019-04-18T12:31:40Z</time>
      </trkpt>
      <trkpt lat="44.94333" lon="6.83285">
        <ele>1694</ele>
        <time>2019-04-18T12:32:40Z</time>
      </trkpt>
      <trkpt lat="44.94333" lon="6.83246">
        <ele>1693</ele>
        <time>2019-04-18T12:33:40Z</time>
      </trkpt>
      <trkpt lat="44.94339" lon="6.83203">
        <ele>1694</ele>
        <time>2019-04-18T12:34:40Z</time>
      </trkpt>
      <trkpt lat="44.94339" lon="6.83179">
        <ele>1694</ele>
        <time>2019-04-18T12:35:40Z</time>
      </trkpt>
      <trkpt lat="44.94335" lon="6.83154">
        <ele>1692</ele>
        <time>2019-04-18T12:36:40Z</time>
      </trkpt>
      <trkpt lat="44.94324" lon="6.83126">
        <ele>1688</ele>
        <time>2019-04-18T12:37:40Z</time>
      </trkpt>
      <trkpt lat="44.94281" lon="6.82953">
        <ele>1680</ele>
        <time>2019-04-18T12:38:40Z</time>
      </trkpt>
      <trkpt lat="44.94272" lon="6.82928">
        <ele>1680</ele>
        <time>2019-04-18T12:39:40Z</time>
      </trkpt>
      <trkpt lat="44.94261" lon="6.82905">
        <ele>1679</ele>
        <time>2019-04-18T12:40:40Z</time>
      </trkpt>
      <trkpt lat="44.94244" lon="6.82889">
        <ele>1676</ele>
        <time>2019-04-18T12:41:40Z</time>
      </trkpt>
      <trkpt lat="44.9421" lon="6.8287">
        <ele>1669</ele>
        <time>2019-04-18T12:42:40Z</time>
      </trkpt>
      <trkpt lat="44.94188" lon="6.82846">
        <ele>1667</ele>
        <time>2019-04-18T12:43:40Z</time>
      </trkpt>
      <trkpt lat="44.94176" lon="6.8282">
        <ele>1668</ele>
        <time>2019-04-18T12:44:40Z</time>
      </trkpt>
      <trkpt lat="44.94152" lon="6.8278">
        <ele>1666</ele>
        <time>2019-04-18T12:45:40Z</time>
      </trkpt>
      <trkpt lat="44.9413" lon="6.82752">
        <ele>1663</ele>
        <time>2019-04-18T12:46:40Z</time>
      </trkpt>
      <trkpt lat="44.9412" lon="6.82731">
        <ele>1662</ele>
        <time>2019-04-18T12:47:40Z</time>
      </trkpt>
      <trkpt lat="44.94116" lon="6.82702">
        <ele>1663</ele>
        <time>2019-04-18T12:48:40Z</time>
      </trkpt>
      <trkpt lat="44.94098" lon="6.82541">
        <ele>1659</ele>
        <time>2019-04-18T12:49:40Z</time>
      </trkpt>
      <trkpt lat="44.94092" lon="6.8251">
        <ele>1657</ele>
        <time>2019-04-18T12:50:40Z</time>
      </trkpt>
      <trkpt lat="44.94077" lon="6.82452">
        <ele>1652</ele>
        <time>2019-04-18T12:51:40Z</time>
      </trkpt>
      <trkpt lat="44.94072" lon="6.82416">
        <ele>1650</ele>
        <time>2019-04-18T12:52:40Z</time>
      </trkpt>
      <trkpt lat="44.94071" lon="6.82302">
        <ele>1646</ele>
        <time>2019-04-18T12:53:40Z</time>
      </trkpt>
      <trkpt lat="44.94067" lon="6.82167">
        <ele>1640</ele>
        <time>2019-04-18T12:54:40Z</time>
      </trkpt>
      <trkpt lat="44.9407" lon="6.82143">
        <ele>1639</ele>
        <time>2019-04-18T12:55:40Z</time>
      </trkpt>
      <trkpt lat="44.94091" lon="6.82045">
        <ele>1639</ele>
        <time>2019-04-18T12:56:40Z</time>
      </trkpt>
      <trkpt lat="44.94101" lon="6.82017">
        <ele>1641</ele>
        <time>2019-04-18T12:57:40Z</time>
      </trkpt>
      <trkpt lat="44.94105" lon="6.81993">
        <ele>1640</ele>
        <time>2019-04-18T12:58:40Z</time>
      </trkpt>
      <trkpt lat="44.94104" lon="6.8197">
        <ele>1639</ele>
        <time>2019-04-18T12:59:40Z</time>
      </trkpt>
      <trkpt lat="44.94097" lon="6.81952">
        <ele>1635</ele>
        <time>2019-04-18T13:00:40Z</time>
      </trkpt>
      <trkpt lat="44.94093" lon="6.81929">
        <ele>1632</ele>
        <time>2019-04-18T13:01:40Z</time>
      </trkpt>
      <trkpt lat="44.94093" lon="6.81907">
        <ele>1630</ele>
        <time>2019-04-18T13:02:40Z</time>
      </trkpt>
      <trkpt lat="44.94125" lon="6.81773">
        <ele>1627</ele>
        <time>2019-04-18T13:03:40Z</time>
      </trkpt>
      <trkpt lat="44.94134" lon="6.81744">
        <ele>1627</ele>
        <time>2019-04-18T13:04:40Z</time>
      </trkpt>
      <trkpt lat="44.94152" lon="6.81706">
        <ele>1632</ele>
        <time>2019-04-18T13:05:40Z</time>
      </trkpt>
      <trkpt lat="44.9416" lon="6.81687">
        <ele>1634</ele>
        <time>2019-04-18T13:06:40Z</time>
      </trkpt>
      <trkpt lat="44.9416" lon="6.81671">
        <ele>1633</ele>
        <time>2019-04-18T13:07:40Z</time>
      </trkpt>
      <trkpt lat="44.94156" lon="6.81654">
        <ele>1631</ele>
        <time>2019-04-18T13:08:40Z</time>
      </trkpt>
      <trkpt lat="44.94139" lon="6.81627">
        <ele>1625</ele>
        <time>2019-04-18T13:09:40Z</time>
      </trkpt>
      <trkpt lat="44.94126" lon="6.81596">
        <ele>1620</ele>
        <time>2019-04-18T13:10:40Z</time>
      </trkpt>
      <trkpt lat="44.94126" lon="6.81555">
        <ele>1617</ele>
        <time>2019-04-18T13:11:40Z</time>
      </trkpt>
      <trkpt lat="44.94132" lon="6.8153">
        <ele>1616</ele>
        <time>2019-04-18T13:12:40Z</time>
      </trkpt>
      <trkpt lat="44.94145" lon="6.81501">
        <ele>1617</ele>
        <time>2019-04-18T13:13:40Z</time>
      </trkpt>
      <trkpt lat="44.94179" lon="6.81463">
        <ele>1620</ele>
        <time>2019-04-18T13:14:40Z</time>
      </trkpt>
      <trkpt lat="44.94203" lon="6.8143">
        <ele>1620</ele>
        <time>2019-04-18T13:15:40Z</time>
      </trkpt>
      <trkpt lat="44.94216" lon="6.81403">
        <ele>1621</ele>
        <time>2019-04-18T13:16:40Z</time>
      </trkpt>
      <trkpt lat="44.9422" lon="6.8137">
        <ele>1620</ele>
        <time>2019-04-18T13:17:40Z</time>
      </trkpt>
      <trkpt lat="44.94217" lon="6.81334">
        <ele>1616</ele>
        <time>2019-04-18T13:18:40Z</time>
      </trkpt>
      <trkpt lat="44.94205" lon="6.81306">
        <ele>1615</ele>
        <time>2019-04-18T13:19:40Z</time>
      </trkpt>
      <trkpt lat="44.94188" lon="6.81284">
        <ele>1612</ele>
        <time>2019-04-18T13:20:40Z</time>
      </trkpt>
      <trkpt lat="44.9416" lon="6.81243">
        <ele>1609</ele>
        <time>2019-04-18T13:21:40Z</time>
      </trkpt>
      <trkpt lat="44.94138" lon="6.81187">
        <ele>1604</ele>
        <time>2019-04-18T13:22:40Z</time>
      </trkpt>
      <trkpt lat="44.94128" lon="6.81154">
        <ele>1601</ele>
        <time>2019-04-18T13:23:40Z</time>
      </trkpt>
      <trkpt lat="44.94128" lon="6.81109">
        <ele>1600</ele>
        <time>2019-04-18T13:24:40Z</time>
      </trkpt>
      <trkpt lat="44.94134" lon="6.8107">
        <ele>1600</ele>
        <time>2019-04-18T13:25:40Z</time>
      </trkpt>
      <trkpt lat="44.94157" lon="6.81011">
        <ele>1603</ele>
        <time>2019-04-18T13:26:40Z</time>
      </trkpt>
      <trkpt lat="44.94162" lon="6.80982">
        <ele>1602</ele>
        <time>2019-04-18T13:27:40Z</time>
      </trkpt>
      <trkpt lat="44.94161" lon="6.80958">
        <ele>1600</ele>
        <time>2019-04-18T13:28:40Z</time>
      </trkpt>
      <trkpt lat="44.94153" lon="6.80932">
        <ele>1597</ele>
        <time>2019-04-18T13:29:40Z</time>
      </trkpt>
      <trkpt lat="44.94134" lon="6.8091">
        <ele>1593</ele>
        <time>2019-04-18T13:30:40Z</time>
      </trkpt>
      <trkpt lat="44.9411" lon="6.80896">
        <ele>1590</ele>
        <time>2019-04-18T13:31:40Z</time>
      </trkpt>
      <trkpt lat="44.94095" lon="6.80881">
        <ele>1587</ele>
        <time>2019-04-18T13:32:40Z</time>
      </trkpt>
      <trkpt lat="44.94082" lon="6.80857">
        <ele>1584</ele>
        <time>2019-04-18T13:33:40Z</time>
      </trkpt>
      <trkpt lat="44.94069" lon="6.80791">
        <ele>1580</ele>
        <time>2019-04-18T13:34:40Z</time>
      </trkpt>
      <trkpt lat="44.9406" lon="6.80699">
        <ele>1579</ele>
        <time>2019-04-18T13:35:40Z</time>
      </trkpt>
      <trkpt lat="44.94063" lon="6.80645">
        <ele>1580</ele>
        <time>2019-04-18T13:36:40Z</time>
      </trkpt>
      <trkpt lat="44.94063" lon="6.80598">
        <ele>1577</ele>
        <time>2019-04-18T13:37:40Z</time>
      </trkpt>
      <trkpt lat="44.9407" lon="6.80562">
        <ele>1575</ele>
        <time>2019-04-18T13:38:40Z</time>
      </trkpt>
      <trkpt lat="44.94097" lon="6.80493">
        <ele>1576</ele>
        <time>2019-04-18T13:39:40Z</time>
      </trkpt>
      <trkpt lat="44.94107" lon="6.80461">
        <ele>1578</ele>
        <time>2019-04-18T13:40:40Z</time>
      </trkpt>
      <trkpt lat="44.94109" lon="6.80433">
        <ele>1575</ele>
        <time>2019-04-18T13:41:40Z</time>
      </trkpt>
      <trkpt lat="44.94111" lon="6.80347">
        <ele>1560</ele>
        <time>2019-04-18T13:42:40Z</time>
      </trkpt>
      <trkpt lat="44.94118" lon="6.80323">
        <ele>1556</ele>
        <time>2019-04-18T13:43:40Z</time>
      </trkpt>
      <trkpt lat="44.94131" lon="6.80302">
        <ele>1553</ele>
        <time>2019-04-18T13:44:40Z</time>
      </trkpt>
      <trkpt lat="44.94153" lon="6.80289">
        <ele>1558</ele>
        <time>2019-04-18T13:45:40Z</time>
      </trkpt>
      <trkpt lat="44.94174" lon="6.80267">
        <ele>1556</ele>
        <time>2019-04-18T13:46:40Z</time>
      </trkpt>
      <trkpt lat="44.94191" lon="6.80241">
        <ele>1548</ele>
        <time>2019-04-18T13:47:40Z</time>
      </trkpt>
      <trkpt lat="44.94211" lon="6.80224">
        <ele>1543</ele>
        <time>2019-04-18T13:48:40Z</time>
      </trkpt>
      <trkpt lat="44.94229" lon="6.80218">
        <ele>1544</ele>
        <time>2019-04-18T13:49:40Z</time>
      </trkpt>
      <trkpt lat="44.94246" lon="6.80217">
        <ele>1547</ele>
        <time>2019-04-18T13:50:40Z</time>
      </trkpt>
      <trkpt lat="44.94294" lon="6.80244">
        <ele>1558</ele>
        <time>2019-04-18T13:51:40Z</time>
      </trkpt>
      <trkpt lat="44.94412" lon="6.80264">
        <ele>1552</ele>
        <time>2019-04-18T13:52:40Z</time>
      </trkpt>
      <trkpt lat="44.94557" lon="6.80297">
        <ele>1537</ele>
        <time>2019-04-18T13:53:40Z</time>
      </trkpt>
      <trkpt lat="44.94599" lon="6.80295">
        <ele>1528</ele>
        <time>2019-04-18T13:54:40Z</time>
      </trkpt>
      <trkpt lat="44.94615" lon="6.80302">
        <ele>1525</ele>
        <time>2019-04-18T13:55:40Z</time>
      </trkpt>
      <trkpt lat="44.94627" lon="6.80316">
        <ele>1525</ele>
        <time>2019-04-18T13:56:40Z</time>
      </trkpt>
      <trkpt lat="44.94638" lon="6.80337">
        <ele>1526</ele>
        <time>2019-04-18T13:57:40Z</time>
      </trkpt>
      <trkpt lat="44.94645" lon="6.80367">
        <ele>1533</ele>
        <time>2019-04-18T13:58:40Z</time>
      </trkpt>
      <trkpt lat="44.9466" lon="6.80389">
        <ele>1534</ele>
        <time>2019-04-18T13:59:40Z</time>
      </trkpt>
      <trkpt lat="44.94676" lon="6.80398">
        <ele>1532</ele>
        <time>2019-04-18T14:00:40Z</time>
      </trkpt>
      <trkpt lat="44.94697" lon="6.80399">
        <ele>1527</ele>
        <time>2019-04-18T14:01:40Z</time>
      </trkpt>
      <trkpt lat="44.94723" lon="6.80391">
        <ele>1519</ele>
        <time>2019-04-18T14:02:40Z</time>
      </trkpt>
      <trkpt lat="44.94761" lon="6.80372">
        <ele>1508</ele>
        <time>2019-04-18T14:03:40Z</time>
      </trkpt>
      <trkpt lat="44.94803" lon="6.80341">
        <ele>1501</ele>
        <time>2019-04-18T14:04:40Z</time>
      </trkpt>
      <trkpt lat="44.94853" lon="6.80285">
        <ele>1497</ele>
        <time>2019-04-18T14:05:40Z</time>
      </trkpt>
      <trkpt lat="44.94898" lon="6.8023">
        <ele>1493</ele>
        <time>2019-04-18T14:06:40Z</time>
      </trkpt>
      <trkpt lat="44.94918" lon="6.80201">
        <ele>1489</ele>
        <time>2019-04-18T14:07:40Z</time>
      </trkpt>
      <trkpt lat="44.94943" lon="6.80159">
        <ele>1483</ele>
        <time>2019-04-18T14:08:40Z</time>
      </trkpt>
      <trkpt lat="44.9496" lon="6.80139">
        <ele>1480</ele>
        <time>2019-04-18T14:09:40Z</time>
      </trkpt>
      <trkpt lat="44.95013" lon="6.801">
        <ele>1476</ele>
        <time>2019-04-18T14:10:40Z</time>
      </trkpt>
      <trkpt lat="44.9505" lon="6.80068">
        <ele>1472</ele>
        <time>2019-04-18T14:11:40Z</time>
      </trkpt>
      <trkpt lat="44.95075" lon="6.80058">
        <ele>1472</ele>
        <time>2019-04-18T14:12:40Z</time>
      </trkpt>
      <trkpt lat="44.95096" lon="6.80053">
        <ele>1473</ele>
        <time>2019-04-18T14:13:40Z</time>
      </trkpt>
      <trkpt lat="44.95109" lon="6.80041">
        <ele>1471</ele>
        <time>2019-04-18T14:14:40Z</time>
      </trkpt>
      <trkpt lat="44.9512" lon="6.80023">
        <ele>1469</ele>
        <time>2019-04-18T14:15:40Z</time>
      </trkpt>
      <trkpt lat="44.95133" lon="6.7999">
        <ele>1464</ele>
        <time>2019-04-18T14:16:40Z</time>
      </trkpt>
      <trkpt lat="44.95148" lon="6.79966">
        <ele>1461</ele>
        <time>2019-04-18T14:17:40Z</time>
      </trkpt>
      <trkpt lat="44.95184" lon="6.79939">
        <ele>1460</ele>
        <time>2019-04-18T14:18:40Z</time>
      </trkpt>
      <trkpt lat="44.95197" lon="6.79925">
        <ele>1460</ele>
        <time>2019-04-18T14:19:40Z</time>
      </trkpt>
      <trkpt lat="44.95212" lon="6.79881">
        <ele>1454</ele>
        <time>2019-04-18T14:20:40Z</time>
      </trkpt>
      <trkpt lat="44.95223" lon="6.79864">
        <ele>1451</ele>
        <time>2019-04-18T14:21:40Z</time>
      </trkpt>
      <trkpt lat="44.95236" lon="6.79859">
        <ele>1452</ele>
        <time>2019-04-18T14:22:40Z</time>
      </trkpt>
      <trkpt lat="44.95278" lon="6.79862">
        <ele>1446</ele>
        <time>2019-04-18T14:23:40Z</time>
      </trkpt>
      <trkpt lat="44.95283" lon="6.79856">
        <ele>1444</ele>
        <time>2019-04-18T14:24:40Z</time>
      </trkpt>
      <trkpt lat="44.95284" lon="6.79847">
        <ele>1441</ele>
        <time>2019-04-18T14:25:40Z</time>
      </trkpt>
      <trkpt lat="44.95279" lon="6.79839">
        <ele>1441</ele>
        <time>2019-04-18T14:26:40Z</time>
      </trkpt>
      <trkpt lat="44.95244" lon="6.79827">
        <ele>1444</ele>
        <time>2019-04-18T14:27:40Z</time>
      </trkpt>
      <trkpt lat="44.95212" lon="6.79822">
        <ele>1440</ele>
        <time>2019-04-18T14:28:40Z</time>
      </trkpt>
      <trkpt lat="44.95188" lon="6.79825">
        <ele>1439</ele>
        <time>2019-04-18T14:29:40Z</time>
      </trkpt>
      <trkpt lat="44.95167" lon="6.79835">
        <ele>1439</ele>
        <time>2019-04-18T14:30:40Z</time>
      </trkpt>
      <trkpt lat="44.95118" lon="6.79878">
        <ele>1439</ele>
        <time>2019-04-18T14:31:40Z</time>
      </trkpt>
      <trkpt lat="44.95098" lon="6.79885">
        <ele>1438</ele>
        <time>2019-04-18T14:32:40Z</time>
      </trkpt>
      <trkpt lat="44.95085" lon="6.79887">
        <ele>1436</ele>
        <time>2019-04-18T14:33:40Z</time>
      </trkpt>
      <trkpt lat="44.95068" lon="6.79881">
        <ele>1435</ele>
        <time>2019-04-18T14:34:40Z</time>
      </trkpt>
      <trkpt lat="44.95048" lon="6.79867">
        <ele>1431</ele>
        <time>2019-04-18T14:35:40Z</time>
      </trkpt>
      <trkpt lat="44.95022" lon="6.79843">
        <ele>1425</ele>
        <time>2019-04-18T14:36:40Z</time>
      </trkpt>
      <trkpt lat="44.95005" lon="6.79834">
        <ele>1422</ele>
        <time>2019-04-18T14:37:40Z</time>
      </trkpt>
      <trkpt lat="44.9498" lon="6.79828">
        <ele>1419</ele>
        <time>2019-04-18T14:38:40Z</time>
      </trkpt>
      <trkpt lat="44.94947" lon="6.79825">
        <ele>1417</ele>
        <time>2019-04-18T14:39:40Z</time>
      </trkpt>
      <trkpt lat="44.94828" lon="6.79825">
        <ele>1409</ele>
        <time>2019-04-18T14:40:40Z</time>
      </trkpt>
      <trkpt lat="44.94797" lon="6.79818">
        <ele>1409</ele>
        <time>2019-04-18T14:41:40Z</time>
      </trkpt>
      <trkpt lat="44.94684" lon="6.79765">
        <ele>1390</ele>
        <time>2019-04-18T14:42:40Z</time>
      </trkpt>
      <trkpt lat="44.9468" lon="6.79761">
        <ele>1388</ele>
        <time>2019-04-18T14:43:40Z</time>
      </trkpt>
      <trkpt lat="44.94679" lon="6.79756">
        <ele>1387</ele>
        <time>2019-04-18T14:44:40Z</time>
      </trkpt>
      <trkpt lat="44.94679" lon="6.7975">
        <ele>1385</ele>
        <time>2019-04-18T14:45:40Z</time>
      </trkpt>
      <trkpt lat="44.94681" lon="6.79744">
        <ele>1384</ele>
        <time>2019-04-18T14:46:40Z</time>
      </trkpt>
      <trkpt lat="44.94686" lon="6.79743">
        <ele>1384</ele>
        <time>2019-04-18T14:47:40Z</time>
      </trkpt>
      <trkpt lat="44.94692" lon="6.79744">
        <ele>1384</ele>
        <time>2019-04-18T14:48:40Z</time>
      </trkpt>
      <trkpt lat="44.94746" lon="6.79765">
        <ele>1392</ele>
        <time>2019-04-18T14:49:40Z</time>
      </trkpt>
      <trkpt lat="44.94763" lon="6.79769">
        <ele>1393</ele>
        <time>2019-04-18T14:50:40Z</time>
      </trkpt>
      <trkpt lat="44.94777" lon="6.79771">
        <ele>1393</ele>
        <time>2019-04-18T14:51:40Z</time>
      </trkpt>
      <trkpt lat="44.9479" lon="6.79769">
        <ele>1392</ele>
        <time>2019-04-18T14:52:40Z</time>
      </trkpt>
      <trkpt lat="44.9484" lon="6.79757">
        <ele>1386</ele>
        <time>2019-04-18T14:53:40Z</time>
      </trkpt>
      <trkpt lat="44.9485" lon="6.79751">
        <ele>1385</ele>
        <time>2019-04-18T14:54:40Z</time>
      </trkpt>
      <trkpt lat="44.94858" lon="6.79743">
        <ele>1384</ele>
        <time>2019-04-18T14:55:40Z</time>
      </trkpt>
      <trkpt lat="44.94882" lon="6.79704">
        <ele>1376</ele>
        <time>2019-04-18T14:56:40Z</time>
      </trkpt>
      <trkpt lat="44.94943" lon="6.79625">
        <ele>1367</ele>
        <time>2019-04-18T14:57:40Z</time>
      </trkpt>
      <trkpt lat="44.94954" lon="6.79612">
        <ele>1366</ele>
        <time>2019-04-18T14:58:40Z</time>
      </trkpt>
      <trkpt lat="44.94963" lon="6.79606">
        <ele>1366</ele>
        <time>2019-04-18T14:59:40Z</time>
      </trkpt>
      <trkpt lat="44.94994" lon="6.79596">
        <ele>1367</ele>
        <time>2019-04-18T15:00:40Z</time>
      </trkpt>
      <trkpt lat="44.95013" lon="6.79588">
        <ele>1367</ele>
        <time>2019-04-18T15:01:40Z</time>
      </trkpt>
      <trkpt lat="44.95076" lon="6.79554">
        <ele>1361</ele>
        <time>2019-04-18T15:02:40Z</time>
      </trkpt>
      <trkpt lat="44.95098" lon="6.79545">
        <ele>1360</ele>
        <time>2019-04-18T15:03:40Z</time>
      </trkpt>
      <trkpt lat="44.95109" lon="6.79543">
        <ele>1360</ele>
        <time>2019-04-18T15:04:40Z</time>
      </trkpt>
      <trkpt lat="44.95136" lon="6.79546">
        <ele>1361</ele>
        <time>2019-04-18T15:05:40Z</time>
      </trkpt>
      <trkpt lat="44.95149" lon="6.79544">
        <ele>1361</ele>
        <time>2019-04-18T15:06:40Z</time>
      </trkpt>
      <trkpt lat="44.95166" lon="6.79538">
        <ele>1360</ele>
        <time>2019-04-18T15:07:40Z</time>
      </trkpt>
      <trkpt lat="44.95221" lon="6.79505">
        <ele>1357</ele>
        <time>2019-04-18T15:08:40Z</time>
      </trkpt>
      <trkpt lat="44.95255" lon="6.79474">
        <ele>1353</ele>
        <time>2019-04-18T15:09:40Z</time>
      </trkpt>
      <trkpt lat="44.95281" lon="6.79444">
        <ele>1352</ele>
        <time>2019-04-18T15:10:40Z</time>
      </trkpt>
      <trkpt lat="44.95293" lon="6.79426">
        <ele>1351</ele>
        <time>2019-04-18T15:11:40Z</time>
      </trkpt>
      <trkpt lat="44.953" lon="6.79407">
        <ele>1350</ele>
        <time>2019-04-18T15:12:40Z</time>
      </trkpt>
      <trkpt lat="44.95302" lon="6.79396">
        <ele>1350</ele>
        <time>2019-04-18T15:13:40Z</time>
      </trkpt>
      <trkpt lat="44.95301" lon="6.79378">
        <ele>1349</ele>
        <time>2019-04-18T15:14:40Z</time>
      </trkpt>
      <trkpt lat="44.95305" lon="6.79378">
        <ele>1349</ele>
        <time>2019-04-18T15:15:40Z</time>
      </trkpt>
      <trkpt lat="44.9531" lon="6.79373">
        <ele>1349</ele>
        <time>2019-04-18T15:16:40Z</time>
      </trkpt>
      <trkpt lat="44.95311" lon="6.79366">
        <ele>1348</ele>
        <time>2019-04-18T15:17:40Z</time>
      </trkpt>
      <trkpt lat="44.9531" lon="6.79361">
        <ele>1348</ele>
        <time>2019-04-18T15:18:40Z</time>
      </trkpt>
      <trkpt lat="44.95305" lon="6.79355">
        <ele>1348</ele>
        <time>2019-04-18T15:19:40Z</time>
      </trkpt>
      <trkpt lat="44.95304" lon="6.79348">
        <ele>1347</ele>
        <time>2019-04-18T15:20:40Z</time>
      </trkpt>
      <trkpt lat="44.95295" lon="6.79326">
        <ele>1347</ele>
        <time>2019-04-18T15:21:40Z</time>
      </trkpt>
      <trkpt lat="44.95231" lon="6.7919">
        <ele>1353</ele>
        <time>2019-04-18T15:22:40Z</time>
      </trkpt>
      <trkpt lat="44.95272" lon="6.79158">
        <ele>1351</ele>
        <time>2019-04-18T15:23:40Z</time>
      </trkpt>
      <trkpt lat="44.95392" lon="6.79045">
        <ele>1347</ele>
        <time>2019-04-18T15:24:40Z</time>
      </trkpt>
      <trkpt lat="44.95401" lon="6.79033">
        <ele>1347</ele>
        <time>2019-04-18T15:25:40Z</time>
      </trkpt>
      <trkpt lat="44.95406" lon="6.79039">
        <ele>1346</ele>
        <time>2019-04-18T15:26:40Z</time>
      </trkpt>
      <trkpt lat="44.95412" lon="6.7904">
        <ele>1346</ele>
        <time>2019-04-18T15:27:40Z</time>
      </trkpt>
      <trkpt lat="44.95418" lon="6.79035">
        <ele>1345</ele>
        <time>2019-04-18T15:28:40Z</time>
      </trkpt>
      <trkpt lat="44.9542" lon="6.79028">
        <ele>1345</ele>
        <time>2019-04-18T15:29:40Z</time>
      </trkpt>
      <trkpt lat="44.95418" lon="6.79019">
        <ele>1345</ele>
        <time>2019-04-18T15:30:40Z</time>
      </trkpt>
      <trkpt lat="44.95414" lon="6.79014">
        <ele>1345</ele>
        <time>2019-04-18T15:31:40Z</time>
      </trkpt>
      <trkpt lat="44.95405" lon="6.79014">
        <ele>1346</ele>
        <time>2019-04-18T15:32:40Z</time>
      </trkpt>
      <trkpt lat="44.95403" lon="6.79017">
        <ele>1346</ele>
        <time>2019-04-18T15:33:40Z</time>
      </trkpt>
      <trkpt lat="44.95306" lon="6.78924">
        <ele>1352</ele>
        <time>2019-04-18T15:34:40Z</time>
      </trkpt>
      <trkpt lat="44.95286" lon="6.78897">
        <ele>1354</ele>
        <time>2019-04-18T15:35:40Z</time>
      </trkpt>
      <trkpt lat="44.95217" lon="6.78753">
        <ele>1360</ele>
        <time>2019-04-18T15:36:40Z</time>
      </trkpt>
      <trkpt lat="44.95197" lon="6.78702">
        <ele>1366</ele>
        <time>2019-04-18T15:37:40Z</time>
      </trkpt>
      <trkpt lat="44.95168" lon="6.78591">
        <ele>1373</ele>
        <time>2019-04-18T15:38:40Z</time>
      </trkpt>
      <trkpt lat="44.95153" lon="6.78563">
        <ele>1376</ele>
        <time>2019-04-18T15:39:40Z</time>
      </trkpt>
      <trkpt lat="44.95143" lon="6.7855">
        <ele>1378</ele>
        <time>2019-04-18T15:40:40Z</time>
      </trkpt>
      <trkpt lat="44.95131" lon="6.7854">
        <ele>1379</ele>
        <time>2019-04-18T15:41:40Z</time>
      </trkpt>
      <trkpt lat="44.95116" lon="6.78532">
        <ele>1379</ele>
        <time>2019-04-18T15:42:40Z</time>
      </trkpt>
      <trkpt lat="44.95103" lon="6.78528">
        <ele>1379</ele>
        <time>2019-04-18T15:43:40Z</time>
      </trkpt>
      <trkpt lat="44.95091" lon="6.78527">
        <ele>1378</ele>
        <time>2019-04-18T15:44:40Z</time>
      </trkpt>
      <trkpt lat="44.95068" lon="6.78532">
        <ele>1381</ele>
        <time>2019-04-18T15:45:40Z</time>
      </trkpt>
      <trkpt lat="44.95058" lon="6.78538">
        <ele>1383</ele>
        <time>2019-04-18T15:46:40Z</time>
      </trkpt>
      <trkpt lat="44.95039" lon="6.78556">
        <ele>1385</ele>
        <time>2019-04-18T15:47:40Z</time>
      </trkpt>
      <trkpt lat="44.9503" lon="6.7857">
        <ele>1385</ele>
        <time>2019-04-18T15:48:40Z</time>
      </trkpt>
      <trkpt lat="44.95024" lon="6.78583">
        <ele>1384</ele>
        <time>2019-04-18T15:49:40Z</time>
      </trkpt>
      <trkpt lat="44.9502" lon="6.78596">
        <ele>1385</ele>
        <time>2019-04-18T15:50:40Z</time>
      </trkpt>
      <trkpt lat="44.95017" lon="6.78621">
        <ele>1384</ele>
        <time>2019-04-18T15:51:40Z</time>
      </trkpt>
      <trkpt lat="44.95017" lon="6.78641">
        <ele>1383</ele>
        <time>2019-04-18T15:52:40Z</time>
      </trkpt>
      <trkpt lat="44.95042" lon="6.78786">
        <ele>1376</ele>
        <time>2019-04-18T15:53:40Z</time>
      </trkpt>
      <trkpt lat="44.95042" lon="6.78813">
        <ele>1375</ele>
        <time>2019-04-18T15:54:40Z</time>
      </trkpt>
      <trkpt lat="44.9504" lon="6.78825">
        <ele>1375</ele>
        <time>2019-04-18T15:55:40Z</time>
      </trkpt>
      <trkpt lat="44.95031" lon="6.7885">
        <ele>1378</ele>
        <time>2019-04-18T15:56:40Z</time>
      </trkpt>
      <trkpt lat="44.95016" lon="6.78869">
        <ele>1382</ele>
        <time>2019-04-18T15:57:40Z</time>
      </trkpt>
      <trkpt lat="44.95005" lon="6.78876">
        <ele>1384</ele>
        <time>2019-04-18T15:58:40Z</time>
      </trkpt>
      <trkpt lat="44.94984" lon="6.78882">
        <ele>1390</ele>
        <time>2019-04-18T15:59:40Z</time>
      </trkpt>
      <trkpt lat="44.94972" lon="6.78881">
        <ele>1393</ele>
        <time>2019-04-18T16:00:40Z</time>
      </trkpt>
      <trkpt lat="44.94962" lon="6.78875">
        <ele>1396</ele>
        <time>2019-04-18T16:01:40Z</time>
      </trkpt>
      <trkpt lat="44.94956" lon="6.78867">
        <ele>1398</ele>
        <time>2019-04-18T16:02:40Z</time>
      </trkpt>
      <trkpt lat="44.94951" lon="6.78857">
        <ele>1399</ele>
        <time>2019-04-18T16:03:40Z</time>
      </trkpt>
      <trkpt lat="44.9495" lon="6.78844">
        <ele>1399</ele>
        <time>2019-04-18T16:04:40Z</time>
      </trkpt>
      <trkpt lat="44.94951" lon="6.78829">
        <ele>1399</ele>
        <time>2019-04-18T16:05:40Z</time>
      </trkpt>
      <trkpt lat="44.94966" lon="6.78772">
        <ele>1400</ele>
        <time>2019-04-18T16:06:40Z</time>
      </trkpt>
      <trkpt lat="44.9497" lon="6.78752">
        <ele>1400</ele>
        <time>2019-04-18T16:07:40Z</time>
      </trkpt>
      <trkpt lat="44.9497" lon="6.78732">
        <ele>1400</ele>
        <time>2019-04-18T16:08:40Z</time>
      </trkpt>
      <trkpt lat="44.94969" lon="6.78713">
        <ele>1399</ele>
        <time>2019-04-18T16:09:40Z</time>
      </trkpt>
      <trkpt lat="44.94962" lon="6.78679">
        <ele>1400</ele>
        <time>2019-04-18T16:10:40Z</time>
      </trkpt>
      <trkpt lat="44.94955" lon="6.78662">
        <ele>1402</ele>
        <time>2019-04-18T16:11:40Z</time>
      </trkpt>
      <trkpt lat="44.94945" lon="6.78647">
        <ele>1405</ele>
        <time>2019-04-18T16:12:40Z</time>
      </trkpt>
      <trkpt lat="44.9493" lon="6.78631">
        <ele>1409</ele>
        <time>2019-04-18T16:13:40Z</time>
      </trkpt>
      <trkpt lat="44.94902" lon="6.78609">
        <ele>1415</ele>
        <time>2019-04-18T16:14:40Z</time>
      </trkpt>
      <trkpt lat="44.9485" lon="6.78575">
        <ele>1423</ele>
        <time>2019-04-18T16:15:40Z</time>
      </trkpt>
      <trkpt lat="44.94839" lon="6.78561">
        <ele>1426</ele>
        <time>2019-04-18T16:16:40Z</time>
      </trkpt>
      <trkpt lat="44.94833" lon="6.78548">
        <ele>1428</ele>
        <time>2019-04-18T16:17:40Z</time>
      </trkpt>
      <trkpt lat="44.94832" lon="6.7853">
        <ele>1430</ele>
        <time>2019-04-18T16:18:40Z</time>
      </trkpt>
      <trkpt lat="44.94835" lon="6.78512">
        <ele>1430</ele>
        <time>2019-04-18T16:19:40Z</time>
      </trkpt>
      <trkpt lat="44.94842" lon="6.78497">
        <ele>1431</ele>
        <time>2019-04-18T16:20:40Z</time>
      </trkpt>
      <trkpt lat="44.94856" lon="6.78479">
        <ele>1433</ele>
        <time>2019-04-18T16:21:40Z</time>
      </trkpt>
      <trkpt lat="44.94881" lon="6.78454">
        <ele>1435</ele>
        <time>2019-04-18T16:22:40Z</time>
      </trkpt>
      <trkpt lat="44.94913" lon="6.78431">
        <ele>1437</ele>
        <time>2019-04-18T16:23:40Z</time>
      </trkpt>
      <trkpt lat="44.94939" lon="6.78416">
        <ele>1436</ele>
        <time>2019-04-18T16:24:40Z</time>
      </trkpt>
      <trkpt lat="44.9496" lon="6.78399">
        <ele>1434</ele>
        <time>2019-04-18T16:25:40Z</time>
      </trkpt>
      <trkpt lat="44.94974" lon="6.78373">
        <ele>1434</ele>
        <time>2019-04-18T16:26:40Z</time>
      </trkpt>
      <trkpt lat="44.94981" lon="6.78339">
        <ele>1435</ele>
        <time>2019-04-18T16:27:40Z</time>
      </trkpt>
      <trkpt lat="44.94983" lon="6.78296">
        <ele>1436</ele>
        <time>2019-04-18T16:28:40Z</time>
      </trkpt>
      <trkpt lat="44.94979" lon="6.78256">
        <ele>1437</ele>
        <time>2019-04-18T16:29:40Z</time>
      </trkpt>
      <trkpt lat="44.9497" lon="6.78222">
        <ele>1441</ele>
        <time>2019-04-18T16:30:40Z</time>
      </trkpt>
      <trkpt lat="44.94947" lon="6.7816">
        <ele>1449</ele>
        <time>2019-04-18T16:31:40Z</time>
      </trkpt>
      <trkpt lat="44.94934" lon="6.78131">
        <ele>1453</ele>
        <time>2019-04-18T16:32:40Z</time>
      </trkpt>
      <trkpt lat="44.9492" lon="6.7809">
        <ele>1457</ele>
        <time>2019-04-18T16:33:40Z</time>
      </trkpt>
      <trkpt lat="44.94902" lon="6.78023">
        <ele>1467</ele>
        <time>2019-04-18T16:34:40Z</time>
      </trkpt>
      <trkpt lat="44.94881" lon="6.77966">
        <ele>1477</ele>
        <time>2019-04-18T16:35:40Z</time>
      </trkpt>
      <trkpt lat="44.94847" lon="6.7789">
        <ele>1483</ele>
        <time>2019-04-18T16:36:40Z</time>
      </trkpt>
      <trkpt lat="44.94815" lon="6.77835">
        <ele>1486</ele>
        <time>2019-04-18T16:37:40Z</time>
      </trkpt>
      <trkpt lat="44.94797" lon="6.77818">
        <ele>1492</ele>
        <time>2019-04-18T16:38:40Z</time>
      </trkpt>
      <trkpt lat="44.94772" lon="6.77798">
        <ele>1496</ele>
        <time>2019-04-18T16:39:40Z</time>
      </trkpt>
      <trkpt lat="44.94719" lon="6.77747">
        <ele>1500</ele>
        <time>2019-04-18T16:40:40Z</time>
      </trkpt>
      <trkpt lat="44.94708" lon="6.77725">
        <ele>1505</ele>
        <time>2019-04-18T16:41:40Z</time>
      </trkpt>
      <trkpt lat="44.94703" lon="6.77697">
        <ele>1508</ele>
        <time>2019-04-18T16:42:40Z</time>
      </trkpt>
      <trkpt lat="44.94701" lon="6.77666">
        <ele>1510</ele>
        <time>2019-04-18T16:43:40Z</time>
      </trkpt>
      <trkpt lat="44.94707" lon="6.77509">
        <ele>1514</ele>
        <time>2019-04-18T16:44:40Z</time>
      </trkpt>
      <trkpt lat="44.94712" lon="6.77308">
        <ele>1518</ele>
        <time>2019-04-18T16:45:40Z</time>
      </trkpt>
      <trkpt lat="44.94717" lon="6.77251">
        <ele>1519</ele>
        <time>2019-04-18T16:46:40Z</time>
      </trkpt>
      <trkpt lat="44.9472" lon="6.77225">
        <ele>1519</ele>
        <time>2019-04-18T16:47:40Z</time>
      </trkpt>
      <trkpt lat="44.94728" lon="6.77205">
        <ele>1518</ele>
        <time>2019-04-18T16:48:40Z</time>
      </trkpt>
      <trkpt lat="44.94734" lon="6.77193">
        <ele>1516</ele>
        <time>2019-04-18T16:49:40Z</time>
      </trkpt>
      <trkpt lat="44.94744" lon="6.77183">
        <ele>1512</ele>
        <time>2019-04-18T16:50:40Z</time>
      </trkpt>
      <trkpt lat="44.94757" lon="6.77178">
        <ele>1513</ele>
        <time>2019-04-18T16:51:40Z</time>
      </trkpt>
      <trkpt lat="44.94772" lon="6.77179">
        <ele>1518</ele>
        <time>2019-04-18T16:52:40Z</time>
      </trkpt>
      <trkpt lat="44.94783" lon="6.77185">
        <ele>1521</ele>
        <time>2019-04-18T16:53:40Z</time>
      </trkpt>
      <trkpt lat="44.94798" lon="6.77201">
        <ele>1524</ele>
        <time>2019-04-18T16:54:40Z</time>
      </trkpt>
      <trkpt lat="44.94813" lon="6.77223">
        <ele>1525</ele>
        <time>2019-04-18T16:55:40Z</time>
      </trkpt>
      <trkpt lat="44.94837" lon="6.77254">
        <ele>1527</ele>
        <time>2019-04-18T16:56:40Z</time>
      </trkpt>
      <trkpt lat="44.94859" lon="6.77291">
        <ele>1530</ele>
        <time>2019-04-18T16:57:40Z</time>
      </trkpt>
      <trkpt lat="44.94872" lon="6.77323">
        <ele>1531</ele>
        <time>2019-04-18T16:58:40Z</time>
      </trkpt>
      <trkpt lat="44.94884" lon="6.7736">
        <ele>1533</ele>
        <time>2019-04-18T16:59:40Z</time>
      </trkpt>
      <trkpt lat="44.94905" lon="6.77473">
        <ele>1540</ele>
        <time>2019-04-18T17:00:40Z</time>
      </trkpt>
      <trkpt lat="44.94911" lon="6.77525">
        <ele>1543</ele>
        <time>2019-04-18T17:01:40Z</time>
      </trkpt>
      <trkpt lat="44.94921" lon="6.77567">
        <ele>1546</ele>
        <time>2019-04-18T17:02:40Z</time>
      </trkpt>
      <trkpt lat="44.94933" lon="6.77609">
        <ele>1548</ele>
        <time>2019-04-18T17:03:40Z</time>
      </trkpt>
      <trkpt lat="44.94952" lon="6.77651">
        <ele>1552</ele>
        <time>2019-04-18T17:04:40Z</time>
      </trkpt>
      <trkpt lat="44.94982" lon="6.77703">
        <ele>1551</ele>
        <time>2019-04-18T17:05:40Z</time>
      </trkpt>
      <trkpt lat="44.94997" lon="6.77722">
        <ele>1551</ele>
        <time>2019-04-18T17:06:40Z</time>
      </trkpt>
      <trkpt lat="44.95014" lon="6.77736">
        <ele>1552</ele>
        <time>2019-04-18T17:07:40Z</time>
      </trkpt>
      <trkpt lat="44.9503" lon="6.77744">
        <ele>1554</ele>
        <time>2019-04-18T17:08:40Z</time>
      </trkpt>
      <trkpt lat="44.95076" lon="6.77753">
        <ele>1565</ele>
        <time>2019-04-18T17:09:40Z</time>
      </trkpt>
      <trkpt lat="44.95089" lon="6.77759">
        <ele>1566</ele>
        <time>2019-04-18T17:10:40Z</time>
      </trkpt>
      <trkpt lat="44.95109" lon="6.77774">
        <ele>1568</ele>
        <time>2019-04-18T17:11:40Z</time>
      </trkpt>
      <trkpt lat="44.9514" lon="6.77806">
        <ele>1567</ele>
        <time>2019-04-18T17:12:40Z</time>
      </trkpt>
      <trkpt lat="44.95158" lon="6.77832">
        <ele>1564</ele>
        <time>2019-04-18T17:13:40Z</time>
      </trkpt>
      <trkpt lat="44.95175" lon="6.77874">
        <ele>1563</ele>
        <time>2019-04-18T17:14:40Z</time>
      </trkpt>
      <trkpt lat="44.95183" lon="6.77901">
        <ele>1562</ele>
        <time>2019-04-18T17:15:40Z</time>
      </trkpt>
      <trkpt lat="44.95192" lon="6.77912">
        <ele>1565</ele>
        <time>2019-04-18T17:16:40Z</time>
      </trkpt>
      <trkpt lat="44.95199" lon="6.77912">
        <ele>1568</ele>
        <time>2019-04-18T17:17:40Z</time>
      </trkpt>
      <trkpt lat="44.95205" lon="6.77907">
        <ele>1572</ele>
        <time>2019-04-18T17:18:40Z</time>
      </trkpt>
      <trkpt lat="44.95207" lon="6.77895">
        <ele>1575</ele>
        <time>2019-04-18T17:19:40Z</time>
      </trkpt>
      <trkpt lat="44.95204" lon="6.7787">
        <ele>1578</ele>
        <time>2019-04-18T17:20:40Z</time>
      </trkpt>
      <trkpt lat="44.95199" lon="6.77847">
        <ele>1579</ele>
        <time>2019-04-18T17:21:40Z</time>
      </trkpt>
      <trkpt lat="44.95191" lon="6.77827">
        <ele>1580</ele>
        <time>2019-04-18T17:22:40Z</time>
      </trkpt>
      <trkpt lat="44.95174" lon="6.77796">
        <ele>1584</ele>
        <time>2019-04-18T17:23:40Z</time>
      </trkpt>
      <trkpt lat="44.95111" lon="6.77715">
        <ele>1590</ele>
        <time>2019-04-18T17:24:40Z</time>
      </trkpt>
      <trkpt lat="44.95093" lon="6.77684">
        <ele>1594</ele>
        <time>2019-04-18T17:25:40Z</time>
      </trkpt>
      <trkpt lat="44.95077" lon="6.7765">
        <ele>1596</ele>
        <time>2019-04-18T17:26:40Z</time>
      </trkpt>
      <trkpt lat="44.95068" lon="6.77623">
        <ele>1595</ele>
        <time>2019-04-18T17:27:40Z</time>
      </trkpt>
      <trkpt lat="44.95065" lon="6.77595">
        <ele>1597</ele>
        <time>2019-04-18T17:28:40Z</time>
      </trkpt>
      <trkpt lat="44.95067" lon="6.77497">
        <ele>1605</ele>
        <time>2019-04-18T17:29:40Z</time>
      </trkpt>
      <trkpt lat="44.9507" lon="6.77457">
        <ele>1610</ele>
        <time>2019-04-18T17:30:40Z</time>
      </trkpt>
      <trkpt lat="44.95069" lon="6.77408">
        <ele>1616</ele>
        <time>2019-04-18T17:31:40Z</time>
      </trkpt>
      <trkpt lat="44.95054" lon="6.77333">
        <ele>1621</ele>
        <time>2019-04-18T17:32:40Z</time>
      </trkpt>
      <trkpt lat="44.95033" lon="6.77257">
        <ele>1626</ele>
        <time>2019-04-18T17:33:40Z</time>
      </trkpt>
      <trkpt lat="44.95004" lon="6.77166">
        <ele>1631</ele>
        <time>2019-04-18T17:34:40Z</time>
      </trkpt>
      <trkpt lat="44.94989" lon="6.7708">
        <ele>1639</ele>
        <time>2019-04-18T17:35:40Z</time>
      </trkpt>
      <trkpt lat="44.9498" lon="6.76997">
        <ele>1651</ele>
        <time>2019-04-18T17:36:40Z</time>
      </trkpt>
      <trkpt lat="44.94973" lon="6.76969">
        <ele>1654</ele>
        <time>2019-04-18T17:37:40Z</time>
      </trkpt>
      <trkpt lat="44.94964" lon="6.7695">
        <ele>1655</ele>
        <time>2019-04-18T17:38:40Z</time>
      </trkpt>
      <trkpt lat="44.94934" lon="6.76915">
        <ele>1648</ele>
        <time>2019-04-18T17:39:40Z</time>
      </trkpt>
      <trkpt lat="44.94902" lon="6.76861">
        <ele>1652</ele>
        <time>2019-04-18T17:40:40Z</time>
      </trkpt>
      <trkpt lat="44.94766" lon="6.76603">
        <ele>1676</ele>
        <time>2019-04-18T17:41:40Z</time>
      </trkpt>
      <trkpt lat="44.9474" lon="6.76548">
        <ele>1684</ele>
        <time>2019-04-18T17:42:40Z</time>
      </trkpt>
      <trkpt lat="44.94719" lon="6.76515">
        <ele>1691</ele>
        <time>2019-04-18T17:43:40Z</time>
      </trkpt>
      <trkpt lat="44.94698" lon="6.76496">
        <ele>1693</ele>
        <time>2019-04-18T17:44:40Z</time>
      </trkpt>
      <trkpt lat="44.94682" lon="6.76489">
        <ele>1692</ele>
        <time>2019-04-18T17:45:40Z</time>
      </trkpt>
      <trkpt lat="44.94643" lon="6.76482">
        <ele>1688</ele>
        <time>2019-04-18T17:46:40Z</time>
      </trkpt>
      <trkpt lat="44.9456" lon="6.76488">
        <ele>1669</ele>
        <time>2019-04-18T17:47:40Z</time>
      </trkpt>
      <trkpt lat="44.9455" lon="6.76486">
        <ele>1666</ele>
        <time>2019-04-18T17:48:40Z</time>
      </trkpt>
      <trkpt lat="44.94541" lon="6.7648">
        <ele>1665</ele>
        <time>2019-04-18T17:49:40Z</time>
      </trkpt>
      <trkpt lat="44.94525" lon="6.76462">
        <ele>1667</ele>
        <time>2019-04-18T17:50:40Z</time>
      </trkpt>
      <trkpt lat="44.94516" lon="6.76436">
        <ele>1675</ele>
        <time>2019-04-18T17:51:40Z</time>
      </trkpt>
      <trkpt lat="44.94512" lon="6.76386">
        <ele>1694</ele>
        <time>2019-04-18T17:52:40Z</time>
      </trkpt>
      <trkpt lat="44.9451" lon="6.76372">
        <ele>1699</ele>
        <time>2019-04-18T17:53:40Z</time>
      </trkpt>
      <trkpt lat="44.94504" lon="6.76353">
        <ele>1703</ele>
        <time>2019-04-18T17:54:40Z</time>
      </trkpt>
      <trkpt lat="44.94482" lon="6.76311">
        <ele>1711</ele>
        <time>2019-04-18T17:55:40Z</time>
      </trkpt>
      <trkpt lat="44.94467" lon="6.76291">
        <ele>1711</ele>
        <time>2019-04-18T17:56:40Z</time>
      </trkpt>
      <trkpt lat="44.94456" lon="6.76278">
        <ele>1710</ele>
        <time>2019-04-18T17:57:40Z</time>
      </trkpt>
      <trkpt lat="44.94434" lon="6.76261">
        <ele>1701</ele>
        <time>2019-04-18T17:58:40Z</time>
      </trkpt>
      <trkpt lat="44.94409" lon="6.76233">
        <ele>1696</ele>
        <time>2019-04-18T17:59:40Z</time>
      </trkpt>
      <trkpt lat="44.94403" lon="6.76221">
        <ele>1697</ele>
        <time>2019-04-18T18:00:40Z</time>
      </trkpt>
      <trkpt lat="44.94398" lon="6.76206">
        <ele>1701</ele>
        <time>2019-04-18T18:01:40Z</time>
      </trkpt>
      <trkpt lat="44.94396" lon="6.76189">
        <ele>1708</ele>
        <time>2019-04-18T18:02:40Z</time>
      </trkpt>
      <trkpt lat="44.94396" lon="6.76147">
        <ele>1725</ele>
        <time>2019-04-18T18:03:40Z</time>
      </trkpt>
      <trkpt lat="44.94394" lon="6.76132">
        <ele>1728</ele>
        <time>2019-04-18T18:04:40Z</time>
      </trkpt>
      <trkpt lat="44.94383" lon="6.76111">
        <ele>1727</ele>
        <time>2019-04-18T18:05:40Z</time>
      </trkpt>
      <trkpt lat="44.94367" lon="6.76065">
        <ele>1730</ele>
        <time>2019-04-18T18:06:40Z</time>
      </trkpt>
      <trkpt lat="44.94364" lon="6.76044">
        <ele>1734</ele>
        <time>2019-04-18T18:07:40Z</time>
      </trkpt>
      <trkpt lat="44.94358" lon="6.75993">
        <ele>1745</ele>
        <time>2019-04-18T18:08:40Z</time>
      </trkpt>
      <trkpt lat="44.94348" lon="6.75961">
        <ele>1745</ele>
        <time>2019-04-18T18:09:40Z</time>
      </trkpt>
      <trkpt lat="44.94329" lon="6.75931">
        <ele>1741</ele>
        <time>2019-04-18T18:10:40Z</time>
      </trkpt>
      <trkpt lat="44.94319" lon="6.75922">
        <ele>1742</ele>
        <time>2019-04-18T18:11:40Z</time>
      </trkpt>
      <trkpt lat="44.94293" lon="6.75908">
        <ele>1744</ele>
        <time>2019-04-18T18:12:40Z</time>
      </trkpt>
      <trkpt lat="44.94263" lon="6.75886">
        <ele>1747</ele>
        <time>2019-04-18T18:13:40Z</time>
      </trkpt>
      <trkpt lat="44.9423" lon="6.75855">
        <ele>1746</ele>
        <time>2019-04-18T18:14:40Z</time>
      </trkpt>
      <trkpt lat="44.94219" lon="6.7584">
        <ele>1746</ele>
        <time>2019-04-18T18:15:40Z</time>
      </trkpt>
      <trkpt lat="44.9421" lon="6.75824">
        <ele>1747</ele>
        <time>2019-04-18T18:16:40Z</time>
      </trkpt>
      <trkpt lat="44.94206" lon="6.75811">
        <ele>1748</ele>
        <time>2019-04-18T18:17:40Z</time>
      </trkpt>
      <trkpt lat="44.94198" lon="6.75805">
        <ele>1748</ele>
        <time>2019-04-18T18:18:40Z</time>
      </trkpt>
      <trkpt lat="44.9419" lon="6.75806">
        <ele>1747</ele>
        <time>2019-04-18T18:19:40Z</time>
      </trkpt>
      <trkpt lat="44.94174" lon="6.75801">
        <ele>1746</ele>
        <time>2019-04-18T18:20:40Z</time>
      </trkpt>
      <trkpt lat="44.94159" lon="6.75792">
        <ele>1745</ele>
        <time>2019-04-18T18:21:40Z</time>
      </trkpt>
      <trkpt lat="44.94116" lon="6.75719">
        <ele>1744</ele>
        <time>2019-04-18T18:22:40Z</time>
      </trkpt>
      <trkpt lat="44.94111" lon="6.75705">
        <ele>1744</ele>
        <time>2019-04-18T18:23:40Z</time>
      </trkpt>
      <trkpt lat="44.94108" lon="6.75674">
        <ele>1746</ele>
        <time>2019-04-18T18:24:40Z</time>
      </trkpt>
      <trkpt lat="44.94109" lon="6.75657">
        <ele>1748</ele>
        <time>2019-04-18T18:25:40Z</time>
      </trkpt>
      <trkpt lat="44.94114" lon="6.75619">
        <ele>1750</ele>
        <time>2019-04-18T18:26:40Z</time>
      </trkpt>
      <trkpt lat="44.94115" lon="6.75605">
        <ele>1751</ele>
        <time>2019-04-18T18:27:40Z</time>
      </trkpt>
      <trkpt lat="44.94113" lon="6.75584">
        <ele>1751</ele>
        <time>2019-04-18T18:28:40Z</time>
      </trkpt>
      <trkpt lat="44.94109" lon="6.75569">
        <ele>1752</ele>
        <time>2019-04-18T18:29:40Z</time>
      </trkpt>
      <trkpt lat="44.94039" lon="6.75372">
        <ele>1758</ele>
        <time>2019-04-18T18:30:40Z</time>
      </trkpt>
      <trkpt lat="44.94033" lon="6.75349">
        <ele>1759</ele>
        <time>2019-04-18T18:31:40Z</time>
      </trkpt>
      <trkpt lat="44.94027" lon="6.75315">
        <ele>1760</ele>
        <time>2019-04-18T18:32:40Z</time>
      </trkpt>
      <trkpt lat="44.94018" lon="6.75254">
        <ele>1761</ele>
        <time>2019-04-18T18:33:40Z</time>
      </trkpt>
      <trkpt lat="44.94008" lon="6.75216">
        <ele>1761</ele>
        <time>2019-04-18T18:34:40Z</time>
      </trkpt>
      <trkpt lat="44.93998" lon="6.75191">
        <ele>1760</ele>
        <time>2019-04-18T18:35:40Z</time>
      </trkpt>
      <trkpt lat="44.93988" lon="6.75171">
        <ele>1761</ele>
        <time>2019-04-18T18:36:40Z</time>
      </trkpt>
      <trkpt lat="44.93975" lon="6.75149">
        <ele>1764</ele>
        <time>2019-04-18T18:37:40Z</time>
      </trkpt>
      <trkpt lat="44.93896" lon="6.75029">
        <ele>1766</ele>
        <time>2019-04-18T18:38:40Z</time>
      </trkpt>
      <trkpt lat="44.93736" lon="6.74798">
        <ele>1774</ele>
        <time>2019-04-18T18:39:40Z</time>
      </trkpt>
      <trkpt lat="44.93716" lon="6.74773">
        <ele>1775</ele>
        <time>2019-04-18T18:40:40Z</time>
      </trkpt>
      <trkpt lat="44.93677" lon="6.74699">
        <ele>1780</ele>
        <time>2019-04-18T18:41:40Z</time>
      </trkpt>
      <trkpt lat="44.93653" lon="6.74618">
        <ele>1787</ele>
        <time>2019-04-18T18:42:40Z</time>
      </trkpt>
      <trkpt lat="44.93645" lon="6.74593">
        <ele>1789</ele>
        <time>2019-04-18T18:43:40Z</time>
      </trkpt>
      <trkpt lat="44.93624" lon="6.74557">
        <ele>1789</ele>
        <time>2019-04-18T18:44:40Z</time>
      </trkpt>
      <trkpt lat="44.93615" lon="6.74529">
        <ele>1791</ele>
        <time>2019-04-18T18:45:40Z</time>
      </trkpt>
      <trkpt lat="44.93546" lon="6.74403">
        <ele>1793</ele>
        <time>2019-04-18T18:46:40Z</time>
      </trkpt>
      <trkpt lat="44.93537" lon="6.74364">
        <ele>1793</ele>
        <time>2019-04-18T18:47:40Z</time>
      </trkpt>
      <trkpt lat="44.93537" lon="6.74304">
        <ele>1799</ele>
        <time>2019-04-18T18:48:40Z</time>
      </trkpt>
      <trkpt lat="44.93535" lon="6.74278">
        <ele>1802</ele>
        <time>2019-04-18T18:49:40Z</time>
      </trkpt>
      <trkpt lat="44.93521" lon="6.74251">
        <ele>1804</ele>
        <time>2019-04-18T18:50:40Z</time>
      </trkpt>
      <trkpt lat="44.93497" lon="6.74235">
        <ele>1805</ele>
        <time>2019-04-18T18:51:40Z</time>
      </trkpt>
      <trkpt lat="44.93439" lon="6.74211">
        <ele>1804</ele>
        <time>2019-04-18T18:52:40Z</time>
      </trkpt>
      <trkpt lat="44.9342" lon="6.74197">
        <ele>1804</ele>
        <time>2019-04-18T18:53:40Z</time>
      </trkpt>
      <trkpt lat="44.93405" lon="6.74165">
        <ele>1807</ele>
        <time>2019-04-18T18:54:40Z</time>
      </trkpt>
      <trkpt lat="44.93388" lon="6.74084">
        <ele>1813</ele>
        <time>2019-04-18T18:55:40Z</time>
      </trkpt>
      <trkpt lat="44.93359" lon="6.73987">
        <ele>1814</ele>
        <time>2019-04-18T18:56:40Z</time>
      </trkpt>
      <trkpt lat="44.93348" lon="6.73863">
        <ele>1820</ele>
        <time>2019-04-18T18:57:40Z</time>
      </trkpt>
      <trkpt lat="44.9334" lon="6.73811">
        <ele>1822</ele>
        <time>2019-04-18T18:58:40Z</time>
      </trkpt>
      <trkpt lat="44.93309" lon="6.73664">
        <ele>1830</ele>
        <time>2019-04-18T18:59:40Z</time>
      </trkpt>
      <trkpt lat="44.93306" lon="6.73616">
        <ele>1832</ele>
        <time>2019-04-18T19:00:40Z</time>
      </trkpt>
      <trkpt lat="44.9331" lon="6.73541">
        <ele>1836</ele>
        <time>2019-04-18T19:01:40Z</time>
      </trkpt>
      <trkpt lat="44.93315" lon="6.73488">
        <ele>1837</ele>
        <time>2019-04-18T19:02:40Z</time>
      </trkpt>
      <trkpt lat="44.93318" lon="6.73474">
        <ele>1837</ele>
        <time>2019-04-18T19:03:40Z</time>
      </trkpt>
      <trkpt lat="44.93328" lon="6.73448">
        <ele>1838</ele>
        <time>2019-04-18T19:04:40Z</time>
      </trkpt>
      <trkpt lat="44.93367" lon="6.73382">
        <ele>1841</ele>
        <time>2019-04-18T19:05:40Z</time>
      </trkpt>
      <trkpt lat="44.93375" lon="6.73365">
        <ele>1843</ele>
        <time>2019-04-18T19:06:40Z</time>
      </trkpt>
      <trkpt lat="44.93385" lon="6.73336">
        <ele>1844</ele>
        <time>2019-04-18T19:07:40Z</time>
      </trkpt>
      <trkpt lat="44.93421" lon="6.73192">
        <ele>1847</ele>
        <time>2019-04-18T19:08:40Z</time>
      </trkpt>
      <trkpt lat="44.93423" lon="6.73178">
        <ele>1848</ele>
        <time>2019-04-18T19:09:40Z</time>
      </trkpt>
      <trkpt lat="44.93423" lon="6.73156">
        <ele>1848</ele>
        <time>2019-04-18T19:10:40Z</time>
      </trkpt>
      <trkpt lat="44.93414" lon="6.73121">
        <ele>1847</ele>
        <time>2019-04-18T19:11:40Z</time>
      </trkpt>
      <trkpt lat="44.93374" lon="6.73001">
        <ele>1849</ele>
        <time>2019-04-18T19:12:40Z</time>
      </trkpt>
      <trkpt lat="44.93348" lon="6.72919">
        <ele>1850</ele>
        <time>2019-04-18T19:13:40Z</time>
      </trkpt>
      <trkpt lat="44.93329" lon="6.72883">
        <ele>1850</ele>
        <time>2019-04-18T19:14:40Z</time>
      </trkpt>
      <trkpt lat="44.93288" lon="6.72823">
        <ele>1849</ele>
        <time>2019-04-18T19:15:40Z</time>
      </trkpt>
      <trkpt lat="44.93291" lon="6.72819">
        <ele>1849</ele>
        <time>2019-04-18T19:16:40Z</time>
      </trkpt>
      <trkpt lat="44.93293" lon="6.72805">
        <ele>1850</ele>
        <time>2019-04-18T19:17:40Z</time>
      </trkpt>
      <trkpt lat="44.93292" lon="6.72798">
        <ele>1850</ele>
        <time>2019-04-18T19:18:40Z</time>
      </trkpt>
      <trkpt lat="44.93288" lon="6.72792">
        <ele>1850</ele>
        <time>2019-04-18T19:19:40Z</time>
      </trkpt>
      <trkpt lat="44.93282" lon="6.72787">
        <ele>1850</ele>
        <time>2019-04-18T19:20:40Z</time>
      </trkpt>
      <trkpt lat="44.93285" lon="6.72775">
        <ele>1851</ele>
        <time>2019-04-18T19:21:40Z</time>
      </trkpt>
      <trkpt lat="44.93286" lon="6.72763">
        <ele>1851</ele>
        <time>2019-04-18T19:22:40Z</time>
      </trkpt>
      <trkpt lat="44.93284" lon="6.72753">
        <ele>1852</ele>
        <time>2019-04-18T19:23:40Z</time>
      </trkpt>
      <trkpt lat="44.93278" lon="6.72741">
        <ele>1852</ele>
        <time>2019-04-18T19:24:40Z</time>
      </trkpt>
      <trkpt lat="44.93155" lon="6.7254">
        <ele>1854</ele>
        <time>2019-04-18T19:25:40Z</time>
      </trkpt>
      <trkpt lat="44.9314" lon="6.72508">
        <ele>1854</ele>
        <time>2019-04-18T19:26:40Z</time>
      </trkpt>
      <trkpt lat="44.93123" lon="6.72455">
        <ele>1854</ele>
        <time>2019-04-18T19:27:40Z</time>
      </trkpt>
      <trkpt lat="44.93097" lon="6.72345">
        <ele>1854</ele>
        <time>2019-04-18T19:28:40Z</time>
      </trkpt>
      <trkpt lat="44.93043" lon="6.72154">
        <ele>1850</ele>
        <time>2019-04-18T19:29:40Z</time>
      </trkpt>
      <trkpt lat="44.92961" lon="6.71888">
        <ele>1838</ele>
        <time>2019-04-18T19:30:40Z</time>
      </trkpt>
      <trkpt lat="44.92957" lon="6.7188">
        <ele>1838</ele>
        <time>2019-04-18T19:31:40Z</time>
      </trkpt>
      <trkpt lat="44.92949" lon="6.71876">
        <ele>1837</ele>
        <time>2019-04-18T19:32:40Z</time>
      </trkpt>
      <trkpt lat="44.92938" lon="6.71879">
        <ele>1836</ele>
        <time>2019-04-18T19:33:40Z</time>
      </trkpt>
      <trkpt lat="44.92931" lon="6.71886">
        <ele>1836</ele>
        <time>2019-04-18T19:34:40Z</time>
      </trkpt>
      <trkpt lat="44.92927" lon="6.71876">
        <ele>1835</ele>
        <time>2019-04-18T19:35:40Z</time>
      </trkpt>
      <trkpt lat="44.92923" lon="6.71869">
        <ele>1834</ele>
        <time>2019-04-18T19:36:40Z</time>
      </trkpt>
      <trkpt lat="44.92917" lon="6.71847">
        <ele>1831</ele>
        <time>2019-04-18T19:37:40Z</time>
      </trkpt>
      <trkpt lat="44.92914" lon="6.71813">
        <ele>1829</ele>
        <time>2019-04-18T19:38:40Z</time>
      </trkpt>
      <trkpt lat="44.9292" lon="6.71722">
        <ele>1824</ele>
        <time>2019-04-18T19:39:40Z</time>
      </trkpt>
      <trkpt lat="44.92918" lon="6.71705">
        <ele>1823</ele>
        <time>2019-04-18T19:40:40Z</time>
      </trkpt>
      <trkpt lat="44.92877" lon="6.7143">
        <ele>1807</ele>
        <time>2019-04-18T19:41:40Z</time>
      </trkpt>
      <trkpt lat="44.92842" lon="6.71284">
        <ele>1800</ele>
        <time>2019-04-18T19:42:40Z</time>
      </trkpt>
      <trkpt lat="44.92781" lon="6.71109">
        <ele>1793</ele>
        <time>2019-04-18T19:43:40Z</time>
      </trkpt>
      <trkpt lat="44.92766" lon="6.71033">
        <ele>1786</ele>
        <time>2019-04-18T19:44:40Z</time>
      </trkpt>
      <trkpt lat="44.92758" lon="6.71007">
        <ele>1782</ele>
        <time>2019-04-18T19:45:40Z</time>
      </trkpt>
      <trkpt lat="44.92747" lon="6.70977">
        <ele>1780</ele>
        <time>2019-04-18T19:46:40Z</time>
      </trkpt>
      <trkpt lat="44.9272" lon="6.7092">
        <ele>1778</ele>
        <time>2019-04-18T19:47:40Z</time>
      </trkpt>
      <trkpt lat="44.92714" lon="6.70896">
        <ele>1776</ele>
        <time>2019-04-18T19:48:40Z</time>
      </trkpt>
      <trkpt lat="44.92711" lon="6.70877">
        <ele>1775</ele>
        <time>2019-04-18T19:49:40Z</time>
      </trkpt>
      <trkpt lat="44.92714" lon="6.70856">
        <ele>1775</ele>
        <time>2019-04-18T19:50:40Z</time>
      </trkpt>
      <trkpt lat="44.92712" lon="6.70834">
        <ele>1774</ele>
        <time>2019-04-18T19:51:40Z</time>
      </trkpt>
      <trkpt lat="44.92706" lon="6.7081">
        <ele>1771</ele>
        <time>2019-04-18T19:52:40Z</time>
      </trkpt>
      <trkpt lat="44.92689" lon="6.70769">
        <ele>1763</ele>
        <time>2019-04-18T19:53:40Z</time>
      </trkpt>
      <trkpt lat="44.92682" lon="6.70747">
        <ele>1760</ele>
        <time>2019-04-18T19:54:40Z</time>
      </trkpt>
      <trkpt lat="44.92678" lon="6.70724">
        <ele>1757</ele>
        <time>2019-04-18T19:55:40Z</time>
      </trkpt>
      <trkpt lat="44.92676" lon="6.70699">
        <ele>1754</ele>
        <time>2019-04-18T19:56:40Z</time>
      </trkpt>
      <trkpt lat="44.92677" lon="6.70675">
        <ele>1752</ele>
        <time>2019-04-18T19:57:40Z</time>
      </trkpt>
      <trkpt lat="44.92682" lon="6.70645">
        <ele>1752</ele>
        <time>2019-04-18T19:58:40Z</time>
      </trkpt>
      <trkpt lat="44.92721" lon="6.70461">
        <ele>1748</ele>
        <time>2019-04-18T19:59:40Z</time>
      </trkpt>
      <trkpt lat="44.92727" lon="6.70443">
        <ele>1747</ele>
        <time>2019-04-18T20:00:40Z</time>
      </trkpt>
      <trkpt lat="44.92736" lon="6.70425">
        <ele>1748</ele>
        <time>2019-04-18T20:01:40Z</time>
      </trkpt>
      <trkpt lat="44.92739" lon="6.7041">
        <ele>1748</ele>
        <time>2019-04-18T20:02:40Z</time>
      </trkpt>
      <trkpt lat="44.92738" lon="6.70392">
        <ele>1750</ele>
        <time>2019-04-18T20:03:40Z</time>
      </trkpt>
      <trkpt lat="44.9273" lon="6.70372">
        <ele>1748</ele>
        <time>2019-04-18T20:04:40Z</time>
      </trkpt>
      <trkpt lat="44.92702" lon="6.70331">
        <ele>1738</ele>
        <time>2019-04-18T20:05:40Z</time>
      </trkpt>
      <trkpt lat="44.92694" lon="6.70314">
        <ele>1735</ele>
        <time>2019-04-18T20:06:40Z</time>
      </trkpt>
      <trkpt lat="44.92689" lon="6.70295">
        <ele>1734</ele>
        <time>2019-04-18T20:07:40Z</time>
      </trkpt>
      <trkpt lat="44.92686" lon="6.70276">
        <ele>1733</ele>
        <time>2019-04-18T20:08:40Z</time>
      </trkpt>
      <trkpt lat="44.92689" lon="6.70257">
        <ele>1736</ele>
        <time>2019-04-18T20:09:40Z</time>
      </trkpt>
      <trkpt lat="44.92686" lon="6.70238">
        <ele>1735</ele>
        <time>2019-04-18T20:10:40Z</time>
      </trkpt>
      <trkpt lat="44.9268" lon="6.70223">
        <ele>1732</ele>
        <time>2019-04-18T20:11:40Z</time>
      </trkpt>
      <trkpt lat="44.9267" lon="6.70209">
        <ele>1727</ele>
        <time>2019-04-18T20:12:40Z</time>
      </trkpt>
      <trkpt lat="44.92662" lon="6.70194">
        <ele>1724</ele>
        <time>2019-04-18T20:13:40Z</time>
      </trkpt>
      <trkpt lat="44.92659" lon="6.70175">
        <ele>1723</ele>
        <time>2019-04-18T20:14:40Z</time>
      </trkpt>
      <trkpt lat="44.92664" lon="6.70113">
        <ele>1724</ele>
        <time>2019-04-18T20:15:40Z</time>
      </trkpt>
      <trkpt lat="44.92664" lon="6.70092">
        <ele>1723</ele>
        <time>2019-04-18T20:16:40Z</time>
      </trkpt>
      <trkpt lat="44.92655" lon="6.70059">
        <ele>1717</ele>
        <time>2019-04-18T20:17:40Z</time>
      </trkpt>
      <trkpt lat="44.92655" lon="6.70034">
        <ele>1716</ele>
        <time>2019-04-18T20:18:40Z</time>
      </trkpt>
      <trkpt lat="44.92673" lon="6.69942">
        <ele>1720</ele>
        <time>2019-04-18T20:19:40Z</time>
      </trkpt>
      <trkpt lat="44.9267" lon="6.69909">
        <ele>1715</ele>
        <time>2019-04-18T20:20:40Z</time>
      </trkpt>
      <trkpt lat="44.92665" lon="6.69876">
        <ele>1709</ele>
        <time>2019-04-18T20:21:40Z</time>
      </trkpt>
      <trkpt lat="44.92663" lon="6.69848">
        <ele>1705</ele>
        <time>2019-04-18T20:22:40Z</time>
      </trkpt>
      <trkpt lat="44.92669" lon="6.69824">
        <ele>1704</ele>
        <time>2019-04-18T20:23:40Z</time>
      </trkpt>
      <trkpt lat="44.92688" lon="6.6981">
        <ele>1711</ele>
        <time>2019-04-18T20:24:40Z</time>
      </trkpt>
      <trkpt lat="44.927" lon="6.69798">
        <ele>1715</ele>
        <time>2019-04-18T20:25:40Z</time>
      </trkpt>
      <trkpt lat="44.92708" lon="6.69772">
        <ele>1715</ele>
        <time>2019-04-18T20:26:40Z</time>
      </trkpt>
      <trkpt lat="44.92707" lon="6.69741">
        <ele>1710</ele>
        <time>2019-04-18T20:27:40Z</time>
      </trkpt>
      <trkpt lat="44.92694" lon="6.69684">
        <ele>1699</ele>
        <time>2019-04-18T20:28:40Z</time>
      </trkpt>
      <trkpt lat="44.92695" lon="6.69662">
        <ele>1698</ele>
        <time>2019-04-18T20:29:40Z</time>
      </trkpt>
      <trkpt lat="44.92717" lon="6.69538">
        <ele>1686</ele>
        <time>2019-04-18T20:30:40Z</time>
      </trkpt>
      <trkpt lat="44.92725" lon="6.69524">
        <ele>1686</ele>
        <time>2019-04-18T20:31:40Z</time>
      </trkpt>
      <trkpt lat="44.92742" lon="6.69516">
        <ele>1690</ele>
        <time>2019-04-18T20:32:40Z</time>
      </trkpt>
      <trkpt lat="44.9278" lon="6.69484">
        <ele>1686</ele>
        <time>2019-04-18T20:33:40Z</time>
      </trkpt>
      <trkpt lat="44.92793" lon="6.69483">
        <ele>1686</ele>
        <time>2019-04-18T20:34:40Z</time>
      </trkpt>
      <trkpt lat="44.92841" lon="6.69497">
        <ele>1692</ele>
        <time>2019-04-18T20:35:40Z</time>
      </trkpt>
      <trkpt lat="44.92862" lon="6.69496">
        <ele>1691</ele>
        <time>2019-04-18T20:36:40Z</time>
      </trkpt>
      <trkpt lat="44.92943" lon="6.69461">
        <ele>1675</ele>
        <time>2019-04-18T20:37:40Z</time>
      </trkpt>
      <trkpt lat="44.92959" lon="6.69459">
        <ele>1674</ele>
        <time>2019-04-18T20:38:40Z</time>
      </trkpt>
      <trkpt lat="44.93002" lon="6.69457">
        <ele>1673</ele>
        <time>2019-04-18T20:39:40Z</time>
      </trkpt>
      <trkpt lat="44.93038" lon="6.69462">
        <ele>1675</ele>
        <time>2019-04-18T20:40:40Z</time>
      </trkpt>
      <trkpt lat="44.93044" lon="6.6946">
        <ele>1674</ele>
        <time>2019-04-18T20:41:40Z</time>
      </trkpt>
      <trkpt lat="44.93045" lon="6.69452">
        <ele>1670</ele>
        <time>2019-04-18T20:42:40Z</time>
      </trkpt>
      <trkpt lat="44.93042" lon="6.69447">
        <ele>1668</ele>
        <time>2019-04-18T20:43:40Z</time>
      </trkpt>
      <trkpt lat="44.93035" lon="6.69444">
        <ele>1667</ele>
        <time>2019-04-18T20:44:40Z</time>
      </trkpt>
      <trkpt lat="44.92988" lon="6.69441">
        <ele>1666</ele>
        <time>2019-04-18T20:45:40Z</time>
      </trkpt>
      <trkpt lat="44.92945" lon="6.69431">
        <ele>1663</ele>
        <time>2019-04-18T20:46:40Z</time>
      </trkpt>
      <trkpt lat="44.9293" lon="6.69431">
        <ele>1663</ele>
        <time>2019-04-18T20:47:40Z</time>
      </trkpt>
      <trkpt lat="44.92899" lon="6.69445">
        <ele>1671</ele>
        <time>2019-04-18T20:48:40Z</time>
      </trkpt>
      <trkpt lat="44.92889" lon="6.69447">
        <ele>1672</ele>
        <time>2019-04-18T20:49:40Z</time>
      </trkpt>
      <trkpt lat="44.92881" lon="6.69445">
        <ele>1673</ele>
        <time>2019-04-18T20:50:40Z</time>
      </trkpt>
      <trkpt lat="44.92873" lon="6.69439">
        <ele>1671</ele>
        <time>2019-04-18T20:51:40Z</time>
      </trkpt>
      <trkpt lat="44.92866" lon="6.69406">
        <ele>1661</ele>
        <time>2019-04-18T20:52:40Z</time>
      </trkpt>
      <trkpt lat="44.92859" lon="6.69388">
        <ele>1656</ele>
        <time>2019-04-18T20:53:40Z</time>
      </trkpt>
      <trkpt lat="44.92846" lon="6.6937">
        <ele>1651</ele>
        <time>2019-04-18T20:54:40Z</time>
      </trkpt>
      <trkpt lat="44.92832" lon="6.69357">
        <ele>1648</ele>
        <time>2019-04-18T20:55:40Z</time>
      </trkpt>
      <trkpt lat="44.92817" lon="6.69348">
        <ele>1647</ele>
        <time>2019-04-18T20:56:40Z</time>
      </trkpt>
      <trkpt lat="44.92801" lon="6.69334">
        <ele>1646</ele>
        <time>2019-04-18T20:57:40Z</time>
      </trkpt>
      <trkpt lat="44.92751" lon="6.69274">
        <ele>1635</ele>
        <time>2019-04-18T20:58:40Z</time>
      </trkpt>
      <trkpt lat="44.92737" lon="6.69262">
        <ele>1628</ele>
        <time>2019-04-18T20:59:40Z</time>
      </trkpt>
      <trkpt lat="44.92728" lon="6.69258">
        <ele>1625</ele>
        <time>2019-04-18T21:00:40Z</time>
      </trkpt>
      <trkpt lat="44.92713" lon="6.69258">
        <ele>1622</ele>
        <time>2019-04-18T21:01:40Z</time>
      </trkpt>
      <trkpt lat="44.927" lon="6.6927">
        <ele>1622</ele>
        <time>2019-04-18T21:02:40Z</time>
      </trkpt>
      <trkpt lat="44.9269" lon="6.69284">
        <ele>1622</ele>
        <time>2019-04-18T21:03:40Z</time>
      </trkpt>
      <trkpt lat="44.92686" lon="6.69305">
        <ele>1624</ele>
        <time>2019-04-18T21:04:40Z</time>
      </trkpt>
      <trkpt lat="44.92688" lon="6.69327">
        <ele>1629</ele>
        <time>2019-04-18T21:05:40Z</time>
      </trkpt>
      <trkpt lat="44.92696" lon="6.69362">
        <ele>1638</ele>
        <time>2019-04-18T21:06:40Z</time>
      </trkpt>
      <trkpt lat="44.92696" lon="6.69378">
        <ele>1641</ele>
        <time>2019-04-18T21:07:40Z</time>
      </trkpt>
      <trkpt lat="44.9269" lon="6.69397">
        <ele>1642</ele>
        <time>2019-04-18T21:08:40Z</time>
      </trkpt>
      <trkpt lat="44.9263" lon="6.69447">
        <ele>1627</ele>
        <time>2019-04-18T21:09:40Z</time>
      </trkpt>
      <trkpt lat="44.92603" lon="6.6946">
        <ele>1617</ele>
        <time>2019-04-18T21:10:40Z</time>
      </trkpt>
      <trkpt lat="44.92594" lon="6.69467">
        <ele>1615</ele>
        <time>2019-04-18T21:11:40Z</time>
      </trkpt>
      <trkpt lat="44.92585" lon="6.69483">
        <ele>1615</ele>
        <time>2019-04-18T21:12:40Z</time>
      </trkpt>
      <trkpt lat="44.92581" lon="6.69501">
        <ele>1618</ele>
        <time>2019-04-18T21:13:40Z</time>
      </trkpt>
      <trkpt lat="44.9258" lon="6.6952">
        <ele>1619</ele>
        <time>2019-04-18T21:14:40Z</time>
      </trkpt>
      <trkpt lat="44.92581" lon="6.6954">
        <ele>1622</ele>
        <time>2019-04-18T21:15:40Z</time>
      </trkpt>
      <trkpt lat="44.92577" lon="6.69553">
        <ele>1621</ele>
        <time>2019-04-18T21:16:40Z</time>
      </trkpt>
      <trkpt lat="44.92568" lon="6.69572">
        <ele>1619</ele>
        <time>2019-04-18T21:17:40Z</time>
      </trkpt>
      <trkpt lat="44.92563" lon="6.69591">
        <ele>1618</ele>
        <time>2019-04-18T21:18:40Z</time>
      </trkpt>
      <trkpt lat="44.92561" lon="6.69615">
        <ele>1620</ele>
        <time>2019-04-18T21:19:40Z</time>
      </trkpt>
      <trkpt lat="44.92561" lon="6.69639">
        <ele>1622</ele>
        <time>2019-04-18T21:20:40Z</time>
      </trkpt>
      <trkpt lat="44.92558" lon="6.69654">
        <ele>1622</ele>
        <time>2019-04-18T21:21:40Z</time>
      </trkpt>
      <trkpt lat="44.92551" lon="6.69663">
        <ele>1620</ele>
        <time>2019-04-18T21:22:40Z</time>
      </trkpt>
      <trkpt lat="44.92542" lon="6.69665">
        <ele>1616</ele>
        <time>2019-04-18T21:23:40Z</time>
      </trkpt>
      <trkpt lat="44.92533" lon="6.69661">
        <ele>1612</ele>
        <time>2019-04-18T21:24:40Z</time>
      </trkpt>
      <trkpt lat="44.9253" lon="6.69647">
        <ele>1609</ele>
        <time>2019-04-18T21:25:40Z</time>
      </trkpt>
      <trkpt lat="44.92542" lon="6.6957">
        <ele>1605</ele>
        <time>2019-04-18T21:26:40Z</time>
      </trkpt>
      <trkpt lat="44.9255" lon="6.69544">
        <ele>1606</ele>
        <time>2019-04-18T21:27:40Z</time>
      </trkpt>
      <trkpt lat="44.92554" lon="6.69524">
        <ele>1606</ele>
        <time>2019-04-18T21:28:40Z</time>
      </trkpt>
      <trkpt lat="44.92553" lon="6.69501">
        <ele>1603</ele>
        <time>2019-04-18T21:29:40Z</time>
      </trkpt>
      <trkpt lat="44.92549" lon="6.69481">
        <ele>1596</ele>
        <time>2019-04-18T21:30:40Z</time>
      </trkpt>
      <trkpt lat="44.92543" lon="6.6947">
        <ele>1591</ele>
        <time>2019-04-18T21:31:40Z</time>
      </trkpt>
      <trkpt lat="44.92542" lon="6.69454">
        <ele>1586</ele>
        <time>2019-04-18T21:32:40Z</time>
      </trkpt>
      <trkpt lat="44.92545" lon="6.69441">
        <ele>1585</ele>
        <time>2019-04-18T21:33:40Z</time>
      </trkpt>
      <trkpt lat="44.92559" lon="6.69435">
        <ele>1590</ele>
        <time>2019-04-18T21:34:40Z</time>
      </trkpt>
      <trkpt lat="44.92618" lon="6.69395">
        <ele>1608</ele>
        <time>2019-04-18T21:35:40Z</time>
      </trkpt>
      <trkpt lat="44.92625" lon="6.69379">
        <ele>1607</ele>
        <time>2019-04-18T21:36:40Z</time>
      </trkpt>
      <trkpt lat="44.9263" lon="6.69362">
        <ele>1606</ele>
        <time>2019-04-18T21:37:40Z</time>
      </trkpt>
      <trkpt lat="44.92627" lon="6.69281">
        <ele>1593</ele>
        <time>2019-04-18T21:38:40Z</time>
      </trkpt>
      <trkpt lat="44.92623" lon="6.69257">
        <ele>1589</ele>
        <time>2019-04-18T21:39:40Z</time>
      </trkpt>
      <trkpt lat="44.92616" lon="6.69242">
        <ele>1583</ele>
        <time>2019-04-18T21:40:40Z</time>
      </trkpt>
      <trkpt lat="44.92612" lon="6.69224">
        <ele>1578</ele>
        <time>2019-04-18T21:41:40Z</time>
      </trkpt>
      <trkpt lat="44.92618" lon="6.6921">
        <ele>1578</ele>
        <time>2019-04-18T21:42:40Z</time>
      </trkpt>
      <trkpt lat="44.92629" lon="6.69195">
        <ele>1580</ele>
        <time>2019-04-18T21:43:40Z</time>
      </trkpt>
      <trkpt lat="44.92651" lon="6.69154">
        <ele>1578</ele>
        <time>2019-04-18T21:44:40Z</time>
      </trkpt>
      <trkpt lat="44.92662" lon="6.69143">
        <ele>1577</ele>
        <time>2019-04-18T21:45:40Z</time>
      </trkpt>
      <trkpt lat="44.92675" lon="6.69143">
        <ele>1577</ele>
        <time>2019-04-18T21:46:40Z</time>
      </trkpt>
      <trkpt lat="44.92685" lon="6.69148">
        <ele>1578</ele>
        <time>2019-04-18T21:47:40Z</time>
      </trkpt>
      <trkpt lat="44.927" lon="6.69161">
        <ele>1580</ele>
        <time>2019-04-18T21:48:40Z</time>
      </trkpt>
      <trkpt lat="44.9272" lon="6.69173">
        <ele>1582</ele>
        <time>2019-04-18T21:49:40Z</time>
      </trkpt>
      <trkpt lat="44.92801" lon="6.69214">
        <ele>1594</ele>
        <time>2019-04-18T21:50:40Z</time>
      </trkpt>
      <trkpt lat="44.92819" lon="6.69219">
        <ele>1593</ele>
        <time>2019-04-18T21:51:40Z</time>
      </trkpt>
      <trkpt lat="44.92836" lon="6.6922">
        <ele>1591</ele>
        <time>2019-04-18T21:52:40Z</time>
      </trkpt>
      <trkpt lat="44.92853" lon="6.69216">
        <ele>1593</ele>
        <time>2019-04-18T21:53:40Z</time>
      </trkpt>
      <trkpt lat="44.92866" lon="6.69204">
        <ele>1591</ele>
        <time>2019-04-18T21:54:40Z</time>
      </trkpt>
      <trkpt lat="44.92877" lon="6.69179">
        <ele>1585</ele>
        <time>2019-04-18T21:55:40Z</time>
      </trkpt>
      <trkpt lat="44.92882" lon="6.69152">
        <ele>1577</ele>
        <time>2019-04-18T21:56:40Z</time>
      </trkpt>
      <trkpt lat="44.92885" lon="6.69087">
        <ele>1559</ele>
        <time>2019-04-18T21:57:40Z</time>
      </trkpt>
      <trkpt lat="44.92885" lon="6.69069">
        <ele>1554</ele>
        <time>2019-04-18T21:58:40Z</time>
      </trkpt>
      <trkpt lat="44.9289" lon="6.69056">
        <ele>1553</ele>
        <time>2019-04-18T21:59:40Z</time>
      </trkpt>
      <trkpt lat="44.92896" lon="6.69047">
        <ele>1553</ele>
        <time>2019-04-18T22:00:40Z</time>
      </trkpt>
      <trkpt lat="44.92906" lon="6.69042">
        <ele>1555</ele>
        <time>2019-04-18T22:01:40Z</time>
      </trkpt>
      <trkpt lat="44.92915" lon="6.69041">
        <ele>1558</ele>
        <time>2019-04-18T22:02:40Z</time>
      </trkpt>
      <trkpt lat="44.9292" lon="6.69037">
        <ele>1557</ele>
        <time>2019-04-18T22:03:40Z</time>
      </trkpt>
      <trkpt lat="44.9292" lon="6.69029">
        <ele>1555</ele>
        <time>2019-04-18T22:04:40Z</time>
      </trkpt>
      <trkpt lat="44.92917" lon="6.69023">
        <ele>1554</ele>
        <time>2019-04-18T22:05:40Z</time>
      </trkpt>
      <trkpt lat="44.92895" lon="6.69016">
        <ele>1545</ele>
        <time>2019-04-18T22:06:40Z</time>
      </trkpt>
      <trkpt lat="44.92884" lon="6.6902">
        <ele>1543</ele>
        <time>2019-04-18T22:07:40Z</time>
      </trkpt>
      <trkpt lat="44.92877" lon="6.69026">
        <ele>1542</ele>
        <time>2019-04-18T22:08:40Z</time>
      </trkpt>
      <trkpt lat="44.92871" lon="6.69105">
        <ele>1559</ele>
        <time>2019-04-18T22:09:40Z</time>
      </trkpt>
      <trkpt lat="44.92865" lon="6.69128">
        <ele>1564</ele>
        <time>2019-04-18T22:10:40Z</time>
      </trkpt>
      <trkpt lat="44.92859" lon="6.69145">
        <ele>1568</ele>
        <time>2019-04-18T22:11:40Z</time>
      </trkpt>
      <trkpt lat="44.92847" lon="6.69158">
        <ele>1568</ele>
        <time>2019-04-18T22:12:40Z</time>
      </trkpt>
      <trkpt lat="44.92832" lon="6.69161">
        <ele>1565</ele>
        <time>2019-04-18T22:13:40Z</time>
      </trkpt>
      <trkpt lat="44.92814" lon="6.69155">
        <ele>1565</ele>
        <time>2019-04-18T22:14:40Z</time>
      </trkpt>
      <trkpt lat="44.92761" lon="6.69107">
        <ele>1549</ele>
        <time>2019-04-18T22:15:40Z</time>
      </trkpt>
      <trkpt lat="44.92748" lon="6.69093">
        <ele>1544</ele>
        <time>2019-04-18T22:16:40Z</time>
      </trkpt>
      <trkpt lat="44.9271" lon="6.69068">
        <ele>1542</ele>
        <time>2019-04-18T22:17:40Z</time>
      </trkpt>
      <trkpt lat="44.92699" lon="6.69048">
        <ele>1536</ele>
        <time>2019-04-18T22:18:40Z</time>
      </trkpt>
      <trkpt lat="44.92686" lon="6.69037">
        <ele>1534</ele>
        <time>2019-04-18T22:19:40Z</time>
      </trkpt>
      <trkpt lat="44.92671" lon="6.69035">
        <ele>1535</ele>
        <time>2019-04-18T22:20:40Z</time>
      </trkpt>
      <trkpt lat="44.92652" lon="6.69028">
        <ele>1531</ele>
        <time>2019-04-18T22:21:40Z</time>
      </trkpt>
      <trkpt lat="44.92636" lon="6.69027">
        <ele>1528</ele>
        <time>2019-04-18T22:22:40Z</time>
      </trkpt>
      <trkpt lat="44.92606" lon="6.69037">
        <ele>1527</ele>
        <time>2019-04-18T22:23:40Z</time>
      </trkpt>
      <trkpt lat="44.92585" lon="6.69032">
        <ele>1522</ele>
        <time>2019-04-18T22:24:40Z</time>
      </trkpt>
      <trkpt lat="44.9255" lon="6.69012">
        <ele>1505</ele>
        <time>2019-04-18T22:25:40Z</time>
      </trkpt>
      <trkpt lat="44.92542" lon="6.69013">
        <ele>1503</ele>
        <time>2019-04-18T22:26:40Z</time>
      </trkpt>
      <trkpt lat="44.92533" lon="6.69024">
        <ele>1503</ele>
        <time>2019-04-18T22:27:40Z</time>
      </trkpt>
      <trkpt lat="44.92528" lon="6.69046">
        <ele>1506</ele>
        <time>2019-04-18T22:28:40Z</time>
      </trkpt>
      <trkpt lat="44.92525" lon="6.69065">
        <ele>1509</ele>
        <time>2019-04-18T22:29:40Z</time>
      </trkpt>
      <trkpt lat="44.92524" lon="6.69084">
        <ele>1513</ele>
        <time>2019-04-18T22:30:40Z</time>
      </trkpt>
      <trkpt lat="44.9252" lon="6.69097">
        <ele>1514</ele>
        <time>2019-04-18T22:31:40Z</time>
      </trkpt>
      <trkpt lat="44.92515" lon="6.69105">
        <ele>1513</ele>
        <time>2019-04-18T22:32:40Z</time>
      </trkpt>
      <trkpt lat="44.9251" lon="6.69108">
        <ele>1511</ele>
        <time>2019-04-18T22:33:40Z</time>
      </trkpt>
      <trkpt lat="44.92503" lon="6.69104">
        <ele>1507</ele>
        <time>2019-04-18T22:34:40Z</time>
      </trkpt>
      <trkpt lat="44.92499" lon="6.69096">
        <ele>1504</ele>
        <time>2019-04-18T22:35:40Z</time>
      </trkpt>
      <trkpt lat="44.92515" lon="6.6902">
        <ele>1497</ele>
        <time>2019-04-18T22:36:40Z</time>
      </trkpt>
      <trkpt lat="44.92517" lon="6.68997">
        <ele>1493</ele>
        <time>2019-04-18T22:37:40Z</time>
      </trkpt>
      <trkpt lat="44.92521" lon="6.68983">
        <ele>1490</ele>
        <time>2019-04-18T22:38:40Z</time>
      </trkpt>
      <trkpt lat="44.92529" lon="6.68975">
        <ele>1490</ele>
        <time>2019-04-18T22:39:40Z</time>
      </trkpt>
      <trkpt lat="44.92539" lon="6.68975">
        <ele>1492</ele>
        <time>2019-04-18T22:40:40Z</time>
      </trkpt>
      <trkpt lat="44.92583" lon="6.68992">
        <ele>1508</ele>
        <time>2019-04-18T22:41:40Z</time>
      </trkpt>
      <trkpt lat="44.926" lon="6.68989">
        <ele>1508</ele>
        <time>2019-04-18T22:42:40Z</time>
      </trkpt>
      <trkpt lat="44.9262" lon="6.68977">
        <ele>1505</ele>
        <time>2019-04-18T22:43:40Z</time>
      </trkpt>
      <trkpt lat="44.92644" lon="6.6895">
        <ele>1496</ele>
        <time>2019-04-18T22:44:40Z</time>
      </trkpt>
      <trkpt lat="44.92673" lon="6.6895">
        <ele>1498</ele>
        <time>2019-04-18T22:45:40Z</time>
      </trkpt>
      <trkpt lat="44.92709" lon="6.68955">
        <ele>1496</ele>
        <time>2019-04-18T22:46:40Z</time>
      </trkpt>
      <trkpt lat="44.92737" lon="6.68967">
        <ele>1499</ele>
        <time>2019-04-18T22:47:40Z</time>
      </trkpt>
      <trkpt lat="44.92763" lon="6.68993">
        <ele>1510</ele>
        <time>2019-04-18T22:48:40Z</time>
      </trkpt>
      <trkpt lat="44.92774" lon="6.68997">
        <ele>1513</ele>
        <time>2019-04-18T22:49:40Z</time>
      </trkpt>
      <trkpt lat="44.92783" lon="6.68993">
        <ele>1513</ele>
        <time>2019-04-18T22:50:40Z</time>
      </trkpt>
      <trkpt lat="44.92785" lon="6.68983">
        <ele>1510</ele>
        <time>2019-04-18T22:51:40Z</time>
      </trkpt>
      <trkpt lat="44.92781" lon="6.68971">
        <ele>1505</ele>
        <time>2019-04-18T22:52:40Z</time>
      </trkpt>
      <trkpt lat="44.92775" lon="6.68965">
        <ele>1502</ele>
        <time>2019-04-18T22:53:40Z</time>
      </trkpt>
      <trkpt lat="44.92749" lon="6.68957">
        <ele>1493</ele>
        <time>2019-04-18T22:54:40Z</time>
      </trkpt>
      <trkpt lat="44.92709" lon="6.68928">
        <ele>1484</ele>
        <time>2019-04-18T22:55:40Z</time>
      </trkpt>
      <trkpt lat="44.92696" lon="6.68928">
        <ele>1486</ele>
        <time>2019-04-18T22:56:40Z</time>
      </trkpt>
      <trkpt lat="44.92677" lon="6.68923">
        <ele>1485</ele>
        <time>2019-04-18T22:57:40Z</time>
      </trkpt>
      <trkpt lat="44.92646" lon="6.68905">
        <ele>1476</ele>
        <time>2019-04-18T22:58:40Z</time>
      </trkpt>
      <trkpt lat="44.92636" lon="6.68905">
        <ele>1476</ele>
        <time>2019-04-18T22:59:40Z</time>
      </trkpt>
      <trkpt lat="44.92595" lon="6.68928">
        <ele>1482</ele>
        <time>2019-04-18T23:00:40Z</time>
      </trkpt>
      <trkpt lat="44.9258" lon="6.68924">
        <ele>1479</ele>
        <time>2019-04-18T23:01:40Z</time>
      </trkpt>
      <trkpt lat="44.92566" lon="6.68912">
        <ele>1474</ele>
        <time>2019-04-18T23:02:40Z</time>
      </trkpt>
      <trkpt lat="44.92549" lon="6.68893">
        <ele>1467</ele>
        <time>2019-04-18T23:03:40Z</time>
      </trkpt>
      <trkpt lat="44.92541" lon="6.68879">
        <ele>1463</ele>
        <time>2019-04-18T23:04:40Z</time>
      </trkpt>
      <trkpt lat="44.92532" lon="6.68868">
        <ele>1460</ele>
        <time>2019-04-18T23:05:40Z</time>
      </trkpt>
      <trkpt lat="44.92519" lon="6.68864">
        <ele>1460</ele>
        <time>2019-04-18T23:06:40Z</time>
      </trkpt>
      <trkpt lat="44.9248" lon="6.68861">
        <ele>1455</ele>
        <time>2019-04-18T23:07:40Z</time>
      </trkpt>
      <trkpt lat="44.92469" lon="6.68869">
        <ele>1454</ele>
        <time>2019-04-18T23:08:40Z</time>
      </trkpt>
      <trkpt lat="44.92462" lon="6.68882">
        <ele>1455</ele>
        <time>2019-04-18T23:09:40Z</time>
      </trkpt>
      <trkpt lat="44.92456" lon="6.68901">
        <ele>1457</ele>
        <time>2019-04-18T23:10:40Z</time>
      </trkpt>
      <trkpt lat="44.92451" lon="6.68941">
        <ele>1461</ele>
        <time>2019-04-18T23:11:40Z</time>
      </trkpt>
      <trkpt lat="44.92447" lon="6.68998">
        <ele>1467</ele>
        <time>2019-04-18T23:12:40Z</time>
      </trkpt>
      <trkpt lat="44.92437" lon="6.69056">
        <ele>1473</ele>
        <time>2019-04-18T23:13:40Z</time>
      </trkpt>
      <trkpt lat="44.92431" lon="6.69073">
        <ele>1473</ele>
        <time>2019-04-18T23:14:40Z</time>
      </trkpt>
      <trkpt lat="44.92423" lon="6.69085">
        <ele>1472</ele>
        <time>2019-04-18T23:15:40Z</time>
      </trkpt>
      <trkpt lat="44.92414" lon="6.69087">
        <ele>1470</ele>
        <time>2019-04-18T23:16:40Z</time>
      </trkpt>
      <trkpt lat="44.92401" lon="6.69081">
        <ele>1474</ele>
        <time>2019-04-18T23:17:40Z</time>
      </trkpt>
      <trkpt lat="44.92389" lon="6.69072">
        <ele>1475</ele>
        <time>2019-04-18T23:18:40Z</time>
      </trkpt>
      <trkpt lat="44.92376" lon="6.69056">
        <ele>1475</ele>
        <time>2019-04-18T23:19:40Z</time>
      </trkpt>
      <trkpt lat="44.92367" lon="6.69034">
        <ele>1470</ele>
        <time>2019-04-18T23:20:40Z</time>
      </trkpt>
      <trkpt lat="44.92339" lon="6.68976">
        <ele>1456</ele>
        <time>2019-04-18T23:21:40Z</time>
      </trkpt>
      <trkpt lat="44.92309" lon="6.68929">
        <ele>1456</ele>
        <time>2019-04-18T23:22:40Z</time>
      </trkpt>
      <trkpt lat="44.92299" lon="6.68906">
        <ele>1454</ele>
        <time>2019-04-18T23:23:40Z</time>
      </trkpt>
      <trkpt lat="44.92288" lon="6.68874">
        <ele>1452</ele>
        <time>2019-04-18T23:24:40Z</time>
      </trkpt>
      <trkpt lat="44.9227" lon="6.68809">
        <ele>1444</ele>
        <time>2019-04-18T23:25:40Z</time>
      </trkpt>
      <trkpt lat="44.92253" lon="6.68732">
        <ele>1435</ele>
        <time>2019-04-18T23:26:40Z</time>
      </trkpt>
      <trkpt lat="44.9224" lon="6.68713">
        <ele>1433</ele>
        <time>2019-04-18T23:27:40Z</time>
      </trkpt>
      <trkpt lat="44.92225" lon="6.68702">
        <ele>1433</ele>
        <time>2019-04-18T23:28:40Z</time>
      </trkpt>
      <trkpt lat="44.92191" lon="6.68703">
        <ele>1441</ele>
        <time>2019-04-18T23:29:40Z</time>
      </trkpt>
      <trkpt lat="44.92176" lon="6.687">
        <ele>1443</ele>
        <time>2019-04-18T23:30:40Z</time>
      </trkpt>
      <trkpt lat="44.92168" lon="6.68686">
        <ele>1441</ele>
        <time>2019-04-18T23:31:40Z</time>
      </trkpt>
      <trkpt lat="44.92165" lon="6.68666">
        <ele>1435</ele>
        <time>2019-04-18T23:32:40Z</time>
      </trkpt>
      <trkpt lat="44.92156" lon="6.68638">
        <ele>1432</ele>
        <time>2019-04-18T23:33:40Z</time>
      </trkpt>
      <trkpt lat="44.92137" lon="6.68609">
        <ele>1430</ele>
        <time>2019-04-18T23:34:40Z</time>
      </trkpt>
      <trkpt lat="44.92113" lon="6.68579">
        <ele>1428</ele>
        <time>2019-04-18T23:35:40Z</time>
      </trkpt>
      <trkpt lat="44.92099" lon="6.68548">
        <ele>1427</ele>
        <time>2019-04-18T23:36:40Z</time>
      </trkpt>
      <trkpt lat="44.92095" lon="6.68523">
        <ele>1424</ele>
        <time>2019-04-18T23:37:40Z</time>
      </trkpt>
      <trkpt lat="44.92099" lon="6.68492">
        <ele>1419</ele>
        <time>2019-04-18T23:38:40Z</time>
      </trkpt>
      <trkpt lat="44.92106" lon="6.6846">
        <ele>1416</ele>
        <time>2019-04-18T23:39:40Z</time>
      </trkpt>
      <trkpt lat="44.9212" lon="6.68418">
        <ele>1411</ele>
        <time>2019-04-18T23:40:40Z</time>
      </trkpt>
      <trkpt lat="44.92125" lon="6.68386">
        <ele>1409</ele>
        <time>2019-04-18T23:41:40Z</time>
      </trkpt>
      <trkpt lat="44.92126" lon="6.68352">
        <ele>1408</ele>
        <time>2019-04-18T23:42:40Z</time>
      </trkpt>
      <trkpt lat="44.92114" lon="6.68286">
        <ele>1405</ele>
        <time>2019-04-18T23:43:40Z</time>
      </trkpt>
      <trkpt lat="44.92106" lon="6.68218">
        <ele>1401</ele>
        <time>2019-04-18T23:44:40Z</time>
      </trkpt>
      <trkpt lat="44.92092" lon="6.68155">
        <ele>1401</ele>
        <time>2019-04-18T23:45:40Z</time>
      </trkpt>
      <trkpt lat="44.92081" lon="6.68096">
        <ele>1397</ele>
        <time>2019-04-18T23:46:40Z</time>
      </trkpt>
      <trkpt lat="44.92057" lon="6.68013">
        <ele>1392</ele>
        <time>2019-04-18T23:47:40Z</time>
      </trkpt>
      <trkpt lat="44.92007" lon="6.67916">
        <ele>1386</ele>
        <time>2019-04-18T23:48:40Z</time>
      </trkpt>
      <trkpt lat="44.91976" lon="6.67866">
        <ele>1382</ele>
        <time>2019-04-18T23:49:40Z</time>
      </trkpt>
      <trkpt lat="44.91942" lon="6.6782">
        <ele>1379</ele>
        <time>2019-04-18T23:50:40Z</time>
      </trkpt>
      <trkpt lat="44.91907" lon="6.67785">
        <ele>1378</ele>
        <time>2019-04-18T23:51:40Z</time>
      </trkpt>
      <trkpt lat="44.91872" lon="6.67758">
        <ele>1377</ele>
        <time>2019-04-18T23:52:40Z</time>
      </trkpt>
      <trkpt lat="44.91842" lon="6.67738">
        <ele>1376</ele>
        <time>2019-04-18T23:53:40Z</time>
      </trkpt>
      <trkpt lat="44.91779" lon="6.67701">
        <ele>1374</ele>
        <time>2019-04-18T23:54:40Z</time>
      </trkpt>
      <trkpt lat="44.91709" lon="6.6765">
        <ele>1371</ele>
        <time>2019-04-18T23:55:40Z</time>
      </trkpt>
      <trkpt lat="44.91594" lon="6.67563">
        <ele>1370</ele>
        <time>2019-04-18T23:56:40Z</time>
      </trkpt>
      <trkpt lat="44.91448" lon="6.67449">
        <ele>1359</ele>
        <time>2019-04-18T23:57:40Z</time>
      </trkpt>
      <trkpt lat="44.91409" lon="6.67415">
        <ele>1353</ele>
        <time>2019-04-18T23:58:40Z</time>
      </trkpt>
      <trkpt lat="44.9139" lon="6.67395">
        <ele>1354</ele>
        <time>2019-04-18T23:59:40Z</time>
      </trkpt>
      <trkpt lat="44.91368" lon="6.67363">
        <ele>1356</ele>
        <time>2019-04-19T00:00:40Z</time>
      </trkpt>
      <trkpt lat="44.91228" lon="6.6713">
        <ele>1365</ele>
        <time>2019-04-19T00:01:40Z</time>
      </trkpt>
      <trkpt lat="44.91202" lon="6.67085">
        <ele>1366</ele>
        <time>2019-04-19T00:02:40Z</time>
      </trkpt>
      <trkpt lat="44.90994" lon="6.66649">
        <ele>1347</ele>
        <time>2019-04-19T00:03:40Z</time>
      </trkpt>
      <trkpt lat="44.90977" lon="6.66574">
        <ele>1347</ele>
        <time>2019-04-19T00:04:40Z</time>
      </trkpt>
      <trkpt lat="44.90975" lon="6.66541">
        <ele>1345</ele>
        <time>2019-04-19T00:05:40Z</time>
      </trkpt>
      <trkpt lat="44.90975" lon="6.66406">
        <ele>1340</ele>
        <time>2019-04-19T00:06:40Z</time>
      </trkpt>
      <trkpt lat="44.90958" lon="6.66296">
        <ele>1344</ele>
        <time>2019-04-19T00:07:40Z</time>
      </trkpt>
      <trkpt lat="44.90942" lon="6.66269">
        <ele>1346</ele>
        <time>2019-04-19T00:08:40Z</time>
      </trkpt>
      <trkpt lat="44.90906" lon="6.66234">
        <ele>1352</ele>
        <time>2019-04-19T00:09:40Z</time>
      </trkpt>
      <trkpt lat="44.90884" lon="6.66225">
        <ele>1353</ele>
        <time>2019-04-19T00:10:40Z</time>
      </trkpt>
      <trkpt lat="44.90836" lon="6.66223">
        <ele>1344</ele>
        <time>2019-04-19T00:11:40Z</time>
      </trkpt>
      <trkpt lat="44.90811" lon="6.66217">
        <ele>1339</ele>
        <time>2019-04-19T00:12:40Z</time>
      </trkpt>
      <trkpt lat="44.90768" lon="6.66197">
        <ele>1332</ele>
        <time>2019-04-19T00:13:40Z</time>
      </trkpt>
      <trkpt lat="44.9075" lon="6.66172">
        <ele>1333</ele>
        <time>2019-04-19T00:14:40Z</time>
      </trkpt>
      <trkpt lat="44.90739" lon="6.66148">
        <ele>1333</ele>
        <time>2019-04-19T00:15:40Z</time>
      </trkpt>
      <trkpt lat="44.90736" lon="6.66119">
        <ele>1335</ele>
        <time>2019-04-19T00:16:40Z</time>
      </trkpt>
      <trkpt lat="44.90741" lon="6.66098">
        <ele>1340</ele>
        <time>2019-04-19T00:17:40Z</time>
      </trkpt>
      <trkpt lat="44.90742" lon="6.66071">
        <ele>1344</ele>
        <time>2019-04-19T00:18:40Z</time>
      </trkpt>
      <trkpt lat="44.90738" lon="6.66043">
        <ele>1347</ele>
        <time>2019-04-19T00:19:40Z</time>
      </trkpt>
      <trkpt lat="44.90729" lon="6.66016">
        <ele>1348</ele>
        <time>2019-04-19T00:20:40Z</time>
      </trkpt>
      <trkpt lat="44.9072" lon="6.65998">
        <ele>1347</ele>
        <time>2019-04-19T00:21:40Z</time>
      </trkpt>
      <trkpt lat="44.90704" lon="6.65983">
        <ele>1346</ele>
        <time>2019-04-19T00:22:40Z</time>
      </trkpt>
      <trkpt lat="44.90601" lon="6.65907">
        <ele>1334</ele>
        <time>2019-04-19T00:23:40Z</time>
      </trkpt>
      <trkpt lat="44.90582" lon="6.65888">
        <ele>1331</ele>
        <time>2019-04-19T00:24:40Z</time>
      </trkpt>
      <trkpt lat="44.90498" lon="6.65754">
        <ele>1332</ele>
        <time>2019-04-19T00:25:40Z</time>
      </trkpt>
      <trkpt lat="44.90489" lon="6.6573">
        <ele>1330</ele>
        <time>2019-04-19T00:26:40Z</time>
      </trkpt>
      <trkpt lat="44.90485" lon="6.65708">
        <ele>1330</ele>
        <time>2019-04-19T00:27:40Z</time>
      </trkpt>
      <trkpt lat="44.90482" lon="6.65683">
        <ele>1330</ele>
        <time>2019-04-19T00:28:40Z</time>
      </trkpt>
      <trkpt lat="44.90479" lon="6.65608">
        <ele>1337</ele>
        <time>2019-04-19T00:29:40Z</time>
      </trkpt>
      <trkpt lat="44.90476" lon="6.6557">
        <ele>1340</ele>
        <time>2019-04-19T00:30:40Z</time>
      </trkpt>
      <trkpt lat="44.9047" lon="6.65533">
        <ele>1341</ele>
        <time>2019-04-19T00:31:40Z</time>
      </trkpt>
      <trkpt lat="44.90434" lon="6.65411">
        <ele>1340</ele>
        <time>2019-04-19T00:32:40Z</time>
      </trkpt>
      <trkpt lat="44.90391" lon="6.65297">
        <ele>1341</ele>
        <time>2019-04-19T00:33:40Z</time>
      </trkpt>
      <trkpt lat="44.90344" lon="6.65202">
        <ele>1341</ele>
        <time>2019-04-19T00:34:40Z</time>
      </trkpt>
      <trkpt lat="44.90304" lon="6.65113">
        <ele>1340</ele>
        <time>2019-04-19T00:35:40Z</time>
      </trkpt>
      <trkpt lat="44.9028" lon="6.65059">
        <ele>1329</ele>
        <time>2019-04-19T00:36:40Z</time>
      </trkpt>
      <trkpt lat="44.90276" lon="6.65039">
        <ele>1326</ele>
        <time>2019-04-19T00:37:40Z</time>
      </trkpt>
      <trkpt lat="44.90277" lon="6.6502">
        <ele>1327</ele>
        <time>2019-04-19T00:38:40Z</time>
      </trkpt>
      <trkpt lat="44.90284" lon="6.64994">
        <ele>1331</ele>
        <time>2019-04-19T00:39:40Z</time>
      </trkpt>
      <trkpt lat="44.90299" lon="6.6497">
        <ele>1337</ele>
        <time>2019-04-19T00:40:40Z</time>
      </trkpt>
      <trkpt lat="44.90309" lon="6.64945">
        <ele>1340</ele>
        <time>2019-04-19T00:41:40Z</time>
      </trkpt>
      <trkpt lat="44.90311" lon="6.64931">
        <ele>1339</ele>
        <time>2019-04-19T00:42:40Z</time>
      </trkpt>
      <trkpt lat="44.90312" lon="6.64912">
        <ele>1338</ele>
        <time>2019-04-19T00:43:40Z</time>
      </trkpt>
      <trkpt lat="44.90311" lon="6.64886">
        <ele>1340</ele>
        <time>2019-04-19T00:44:40Z</time>
      </trkpt>
      <trkpt lat="44.90305" lon="6.64841">
        <ele>1341</ele>
        <time>2019-04-19T00:45:40Z</time>
      </trkpt>
      <trkpt lat="44.90294" lon="6.64797">
        <ele>1340</ele>
        <time>2019-04-19T00:46:40Z</time>
      </trkpt>
      <trkpt lat="44.90283" lon="6.64773">
        <ele>1339</ele>
        <time>2019-04-19T00:47:40Z</time>
      </trkpt>
      <trkpt lat="44.90234" lon="6.64696">
        <ele>1336</ele>
        <time>2019-04-19T00:48:40Z</time>
      </trkpt>
      <trkpt lat="44.90186" lon="6.64611">
        <ele>1336</ele>
        <time>2019-04-19T00:49:40Z</time>
      </trkpt>
      <trkpt lat="44.90164" lon="6.64561">
        <ele>1335</ele>
        <time>2019-04-19T00:50:40Z</time>
      </trkpt>
      <trkpt lat="44.90157" lon="6.64536">
        <ele>1335</ele>
        <time>2019-04-19T00:51:40Z</time>
      </trkpt>
      <trkpt lat="44.9015" lon="6.64488">
        <ele>1335</ele>
        <time>2019-04-19T00:52:40Z</time>
      </trkpt>
      <trkpt lat="44.90152" lon="6.64401">
        <ele>1334</ele>
        <time>2019-04-19T00:53:40Z</time>
      </trkpt>
      <trkpt lat="44.90149" lon="6.64389">
        <ele>1333</ele>
        <time>2019-04-19T00:54:40Z</time>
      </trkpt>
      <trkpt lat="44.90154" lon="6.6438">
        <ele>1333</ele>
        <time>2019-04-19T00:55:40Z</time>
      </trkpt>
      <trkpt lat="44.90153" lon="6.6437">
        <ele>1332</ele>
        <time>2019-04-19T00:56:40Z</time>
      </trkpt>
      <trkpt lat="44.90149" lon="6.64364">
        <ele>1332</ele>
        <time>2019-04-19T00:57:40Z</time>
      </trkpt>
      <trkpt lat="44.90148" lon="6.64339">
        <ele>1330</ele>
        <time>2019-04-19T00:58:40Z</time>
      </trkpt>
      <trkpt lat="44.90157" lon="6.64311">
        <ele>1329</ele>
        <time>2019-04-19T00:59:40Z</time>
      </trkpt>
      <trkpt lat="44.90168" lon="6.64256">
        <ele>1326</ele>
        <time>2019-04-19T01:00:40Z</time>
      </trkpt>
      <trkpt lat="44.90162" lon="6.64245">
        <ele>1325</ele>
        <time>2019-04-19T01:01:40Z</time>
      </trkpt>
      <trkpt lat="44.90152" lon="6.64235">
        <ele>1324</ele>
        <time>2019-04-19T01:02:40Z</time>
      </trkpt>
      <trkpt lat="44.90128" lon="6.64223">
        <ele>1320</ele>
        <time>2019-04-19T01:03:40Z</time>
      </trkpt>
      <trkpt lat="44.90075" lon="6.64179">
        <ele>1309</ele>
        <time>2019-04-19T01:04:40Z</time>
      </trkpt>
      <trkpt lat="44.90064" lon="6.64156">
        <ele>1306</ele>
        <time>2019-04-19T01:05:40Z</time>
      </trkpt>
      <trkpt lat="44.90055" lon="6.64124">
        <ele>1302</ele>
        <time>2019-04-19T01:06:40Z</time>
      </trkpt>
      <trkpt lat="44.90002" lon="6.64115">
        <ele>1295</ele>
        <time>2019-04-19T01:07:40Z</time>
      </trkpt>
      <trkpt lat="44.89998" lon="6.64112">
        <ele>1294</ele>
        <time>2019-04-19T01:08:40Z</time>
      </trkpt>
      <trkpt lat="44.89995" lon="6.64102">
        <ele>1293</ele>
        <time>2019-04-19T01:09:40Z</time>
      </trkpt>
      <trkpt lat="44.89942" lon="6.6413">
        <ele>1292</ele>
        <time>2019-04-19T01:10:40Z</time>
      </trkpt>
      <trkpt lat="44.8992" lon="6.64131">
        <ele>1291</ele>
        <time>2019-04-19T01:11:40Z</time>
      </trkpt>
      <trkpt lat="44.89907" lon="6.64123">
        <ele>1289</ele>
        <time>2019-04-19T01:12:40Z</time>
      </trkpt>
      <trkpt lat="44.89902" lon="6.64114">
        <ele>1287</ele>
        <time>2019-04-19T01:13:40Z</time>
      </trkpt>
      <trkpt lat="44.89789" lon="6.6382">
        <ele>1256</ele>
        <time>2019-04-19T01:14:40Z</time>
      </trkpt>
      <trkpt lat="44.8966" lon="6.63471">
        <ele>1218</ele>
        <time>2019-04-19T01:15:40Z</time>
      </trkpt>
      <trkpt lat="44.89666" lon="6.63468">
        <ele>1218</ele>
        <time>2019-04-19T01:16:40Z</time>
      </trkpt>
      <trkpt lat="44.89669" lon="6.63463">
        <ele>1218</ele>
        <time>2019-04-19T01:17:40Z</time>
      </trkpt>
      <trkpt lat="44.8967" lon="6.63456">
        <ele>1218</ele>
        <time>2019-04-19T01:18:40Z</time>
      </trkpt>
      <trkpt lat="44.89667" lon="6.63449">
        <ele>1218</ele>
        <time>2019-04-19T01:19:40Z</time>
      </trkpt>
      <trkpt lat="44.89665" lon="6.63446">
        <ele>1218</ele>
        <time>2019-04-19T01:20:40Z</time>
      </trkpt>
      <trkpt lat="44.89659" lon="6.63444">
        <ele>1217</ele>
        <time>2019-04-19T01:21:40Z</time>
      </trkpt>
      <trkpt lat="44.89656" lon="6.63446">
        <ele>1217</ele>
        <time>2019-04-19T01:22:40Z</time>
      </trkpt>
      <trkpt lat="44.89625" lon="6.63372">
        <ele>1215</ele>
        <time>2019-04-19T01:23:40Z</time>
      </trkpt>
      <trkpt lat="44.89601" lon="6.63306">
        <ele>1213</ele>
        <time>2019-04-19T01:24:40Z</time>
      </trkpt>
      <trkpt lat="44.89593" lon="6.6329">
        <ele>1212</ele>
        <time>2019-04-19T01:25:40Z</time>
      </trkpt>
      <trkpt lat="44.89588" lon="6.63286">
        <ele>1212</ele>
        <time>2019-04-19T01:26:40Z</time>
      </trkpt>
      <trkpt lat="44.89588" lon="6.63282">
        <ele>1212</ele>
        <time>2019-04-19T01:27:40Z</time>
      </trkpt>
      <trkpt lat="44.89585" lon="6.63276">
        <ele>1212</ele>
        <time>2019-04-19T01:28:40Z</time>
      </trkpt>
      <trkpt lat="44.89579" lon="6.63273">
        <ele>1211</ele>
        <time>2019-04-19T01:29:40Z</time>
      </trkpt>
      <trkpt lat="44.89576" lon="6.63274">
        <ele>1211</ele>
        <time>2019-04-19T01:30:40Z</time>
      </trkpt>
      <trkpt lat="44.89572" lon="6.63282">
        <ele>1212</ele>
        <time>2019-04-19T01:31:40Z</time>
      </trkpt>
      <trkpt lat="44.89553" lon="6.63298">
        <ele>1212</ele>
        <time>2019-04-19T01:32:40Z</time>
      </trkpt>
      <trkpt lat="44.89523" lon="6.63301">
        <ele>1211</ele>
        <time>2019-04-19T01:33:40Z</time>
      </trkpt>
      <trkpt lat="44.89496" lon="6.63309">
        <ele>1211</ele>
        <time>2019-04-19T01:34:40Z</time>
      </trkpt>
      <trkpt lat="44.89432" lon="6.63332">
        <ele>1208</ele>
        <time>2019-04-19T01:35:40Z</time>
      </trkpt>
      <trkpt lat="44.89411" lon="6.63343">
        <ele>1207</ele>
        <time>2019-04-19T01:36:40Z</time>
      </trkpt>
      <trkpt lat="44.89407" lon="6.63338">
        <ele>1207</ele>
        <time>2019-04-19T01:37:40Z</time>
      </trkpt>
      <trkpt lat="44.89403" lon="6.63338">
        <ele>1207</ele>
        <time>2019-04-19T01:38:40Z</time>
      </trkpt>
      <trkpt lat="44.89403" lon="6.63325">
        <ele>1207</ele>
        <time>2019-04-19T01:39:40Z</time>
      </trkpt>
      <trkpt lat="44.89401" lon="6.63316">
        <ele>1207</ele>
        <time>2019-04-19T01:40:40Z</time>
      </trkpt>
      <trkpt lat="44.89333" lon="6.63167">
        <ele>1202</ele>
        <time>2019-04-19T01:41:40Z</time>
      </trkpt>
      <trkpt lat="44.89278" lon="6.63032">
        <ele>1200</ele>
        <time>2019-04-19T01:42:40Z</time>
      </trkpt>
      <trkpt lat="44.89264" lon="6.63007">
        <ele>1200</ele>
        <time>2019-04-19T01:43:40Z</time>
      </trkpt>
      <trkpt lat="44.89256" lon="6.62997">
        <ele>1200</ele>
        <time>2019-04-19T01:44:40Z</time>
      </trkpt>
      <trkpt lat="44.89241" lon="6.62983">
        <ele>1201</ele>
        <time>2019-04-19T01:45:40Z</time>
      </trkpt>
      <trkpt lat="44.89187" lon="6.6296">
        <ele>1201</ele>
        <time>2019-04-19T01:46:40Z</time>
      </trkpt>
      <trkpt lat="44.89147" lon="6.62936">
        <ele>1200</ele>
        <time>2019-04-19T01:47:40Z</time>
      </trkpt>
      <trkpt lat="44.8905" lon="6.62852">
        <ele>1197</ele>
        <time>2019-04-19T01:48:40Z</time>
      </trkpt>
      <trkpt lat="44.89002" lon="6.62807">
        <ele>1196</ele>
        <time>2019-04-19T01:49:40Z</time>
      </trkpt>
      <trkpt lat="44.88955" lon="6.62767">
        <ele>1196</ele>
        <time>2019-04-19T01:50:40Z</time>
      </trkpt>
      <trkpt lat="44.88933" lon="6.62752">
        <ele>1196</ele>
        <time>2019-04-19T01:51:40Z</time>
      </trkpt>
      <trkpt lat="44.88767" lon="6.6265">
        <ele>1195</ele>
        <time>2019-04-19T01:52:40Z</time>
      </trkpt>
      <trkpt lat="44.8871" lon="6.62612">
        <ele>1193</ele>
        <time>2019-04-19T01:53:40Z</time>
      </trkpt>
      <trkpt lat="44.88631" lon="6.62564">
        <ele>1192</ele>
        <time>2019-04-19T01:54:40Z</time>
      </trkpt>
      <trkpt lat="44.88612" lon="6.62551">
        <ele>1192</ele>
        <time>2019-04-19T01:55:40Z</time>
      </trkpt>
      <trkpt lat="44.88454" lon="6.62403">
        <ele>1191</ele>
        <time>2019-04-19T01:56:40Z</time>
      </trkpt>
      <trkpt lat="44.88428" lon="6.6238">
        <ele>1190</ele>
        <time>2019-04-19T01:57:40Z</time>
      </trkpt>
      <trkpt lat="44.88399" lon="6.62359">
        <ele>1189</ele>
        <time>2019-04-19T01:58:40Z</time>
      </trkpt>
      <trkpt lat="44.88365" lon="6.62339">
        <ele>1188</ele>
        <time>2019-04-19T01:59:40Z</time>
      </trkpt>
      <trkpt lat="44.88325" lon="6.62321">
        <ele>1188</ele>
        <time>2019-04-19T02:00:40Z</time>
      </trkpt>
      <trkpt lat="44.88222" lon="6.6229">
        <ele>1186</ele>
        <time>2019-04-19T02:01:40Z</time>
      </trkpt>
      <trkpt lat="44.88208" lon="6.62277">
        <ele>1186</ele>
        <time>2019-04-19T02:02:40Z</time>
      </trkpt>
      <trkpt lat="44.88205" lon="6.62271">
        <ele>1186</ele>
        <time>2019-04-19T02:03:40Z</time>
      </trkpt>
      <trkpt lat="44.88201" lon="6.62267">
        <ele>1186</ele>
        <time>2019-04-19T02:04:40Z</time>
      </trkpt>
      <trkpt lat="44.88168" lon="6.62264">
        <ele>1185</ele>
        <time>2019-04-19T02:05:40Z</time>
      </trkpt>
      <trkpt lat="44.88149" lon="6.62255">
        <ele>1185</ele>
        <time>2019-04-19T02:06:40Z</time>
      </trkpt>
      <trkpt lat="44.88108" lon="6.62232">
        <ele>1184</ele>
        <time>2019-04-19T02:07:40Z</time>
      </trkpt>
      <trkpt lat="44.88094" lon="6.6222">
        <ele>1183</ele>
        <time>2019-04-19T02:08:40Z</time>
      </trkpt>
      <trkpt lat="44.8808" lon="6.62195">
        <ele>1183</ele>
        <time>2019-04-19T02:09:40Z</time>
      </trkpt>
      <trkpt lat="44.88084" lon="6.6217">
        <ele>1183</ele>
        <time>2019-04-19T02:10:40Z</time>
      </trkpt>
      <trkpt lat="44.88107" lon="6.62119">
        <ele>1185</ele>
        <time>2019-04-19T02:11:40Z</time>
      </trkpt>
      <trkpt lat="44.88113" lon="6.621">
        <ele>1186</ele>
        <time>2019-04-19T02:12:40Z</time>
      </trkpt>
      <trkpt lat="44.88117" lon="6.62103">
        <ele>1186</ele>
        <time>2019-04-19T02:13:40Z</time>
      </trkpt>
      <trkpt lat="44.88126" lon="6.62104">
        <ele>1186</ele>
        <time>2019-04-19T02:14:40Z</time>
      </trkpt>
      <trkpt lat="44.88133" lon="6.62098">
        <ele>1187</ele>
        <time>2019-04-19T02:15:40Z</time>
      </trkpt>
      <trkpt lat="44.88137" lon="6.62088">
        <ele>1187</ele>
        <time>2019-04-19T02:16:40Z</time>
      </trkpt>
      <trkpt lat="44.88136" lon="6.62076">
        <ele>1187</ele>
        <time>2019-04-19T02:17:40Z</time>
      </trkpt>
      <trkpt lat="44.88133" lon="6.6207">
        <ele>1187</ele>
        <time>2019-04-19T02:18:40Z</time>
      </trkpt>
      <trkpt lat="44.88135" lon="6.62064">
        <ele>1188</ele>
        <time>2019-04-19T02:19:40Z</time>
      </trkpt>
      <trkpt lat="44.88136" lon="6.62049">
        <ele>1188</ele>
        <time>2019-04-19T02:20:40Z</time>
      </trkpt>
      <trkpt lat="44.88134" lon="6.62035">
        <ele>1189</ele>
        <time>2019-04-19T02:21:40Z</time>
      </trkpt>
      <trkpt lat="44.88111" lon="6.62">
        <ele>1187</ele>
        <time>2019-04-19T02:22:40Z</time>
      </trkpt>
      <trkpt lat="44.88096" lon="6.61969">
        <ele>1186</ele>
        <time>2019-04-19T02:23:40Z</time>
      </trkpt>
      <trkpt lat="44.88054" lon="6.61864">
        <ele>1186</ele>
        <time>2019-04-19T02:24:40Z</time>
      </trkpt>
      <trkpt lat="44.88041" lon="6.61844">
        <ele>1186</ele>
        <time>2019-04-19T02:25:40Z</time>
      </trkpt>
      <trkpt lat="44.87981" lon="6.61761">
        <ele>1187</ele>
        <time>2019-04-19T02:26:40Z</time>
      </trkpt>
      <trkpt lat="44.87935" lon="6.61716">
        <ele>1185</ele>
        <time>2019-04-19T02:27:40Z</time>
      </trkpt>
      <trkpt lat="44.87794" lon="6.61582">
        <ele>1187</ele>
        <time>2019-04-19T02:28:40Z</time>
      </trkpt>
      <trkpt lat="44.87699" lon="6.61487">
        <ele>1188</ele>
        <time>2019-04-19T02:29:40Z</time>
      </trkpt>
      <trkpt lat="44.87598" lon="6.61394">
        <ele>1185</ele>
        <time>2019-04-19T02:30:40Z</time>
      </trkpt>
      <trkpt lat="44.87569" lon="6.61364">
        <ele>1185</ele>
        <time>2019-04-19T02:31:40Z</time>
      </trkpt>
      <trkpt lat="44.87521" lon="6.61307">
        <ele>1185</ele>
        <time>2019-04-19T02:32:40Z</time>
      </trkpt>
      <trkpt lat="44.87485" lon="6.61276">
        <ele>1182</ele>
        <time>2019-04-19T02:33:40Z</time>
      </trkpt>
      <trkpt lat="44.87461" lon="6.61249">
        <ele>1181</ele>
        <time>2019-04-19T02:34:40Z</time>
      </trkpt>
      <trkpt lat="44.87404" lon="6.6118">
        <ele>1175</ele>
        <time>2019-04-19T02:35:40Z</time>
      </trkpt>
      <trkpt lat="44.87384" lon="6.6115">
        <ele>1174</ele>
        <time>2019-04-19T02:36:40Z</time>
      </trkpt>
      <trkpt lat="44.87358" lon="6.61107">
        <ele>1174</ele>
        <time>2019-04-19T02:37:40Z</time>
      </trkpt>
      <trkpt lat="44.87326" lon="6.61047">
        <ele>1173</ele>
        <time>2019-04-19T02:38:40Z</time>
      </trkpt>
      <trkpt lat="44.87257" lon="6.60928">
        <ele>1173</ele>
        <time>2019-04-19T02:39:40Z</time>
      </trkpt>
      <trkpt lat="44.87252" lon="6.60921">
        <ele>1173</ele>
        <time>2019-04-19T02:40:40Z</time>
      </trkpt>
      <trkpt lat="44.87245" lon="6.60918">
        <ele>1173</ele>
        <time>2019-04-19T02:41:40Z</time>
      </trkpt>
      <trkpt lat="44.87214" lon="6.60927">
        <ele>1173</ele>
        <time>2019-04-19T02:42:40Z</time>
      </trkpt>
      <trkpt lat="44.87203" lon="6.60889">
        <ele>1173</ele>
        <time>2019-04-19T02:43:40Z</time>
      </trkpt>
      <trkpt lat="44.87167" lon="6.60782">
        <ele>1170</ele>
        <time>2019-04-19T02:44:40Z</time>
      </trkpt>
      <trkpt lat="44.87145" lon="6.60729">
        <ele>1170</ele>
        <time>2019-04-19T02:45:40Z</time>
      </trkpt>
      <trkpt lat="44.8712" lon="6.60679">
        <ele>1170</ele>
        <time>2019-04-19T02:46:40Z</time>
      </trkpt>
      <trkpt lat="44.87031" lon="6.60523">
        <ele>1170</ele>
        <time>2019-04-19T02:47:40Z</time>
      </trkpt>
      <trkpt lat="44.86936" lon="6.60337">
        <ele>1171</ele>
        <time>2019-04-19T02:48:40Z</time>
      </trkpt>
      <trkpt lat="44.86898" lon="6.6027">
        <ele>1172</ele>
        <time>2019-04-19T02:49:40Z</time>
      </trkpt>
      <trkpt lat="44.86847" lon="6.60206">
        <ele>1174</ele>
        <time>2019-04-19T02:50:40Z</time>
      </trkpt>
      <trkpt lat="44.86806" lon="6.60165">
        <ele>1174</ele>
        <time>2019-04-19T02:51:40Z</time>
      </trkpt>
      <trkpt lat="44.86748" lon="6.60118">
        <ele>1172</ele>
        <time>2019-04-19T02:52:40Z</time>
      </trkpt>
      <trkpt lat="44.86663" lon="6.60057">
        <ele>1175</ele>
        <time>2019-04-19T02:53:40Z</time>
      </trkpt>
      <trkpt lat="44.86581" lon="6.60002">
        <ele>1177</ele>
        <time>2019-04-19T02:54:40Z</time>
      </trkpt>
      <trkpt lat="44.86523" lon="6.59948">
        <ele>1176</ele>
        <time>2019-04-19T02:55:40Z</time>
      </trkpt>
      <trkpt lat="44.86476" lon="6.59889">
        <ele>1177</ele>
        <time>2019-04-19T02:56:40Z</time>
      </trkpt>
      <trkpt lat="44.86456" lon="6.59857">
        <ele>1177</ele>
        <time>2019-04-19T02:57:40Z</time>
      </trkpt>
      <trkpt lat="44.86423" lon="6.59796">
        <ele>1176</ele>
        <time>2019-04-19T02:58:40Z</time>
      </trkpt>
      <trkpt lat="44.8637" lon="6.59678">
        <ele>1173</ele>
        <time>2019-04-19T02:59:40Z</time>
      </trkpt>
      <trkpt lat="44.86289" lon="6.59523">
        <ele>1168</ele>
        <time>2019-04-19T03:00:40Z</time>
      </trkpt>
      <trkpt lat="44.86268" lon="6.5949">
        <ele>1167</ele>
        <time>2019-04-19T03:01:40Z</time>
      </trkpt>
      <trkpt lat="44.86079" lon="6.59117">
        <ele>1155</ele>
        <time>2019-04-19T03:02:40Z</time>
      </trkpt>
      <trkpt lat="44.86046" lon="6.5906">
        <ele>1154</ele>
        <time>2019-04-19T03:03:40Z</time>
      </trkpt>
      <trkpt lat="44.85985" lon="6.58982">
        <ele>1150</ele>
        <time>2019-04-19T03:04:40Z</time>
      </trkpt>
      <trkpt lat="44.85649" lon="6.58626">
        <ele>1160</ele>
        <time>2019-04-19T03:05:40Z</time>
      </trkpt>
      <trkpt lat="44.85406" lon="6.58361">
        <ele>1169</ele>
        <time>2019-04-19T03:06:40Z</time>
      </trkpt>
      <trkpt lat="44.85299" lon="6.58253">
        <ele>1165</ele>
        <time>2019-04-19T03:07:40Z</time>
      </trkpt>
      <trkpt lat="44.85242" lon="6.58215">
        <ele>1162</ele>
        <time>2019-04-19T03:08:40Z</time>
      </trkpt>
      <trkpt lat="44.85205" lon="6.58199">
        <ele>1159</ele>
        <time>2019-04-19T03:09:40Z</time>
      </trkpt>
      <trkpt lat="44.85183" lon="6.58195">
        <ele>1157</ele>
        <time>2019-04-19T03:10:40Z</time>
      </trkpt>
      <trkpt lat="44.85148" lon="6.58199">
        <ele>1152</ele>
        <time>2019-04-19T03:11:40Z</time>
      </trkpt>
      <trkpt lat="44.85116" lon="6.58209">
        <ele>1149</ele>
        <time>2019-04-19T03:12:40Z</time>
      </trkpt>
      <trkpt lat="44.85021" lon="6.58249">
        <ele>1153</ele>
        <time>2019-04-19T03:13:40Z</time>
      </trkpt>
      <trkpt lat="44.8499" lon="6.58258">
        <ele>1159</ele>
        <time>2019-04-19T03:14:40Z</time>
      </trkpt>
      <trkpt lat="44.84848" lon="6.58287">
        <ele>1165</ele>
        <time>2019-04-19T03:15:40Z</time>
      </trkpt>
      <trkpt lat="44.84703" lon="6.58314">
        <ele>1158</ele>
        <time>2019-04-19T03:16:40Z</time>
      </trkpt>
      <trkpt lat="44.84614" lon="6.58324">
        <ele>1153</ele>
        <time>2019-04-19T03:17:40Z</time>
      </trkpt>
      <trkpt lat="44.84587" lon="6.58322">
        <ele>1151</ele>
        <time>2019-04-19T03:18:40Z</time>
      </trkpt>
      <trkpt lat="44.8456" lon="6.58314">
        <ele>1149</ele>
        <time>2019-04-19T03:19:40Z</time>
      </trkpt>
      <trkpt lat="44.84503" lon="6.58291">
        <ele>1149</ele>
        <time>2019-04-19T03:20:40Z</time>
      </trkpt>
      <trkpt lat="44.84476" lon="6.58276">
        <ele>1150</ele>
        <time>2019-04-19T03:21:40Z</time>
      </trkpt>
      <trkpt lat="44.84443" lon="6.58263">
        <ele>1152</ele>
        <time>2019-04-19T03:22:40Z</time>
      </trkpt>
      <trkpt lat="44.84415" lon="6.58255">
        <ele>1153</ele>
        <time>2019-04-19T03:23:40Z</time>
      </trkpt>
      <trkpt lat="44.8437" lon="6.5825">
        <ele>1153</ele>
        <time>2019-04-19T03:24:40Z</time>
      </trkpt>
      <trkpt lat="44.84328" lon="6.58258">
        <ele>1153</ele>
        <time>2019-04-19T03:25:40Z</time>
      </trkpt>
      <trkpt lat="44.84305" lon="6.58267">
        <ele>1151</ele>
        <time>2019-04-19T03:26:40Z</time>
      </trkpt>
      <trkpt lat="44.84277" lon="6.58281">
        <ele>1150</ele>
        <time>2019-04-19T03:27:40Z</time>
      </trkpt>
      <trkpt lat="44.84253" lon="6.58298">
        <ele>1149</ele>
        <time>2019-04-19T03:28:40Z</time>
      </trkpt>
      <trkpt lat="44.84188" lon="6.58352">
        <ele>1147</ele>
        <time>2019-04-19T03:29:40Z</time>
      </trkpt>
      <trkpt lat="44.84138" lon="6.58387">
        <ele>1149</ele>
        <time>2019-04-19T03:30:40Z</time>
      </trkpt>
      <trkpt lat="44.84074" lon="6.58414">
        <ele>1145</ele>
        <time>2019-04-19T03:31:40Z</time>
      </trkpt>
      <trkpt lat="44.84005" lon="6.5843">
        <ele>1146</ele>
        <time>2019-04-19T03:32:40Z</time>
      </trkpt>
      <trkpt lat="44.83969" lon="6.58431">
        <ele>1146</ele>
        <time>2019-04-19T03:33:40Z</time>
      </trkpt>
      <trkpt lat="44.83847" lon="6.58425">
        <ele>1146</ele>
        <time>2019-04-19T03:34:40Z</time>
      </trkpt>
      <trkpt lat="44.83641" lon="6.58435">
        <ele>1168</ele>
        <time>2019-04-19T03:35:40Z</time>
      </trkpt>
      <trkpt lat="44.83576" lon="6.58424">
        <ele>1174</ele>
        <time>2019-04-19T03:36:40Z</time>
      </trkpt>
      <trkpt lat="44.83444" lon="6.58373">
        <ele>1179</ele>
        <time>2019-04-19T03:37:40Z</time>
      </trkpt>
      <trkpt lat="44.83339" lon="6.5833">
        <ele>1180</ele>
        <time>2019-04-19T03:38:40Z</time>
      </trkpt>
      <trkpt lat="44.8331" lon="6.58322">
        <ele>1183</ele>
        <time>2019-04-19T03:39:40Z</time>
      </trkpt>
      <trkpt lat="44.83249" lon="6.58313">
        <ele>1191</ele>
        <time>2019-04-19T03:40:40Z</time>
      </trkpt>
      <trkpt lat="44.83149" lon="6.58317">
        <ele>1200</ele>
        <time>2019-04-19T03:41:40Z</time>
      </trkpt>
      <trkpt lat="44.831" lon="6.58316">
        <ele>1204</ele>
        <time>2019-04-19T03:42:40Z</time>
      </trkpt>
      <trkpt lat="44.8308" lon="6.58309">
        <ele>1204</ele>
        <time>2019-04-19T03:43:40Z</time>
      </trkpt>
      <trkpt lat="44.8306" lon="6.58299">
        <ele>1203</ele>
        <time>2019-04-19T03:44:40Z</time>
      </trkpt>
      <trkpt lat="44.83034" lon="6.58271">
        <ele>1202</ele>
        <time>2019-04-19T03:45:40Z</time>
      </trkpt>
      <trkpt lat="44.83012" lon="6.58231">
        <ele>1204</ele>
        <time>2019-04-19T03:46:40Z</time>
      </trkpt>
      <trkpt lat="44.82992" lon="6.58156">
        <ele>1210</ele>
        <time>2019-04-19T03:47:40Z</time>
      </trkpt>
      <trkpt lat="44.82982" lon="6.58129">
        <ele>1209</ele>
        <time>2019-04-19T03:48:40Z</time>
      </trkpt>
      <trkpt lat="44.8296" lon="6.58095">
        <ele>1209</ele>
        <time>2019-04-19T03:49:40Z</time>
      </trkpt>
      <trkpt lat="44.82938" lon="6.58071">
        <ele>1210</ele>
        <time>2019-04-19T03:50:40Z</time>
      </trkpt>
      <trkpt lat="44.82913" lon="6.58055">
        <ele>1212</ele>
        <time>2019-04-19T03:51:40Z</time>
      </trkpt>
      <trkpt lat="44.82838" lon="6.58017">
        <ele>1216</ele>
        <time>2019-04-19T03:52:40Z</time>
      </trkpt>
      <trkpt lat="44.82784" lon="6.57997">
        <ele>1219</ele>
        <time>2019-04-19T03:53:40Z</time>
      </trkpt>
      <trkpt lat="44.82731" lon="6.57973">
        <ele>1221</ele>
        <time>2019-04-19T03:54:40Z</time>
      </trkpt>
      <trkpt lat="44.8271" lon="6.57967">
        <ele>1223</ele>
        <time>2019-04-19T03:55:40Z</time>
      </trkpt>
      <trkpt lat="44.82684" lon="6.5797">
        <ele>1225</ele>
        <time>2019-04-19T03:56:40Z</time>
      </trkpt>
      <trkpt lat="44.82616" lon="6.57985">
        <ele>1228</ele>
        <time>2019-04-19T03:57:40Z</time>
      </trkpt>
      <trkpt lat="44.82566" lon="6.58">
        <ele>1226</ele>
        <time>2019-04-19T03:58:40Z</time>
      </trkpt>
      <trkpt lat="44.82542" lon="6.58004">
        <ele>1227</ele>
        <time>2019-04-19T03:59:40Z</time>
      </trkpt>
      <trkpt lat="44.82517" lon="6.58005">
        <ele>1227</ele>
        <time>2019-04-19T04:00:40Z</time>
      </trkpt>
      <trkpt lat="44.82496" lon="6.58002">
        <ele>1227</ele>
        <time>2019-04-19T04:01:40Z</time>
      </trkpt>
      <trkpt lat="44.82477" lon="6.57994">
        <ele>1227</ele>
        <time>2019-04-19T04:02:40Z</time>
      </trkpt>
      <trkpt lat="44.8242" lon="6.57967">
        <ele>1228</ele>
        <time>2019-04-19T04:03:40Z</time>
      </trkpt>
      <trkpt lat="44.82322" lon="6.57912">
        <ele>1223</ele>
        <time>2019-04-19T04:04:40Z</time>
      </trkpt>
      <trkpt lat="44.82275" lon="6.57891">
        <ele>1216</ele>
        <time>2019-04-19T04:05:40Z</time>
      </trkpt>
      <trkpt lat="44.82241" lon="6.57887">
        <ele>1213</ele>
        <time>2019-04-19T04:06:40Z</time>
      </trkpt>
      <trkpt lat="44.82145" lon="6.57891">
        <ele>1212</ele>
        <time>2019-04-19T04:07:40Z</time>
      </trkpt>
      <trkpt lat="44.82115" lon="6.57887">
        <ele>1213</ele>
        <time>2019-04-19T04:08:40Z</time>
      </trkpt>
      <trkpt lat="44.82091" lon="6.57885">
        <ele>1214</ele>
        <time>2019-04-19T04:09:40Z</time>
      </trkpt>
      <trkpt lat="44.82042" lon="6.57888">
        <ele>1219</ele>
        <time>2019-04-19T04:10:40Z</time>
      </trkpt>
      <trkpt lat="44.82013" lon="6.57883">
        <ele>1220</ele>
        <time>2019-04-19T04:11:40Z</time>
      </trkpt>
      <trkpt lat="44.81992" lon="6.57863">
        <ele>1216</ele>
        <time>2019-04-19T04:12:40Z</time>
      </trkpt>
      <trkpt lat="44.81972" lon="6.57852">
        <ele>1215</ele>
        <time>2019-04-19T04:13:40Z</time>
      </trkpt>
      <trkpt lat="44.81952" lon="6.57844">
        <ele>1214</ele>
        <time>2019-04-19T04:14:40Z</time>
      </trkpt>
      <trkpt lat="44.81917" lon="6.57834">
        <ele>1214</ele>
        <time>2019-04-19T04:15:40Z</time>
      </trkpt>
      <trkpt lat="44.81898" lon="6.57825">
        <ele>1214</ele>
        <time>2019-04-19T04:16:40Z</time>
      </trkpt>
      <trkpt lat="44.81864" lon="6.57798">
        <ele>1208</ele>
        <time>2019-04-19T04:17:40Z</time>
      </trkpt>
      <trkpt lat="44.81826" lon="6.57773">
        <ele>1202</ele>
        <time>2019-04-19T04:18:40Z</time>
      </trkpt>
      <trkpt lat="44.8169" lon="6.57728">
        <ele>1209</ele>
        <time>2019-04-19T04:19:40Z</time>
      </trkpt>
      <trkpt lat="44.81631" lon="6.57716">
        <ele>1211</ele>
        <time>2019-04-19T04:20:40Z</time>
      </trkpt>
      <trkpt lat="44.8157" lon="6.57708">
        <ele>1216</ele>
        <time>2019-04-19T04:21:40Z</time>
      </trkpt>
      <trkpt lat="44.81526" lon="6.57699">
        <ele>1219</ele>
        <time>2019-04-19T04:22:40Z</time>
      </trkpt>
      <trkpt lat="44.81506" lon="6.57693">
        <ele>1220</ele>
        <time>2019-04-19T04:23:40Z</time>
      </trkpt>
      <trkpt lat="44.81489" lon="6.5768">
        <ele>1220</ele>
        <time>2019-04-19T04:24:40Z</time>
      </trkpt>
      <trkpt lat="44.81474" lon="6.57661">
        <ele>1218</ele>
        <time>2019-04-19T04:25:40Z</time>
      </trkpt>
      <trkpt lat="44.81442" lon="6.576">
        <ele>1208</ele>
        <time>2019-04-19T04:26:40Z</time>
      </trkpt>
      <trkpt lat="44.81416" lon="6.57571">
        <ele>1206</ele>
        <time>2019-04-19T04:27:40Z</time>
      </trkpt>
      <trkpt lat="44.81395" lon="6.5756">
        <ele>1202</ele>
        <time>2019-04-19T04:28:40Z</time>
      </trkpt>
      <trkpt lat="44.81281" lon="6.57546">
        <ele>1207</ele>
        <time>2019-04-19T04:29:40Z</time>
      </trkpt>
      <trkpt lat="44.81233" lon="6.57526">
        <ele>1208</ele>
        <time>2019-04-19T04:30:40Z</time>
      </trkpt>
      <trkpt lat="44.81172" lon="6.57463">
        <ele>1200</ele>
        <time>2019-04-19T04:31:40Z</time>
      </trkpt>
      <trkpt lat="44.81147" lon="6.57447">
        <ele>1198</ele>
        <time>2019-04-19T04:32:40Z</time>
      </trkpt>
      <trkpt lat="44.81043" lon="6.5741">
        <ele>1195</ele>
        <time>2019-04-19T04:33:40Z</time>
      </trkpt>
      <trkpt lat="44.8101" lon="6.57407">
        <ele>1196</ele>
        <time>2019-04-19T04:34:40Z</time>
      </trkpt>
      <trkpt lat="44.80908" lon="6.57417">
        <ele>1197</ele>
        <time>2019-04-19T04:35:40Z</time>
      </trkpt>
      <trkpt lat="44.8089" lon="6.57416">
        <ele>1197</ele>
        <time>2019-04-19T04:36:40Z</time>
      </trkpt>
      <trkpt lat="44.80873" lon="6.57411">
        <ele>1195</ele>
        <time>2019-04-19T04:37:40Z</time>
      </trkpt>
      <trkpt lat="44.80854" lon="6.57398">
        <ele>1193</ele>
        <time>2019-04-19T04:38:40Z</time>
      </trkpt>
      <trkpt lat="44.80839" lon="6.57383">
        <ele>1191</ele>
        <time>2019-04-19T04:39:40Z</time>
      </trkpt>
      <trkpt lat="44.80822" lon="6.57358">
        <ele>1189</ele>
        <time>2019-04-19T04:40:40Z</time>
      </trkpt>
      <trkpt lat="44.80805" lon="6.57323">
        <ele>1187</ele>
        <time>2019-04-19T04:41:40Z</time>
      </trkpt>
      <trkpt lat="44.80677" lon="6.56988">
        <ele>1160</ele>
        <time>2019-04-19T04:42:40Z</time>
      </trkpt>
      <trkpt lat="44.80656" lon="6.56943">
        <ele>1159</ele>
        <time>2019-04-19T04:43:40Z</time>
      </trkpt>
      <trkpt lat="44.80636" lon="6.56907">
        <ele>1157</ele>
        <time>2019-04-19T04:44:40Z</time>
      </trkpt>
      <trkpt lat="44.80588" lon="6.56835">
        <ele>1151</ele>
        <time>2019-04-19T04:45:40Z</time>
      </trkpt>
      <trkpt lat="44.80543" lon="6.56791">
        <ele>1144</ele>
        <time>2019-04-19T04:46:40Z</time>
      </trkpt>
      <trkpt lat="44.80496" lon="6.56773">
        <ele>1140</ele>
        <time>2019-04-19T04:47:40Z</time>
      </trkpt>
      <trkpt lat="44.80477" lon="6.56773">
        <ele>1138</ele>
        <time>2019-04-19T04:48:40Z</time>
      </trkpt>
      <trkpt lat="44.80425" lon="6.56781">
        <ele>1134</ele>
        <time>2019-04-19T04:49:40Z</time>
      </trkpt>
      <trkpt lat="44.80404" lon="6.56792">
        <ele>1134</ele>
        <time>2019-04-19T04:50:40Z</time>
      </trkpt>
      <trkpt lat="44.80363" lon="6.56818">
        <ele>1133</ele>
        <time>2019-04-19T04:51:40Z</time>
      </trkpt>
      <trkpt lat="44.80355" lon="6.5682">
        <ele>1132</ele>
        <time>2019-04-19T04:52:40Z</time>
      </trkpt>
      <trkpt lat="44.80348" lon="6.56819">
        <ele>1131</ele>
        <time>2019-04-19T04:53:40Z</time>
      </trkpt>
      <trkpt lat="44.8034" lon="6.5681">
        <ele>1127</ele>
        <time>2019-04-19T04:54:40Z</time>
      </trkpt>
      <trkpt lat="44.80336" lon="6.56798">
        <ele>1124</ele>
        <time>2019-04-19T04:55:40Z</time>
      </trkpt>
      <trkpt lat="44.80343" lon="6.5678">
        <ele>1121</ele>
        <time>2019-04-19T04:56:40Z</time>
      </trkpt>
      <trkpt lat="44.80348" lon="6.56776">
        <ele>1121</ele>
        <time>2019-04-19T04:57:40Z</time>
      </trkpt>
      <trkpt lat="44.80371" lon="6.56767">
        <ele>1123</ele>
        <time>2019-04-19T04:58:40Z</time>
      </trkpt>
      <trkpt lat="44.8041" lon="6.5676">
        <ele>1128</ele>
        <time>2019-04-19T04:59:40Z</time>
      </trkpt>
      <trkpt lat="44.80463" lon="6.56747">
        <ele>1132</ele>
        <time>2019-04-19T05:00:40Z</time>
      </trkpt>
      <trkpt lat="44.8048" lon="6.5674">
        <ele>1132</ele>
        <time>2019-04-19T05:01:40Z</time>
      </trkpt>
      <trkpt lat="44.80505" lon="6.56724">
        <ele>1131</ele>
        <time>2019-04-19T05:02:40Z</time>
      </trkpt>
      <trkpt lat="44.80519" lon="6.56711">
        <ele>1129</ele>
        <time>2019-04-19T05:03:40Z</time>
      </trkpt>
      <trkpt lat="44.80534" lon="6.56692">
        <ele>1125</ele>
        <time>2019-04-19T05:04:40Z</time>
      </trkpt>
      <trkpt lat="44.8055" lon="6.56665">
        <ele>1119</ele>
        <time>2019-04-19T05:05:40Z</time>
      </trkpt>
      <trkpt lat="44.80572" lon="6.56637">
        <ele>1113</ele>
        <time>2019-04-19T05:06:40Z</time>
      </trkpt>
      <trkpt lat="44.80591" lon="6.56626">
        <ele>1112</ele>
        <time>2019-04-19T05:07:40Z</time>
      </trkpt>
      <trkpt lat="44.80655" lon="6.56613">
        <ele>1117</ele>
        <time>2019-04-19T05:08:40Z</time>
      </trkpt>
      <trkpt lat="44.80665" lon="6.56607">
        <ele>1117</ele>
        <time>2019-04-19T05:09:40Z</time>
      </trkpt>
      <trkpt lat="44.80672" lon="6.56593">
        <ele>1114</ele>
        <time>2019-04-19T05:10:40Z</time>
      </trkpt>
      <trkpt lat="44.80672" lon="6.56579">
        <ele>1110</ele>
        <time>2019-04-19T05:11:40Z</time>
      </trkpt>
      <trkpt lat="44.80668" lon="6.56568">
        <ele>1107</ele>
        <time>2019-04-19T05:12:40Z</time>
      </trkpt>
      <trkpt lat="44.80658" lon="6.56563">
        <ele>1104</ele>
        <time>2019-04-19T05:13:40Z</time>
      </trkpt>
      <trkpt lat="44.80615" lon="6.56571">
        <ele>1101</ele>
        <time>2019-04-19T05:14:40Z</time>
      </trkpt>
      <trkpt lat="44.80599" lon="6.56572">
        <ele>1100</ele>
        <time>2019-04-19T05:15:40Z</time>
      </trkpt>
      <trkpt lat="44.80551" lon="6.56563">
        <ele>1095</ele>
        <time>2019-04-19T05:16:40Z</time>
      </trkpt>
      <trkpt lat="44.80527" lon="6.56552">
        <ele>1091</ele>
        <time>2019-04-19T05:17:40Z</time>
      </trkpt>
      <trkpt lat="44.80494" lon="6.56542">
        <ele>1088</ele>
        <time>2019-04-19T05:18:40Z</time>
      </trkpt>
      <trkpt lat="44.80429" lon="6.5653">
        <ele>1084</ele>
        <time>2019-04-19T05:19:40Z</time>
      </trkpt>
      <trkpt lat="44.80413" lon="6.56531">
        <ele>1084</ele>
        <time>2019-04-19T05:20:40Z</time>
      </trkpt>
      <trkpt lat="44.80399" lon="6.56534">
        <ele>1083</ele>
        <time>2019-04-19T05:21:40Z</time>
      </trkpt>
      <trkpt lat="44.80385" lon="6.56541">
        <ele>1083</ele>
        <time>2019-04-19T05:22:40Z</time>
      </trkpt>
      <trkpt lat="44.80326" lon="6.56577">
        <ele>1082</ele>
        <time>2019-04-19T05:23:40Z</time>
      </trkpt>
      <trkpt lat="44.80298" lon="6.56592">
        <ele>1080</ele>
        <time>2019-04-19T05:24:40Z</time>
      </trkpt>
      <trkpt lat="44.80274" lon="6.56601">
        <ele>1077</ele>
        <time>2019-04-19T05:25:40Z</time>
      </trkpt>
      <trkpt lat="44.8025" lon="6.56607">
        <ele>1073</ele>
        <time>2019-04-19T05:26:40Z</time>
      </trkpt>
      <trkpt lat="44.80203" lon="6.56607">
        <ele>1070</ele>
        <time>2019-04-19T05:27:40Z</time>
      </trkpt>
      <trkpt lat="44.80144" lon="6.56603">
        <ele>1066</ele>
        <time>2019-04-19T05:28:40Z</time>
      </trkpt>
      <trkpt lat="44.80088" lon="6.56604">
        <ele>1063</ele>
        <time>2019-04-19T05:29:40Z</time>
      </trkpt>
      <trkpt lat="44.80015" lon="6.56597">
        <ele>1057</ele>
        <time>2019-04-19T05:30:40Z</time>
      </trkpt>
      <trkpt lat="44.79967" lon="6.5659">
        <ele>1054</ele>
        <time>2019-04-19T05:31:40Z</time>
      </trkpt>
      <trkpt lat="44.79933" lon="6.56577">
        <ele>1052</ele>
        <time>2019-04-19T05:32:40Z</time>
      </trkpt>
      <trkpt lat="44.79905" lon="6.56556">
        <ele>1051</ele>
        <time>2019-04-19T05:33:40Z</time>
      </trkpt>
      <trkpt lat="44.79876" lon="6.56524">
        <ele>1050</ele>
        <time>2019-04-19T05:34:40Z</time>
      </trkpt>
      <trkpt lat="44.79848" lon="6.56488">
        <ele>1046</ele>
        <time>2019-04-19T05:35:40Z</time>
      </trkpt>
      <trkpt lat="44.79815" lon="6.56434">
        <ele>1040</ele>
        <time>2019-04-19T05:36:40Z</time>
      </trkpt>
      <trkpt lat="44.79777" lon="6.56385">
        <ele>1034</ele>
        <time>2019-04-19T05:37:40Z</time>
      </trkpt>
      <trkpt lat="44.79765" lon="6.56373">
        <ele>1033</ele>
        <time>2019-04-19T05:38:40Z</time>
      </trkpt>
      <trkpt lat="44.79699" lon="6.56322">
        <ele>1026</ele>
        <time>2019-04-19T05:39:40Z</time>
      </trkpt>
      <trkpt lat="44.79671" lon="6.56303">
        <ele>1023</ele>
        <time>2019-04-19T05:40:40Z</time>
      </trkpt>
      <trkpt lat="44.79642" lon="6.56287">
        <ele>1020</ele>
        <time>2019-04-19T05:41:40Z</time>
      </trkpt>
      <trkpt lat="44.79611" lon="6.56277">
        <ele>1018</ele>
        <time>2019-04-19T05:42:40Z</time>
      </trkpt>
      <trkpt lat="44.79532" lon="6.56261">
        <ele>1011</ele>
        <time>2019-04-19T05:43:40Z</time>
      </trkpt>
      <trkpt lat="44.79476" lon="6.56255">
        <ele>1006</ele>
        <time>2019-04-19T05:44:40Z</time>
      </trkpt>
      <trkpt lat="44.79419" lon="6.56252">
        <ele>1001</ele>
        <time>2019-04-19T05:45:40Z</time>
      </trkpt>
      <trkpt lat="44.79065" lon="6.56182">
        <ele>981</ele>
        <time>2019-04-19T05:46:40Z</time>
      </trkpt>
      <trkpt lat="44.79014" lon="6.56165">
        <ele>977</ele>
        <time>2019-04-19T05:47:40Z</time>
      </trkpt>
      <trkpt lat="44.7899" lon="6.56159">
        <ele>977</ele>
        <time>2019-04-19T05:48:40Z</time>
      </trkpt>
      <trkpt lat="44.78797" lon="6.56121">
        <ele>978</ele>
        <time>2019-04-19T05:49:40Z</time>
      </trkpt>
      <trkpt lat="44.78713" lon="6.56112">
        <ele>981</ele>
        <time>2019-04-19T05:50:40Z</time>
      </trkpt>
      <trkpt lat="44.78422" lon="6.5606">
        <ele>994</ele>
        <time>2019-04-19T05:51:40Z</time>
      </trkpt>
      <trkpt lat="44.7838" lon="6.56055">
        <ele>993</ele>
        <time>2019-04-19T05:52:40Z</time>
      </trkpt>
      <trkpt lat="44.78339" lon="6.56055">
        <ele>991</ele>
        <time>2019-04-19T05:53:40Z</time>
      </trkpt>
      <trkpt lat="44.78299" lon="6.56059">
        <ele>989</ele>
        <time>2019-04-19T05:54:40Z</time>
      </trkpt>
      <trkpt lat="44.78235" lon="6.56072">
        <ele>985</ele>
        <time>2019-04-19T05:55:40Z</time>
      </trkpt>
      <trkpt lat="44.78123" lon="6.56111">
        <ele>985</ele>
        <time>2019-04-19T05:56:40Z</time>
      </trkpt>
      <trkpt lat="44.78083" lon="6.56112">
        <ele>983</ele>
        <time>2019-04-19T05:57:40Z</time>
      </trkpt>
      <trkpt lat="44.78044" lon="6.56106">
        <ele>983</ele>
        <time>2019-04-19T05:58:40Z</time>
      </trkpt>
      <trkpt lat="44.77975" lon="6.56088">
        <ele>979</ele>
        <time>2019-04-19T05:59:40Z</time>
      </trkpt>
      <trkpt lat="44.77762" lon="6.56003">
        <ele>964</ele>
        <time>2019-04-19T06:00:40Z</time>
      </trkpt>
      <trkpt lat="44.77743" lon="6.55998">
        <ele>964</ele>
        <time>2019-04-19T06:01:40Z</time>
      </trkpt>
      <trkpt lat="44.77572" lon="6.55976">
        <ele>969</ele>
        <time>2019-04-19T06:02:40Z</time>
      </trkpt>
      <trkpt lat="44.77543" lon="6.55973">
        <ele>969</ele>
        <time>2019-04-19T06:03:40Z</time>
      </trkpt>
      <trkpt lat="44.77508" lon="6.55976">
        <ele>971</ele>
        <time>2019-04-19T06:04:40Z</time>
      </trkpt>
      <trkpt lat="44.7728" lon="6.5602">
        <ele>964</ele>
        <time>2019-04-19T06:05:40Z</time>
      </trkpt>
      <trkpt lat="44.77253" lon="6.5603">
        <ele>964</ele>
        <time>2019-04-19T06:06:40Z</time>
      </trkpt>
      <trkpt lat="44.77228" lon="6.56042">
        <ele>964</ele>
        <time>2019-04-19T06:07:40Z</time>
      </trkpt>
      <trkpt lat="44.77186" lon="6.56071">
        <ele>960</ele>
        <time>2019-04-19T06:08:40Z</time>
      </trkpt>
      <trkpt lat="44.77148" lon="6.56107">
        <ele>962</ele>
        <time>2019-04-19T06:09:40Z</time>
      </trkpt>
      <trkpt lat="44.77111" lon="6.56137">
        <ele>966</ele>
        <time>2019-04-19T06:10:40Z</time>
      </trkpt>
      <trkpt lat="44.76824" lon="6.56341">
        <ele>959</ele>
        <time>2019-04-19T06:11:40Z</time>
      </trkpt>
      <trkpt lat="44.76767" lon="6.56391">
        <ele>956</ele>
        <time>2019-04-19T06:12:40Z</time>
      </trkpt>
      <trkpt lat="44.76533" lon="6.56645">
        <ele>952</ele>
        <time>2019-04-19T06:13:40Z</time>
      </trkpt>
      <trkpt lat="44.76215" lon="6.56975">
        <ele>946</ele>
        <time>2019-04-19T06:14:40Z</time>
      </trkpt>
      <trkpt lat="44.7618" lon="6.57006">
        <ele>947</ele>
        <time>2019-04-19T06:15:40Z</time>
      </trkpt>
      <trkpt lat="44.76091" lon="6.57095">
        <ele>946</ele>
        <time>2019-04-19T06:16:40Z</time>
      </trkpt>
      <trkpt lat="44.76011" lon="6.57178">
        <ele>946</ele>
        <time>2019-04-19T06:17:40Z</time>
      </trkpt>
      <trkpt lat="44.75969" lon="6.57218">
        <ele>948</ele>
        <time>2019-04-19T06:18:40Z</time>
      </trkpt>
      <trkpt lat="44.75936" lon="6.57245">
        <ele>948</ele>
        <time>2019-04-19T06:19:40Z</time>
      </trkpt>
      <trkpt lat="44.75807" lon="6.57326">
        <ele>943</ele>
        <time>2019-04-19T06:20:40Z</time>
      </trkpt>
      <trkpt lat="44.75626" lon="6.57448">
        <ele>941</ele>
        <time>2019-04-19T06:21:40Z</time>
      </trkpt>
      <trkpt lat="44.75522" lon="6.57508">
        <ele>940</ele>
        <time>2019-04-19T06:22:40Z</time>
      </trkpt>
      <trkpt lat="44.75448" lon="6.57556">
        <ele>939</ele>
        <time>2019-04-19T06:23:40Z</time>
      </trkpt>
      <trkpt lat="44.75402" lon="6.57589">
        <ele>939</ele>
        <time>2019-04-19T06:24:40Z</time>
      </trkpt>
      <trkpt lat="44.75378" lon="6.57605">
        <ele>939</ele>
        <time>2019-04-19T06:25:40Z</time>
      </trkpt>
      <trkpt lat="44.75352" lon="6.57626">
        <ele>939</ele>
        <time>2019-04-19T06:26:40Z</time>
      </trkpt>
      <trkpt lat="44.75196" lon="6.57725">
        <ele>937</ele>
        <time>2019-04-19T06:27:40Z</time>
      </trkpt>
      <trkpt lat="44.75018" lon="6.57844">
        <ele>945</ele>
        <time>2019-04-19T06:28:40Z</time>
      </trkpt>
      <trkpt lat="44.7495" lon="6.57886">
        <ele>945</ele>
        <time>2019-04-19T06:29:40Z</time>
      </trkpt>
      <trkpt lat="44.74845" lon="6.57954">
        <ele>947</ele>
        <time>2019-04-19T06:30:40Z</time>
      </trkpt>
      <trkpt lat="44.74801" lon="6.57964">
        <ele>945</ele>
        <time>2019-04-19T06:31:40Z</time>
      </trkpt>
      <trkpt lat="44.7477" lon="6.5799">
        <ele>945</ele>
        <time>2019-04-19T06:32:40Z</time>
      </trkpt>
      <trkpt lat="44.74732" lon="6.58019">
        <ele>944</ele>
        <time>2019-04-19T06:33:40Z</time>
      </trkpt>
      <trkpt lat="44.74657" lon="6.5806">
        <ele>944</ele>
        <time>2019-04-19T06:34:40Z</time>
      </trkpt>
      <trkpt lat="44.74618" lon="6.58085">
        <ele>949</ele>
        <time>2019-04-19T06:35:40Z</time>
      </trkpt>
      <trkpt lat="44.7457" lon="6.58122">
        <ele>950</ele>
        <time>2019-04-19T06:36:40Z</time>
      </trkpt>
      <trkpt lat="44.7443" lon="6.58219">
        <ele>953</ele>
        <time>2019-04-19T06:37:40Z</time>
      </trkpt>
      <trkpt lat="44.74408" lon="6.58228">
        <ele>954</ele>
        <time>2019-04-19T06:38:40Z</time>
      </trkpt>
      <trkpt lat="44.74363" lon="6.58237">
        <ele>953</ele>
        <time>2019-04-19T06:39:40Z</time>
      </trkpt>
      <trkpt lat="44.74268" lon="6.58253">
        <ele>950</ele>
        <time>2019-04-19T06:40:40Z</time>
      </trkpt>
      <trkpt lat="44.7424" lon="6.5826">
        <ele>950</ele>
        <time>2019-04-19T06:41:40Z</time>
      </trkpt>
      <trkpt lat="44.74206" lon="6.58271">
        <ele>950</ele>
        <time>2019-04-19T06:42:40Z</time>
      </trkpt>
      <trkpt lat="44.74146" lon="6.58288">
        <ele>950</ele>
        <time>2019-04-19T06:43:40Z</time>
      </trkpt>
      <trkpt lat="44.74012" lon="6.58331">
        <ele>941</ele>
        <time>2019-04-19T06:44:40Z</time>
      </trkpt>
      <trkpt lat="44.73942" lon="6.58348">
        <ele>936</ele>
        <time>2019-04-19T06:45:40Z</time>
      </trkpt>
      <trkpt lat="44.73638" lon="6.58389">
        <ele>929</ele>
        <time>2019-04-19T06:46:40Z</time>
      </trkpt>
      <trkpt lat="44.73359" lon="6.58421">
        <ele>928</ele>
        <time>2019-04-19T06:47:40Z</time>
      </trkpt>
      <trkpt lat="44.73264" lon="6.58443">
        <ele>934</ele>
        <time>2019-04-19T06:48:40Z</time>
      </trkpt>
      <trkpt lat="44.72831" lon="6.58581">
        <ele>925</ele>
        <time>2019-04-19T06:49:40Z</time>
      </trkpt>
      <trkpt lat="44.72757" lon="6.58611">
        <ele>922</ele>
        <time>2019-04-19T06:50:40Z</time>
      </trkpt>
      <trkpt lat="44.72684" lon="6.58662">
        <ele>920</ele>
        <time>2019-04-19T06:51:40Z</time>
      </trkpt>
      <trkpt lat="44.72642" lon="6.58701">
        <ele>921</ele>
        <time>2019-04-19T06:52:40Z</time>
      </trkpt>
      <trkpt lat="44.72466" lon="6.58876">
        <ele>921</ele>
        <time>2019-04-19T06:53:40Z</time>
      </trkpt>
      <trkpt lat="44.7243" lon="6.58915">
        <ele>919</ele>
        <time>2019-04-19T06:54:40Z</time>
      </trkpt>
      <trkpt lat="44.72391" lon="6.58953">
        <ele>919</ele>
        <time>2019-04-19T06:55:40Z</time>
      </trkpt>
      <trkpt lat="44.72354" lon="6.58995">
        <ele>918</ele>
        <time>2019-04-19T06:56:40Z</time>
      </trkpt>
      <trkpt lat="44.72136" lon="6.59217">
        <ele>917</ele>
        <time>2019-04-19T06:57:40Z</time>
      </trkpt>
      <trkpt lat="44.71912" lon="6.59442">
        <ele>923</ele>
        <time>2019-04-19T06:58:40Z</time>
      </trkpt>
      <trkpt lat="44.71745" lon="6.59617">
        <ele>917</ele>
        <time>2019-04-19T06:59:40Z</time>
      </trkpt>
      <trkpt lat="44.71207" lon="6.60162">
        <ele>916</ele>
        <time>2019-04-19T07:00:40Z</time>
      </trkpt>
      <trkpt lat="44.71161" lon="6.60201">
        <ele>915</ele>
        <time>2019-04-19T07:01:40Z</time>
      </trkpt>
      <trkpt lat="44.71121" lon="6.6023">
        <ele>913</ele>
        <time>2019-04-19T07:02:40Z</time>
      </trkpt>
      <trkpt lat="44.71065" lon="6.60256">
        <ele>910</ele>
        <time>2019-04-19T07:03:40Z</time>
      </trkpt>
      <trkpt lat="44.70888" lon="6.6032">
        <ele>904</ele>
        <time>2019-04-19T07:04:40Z</time>
      </trkpt>
      <trkpt lat="44.70785" lon="6.60368">
        <ele>904</ele>
        <time>2019-04-19T07:05:40Z</time>
      </trkpt>
      <trkpt lat="44.70685" lon="6.60423">
        <ele>903</ele>
        <time>2019-04-19T07:06:40Z</time>
      </trkpt>
      <trkpt lat="44.70584" lon="6.60484">
        <ele>901</ele>
        <time>2019-04-19T07:07:40Z</time>
      </trkpt>
      <trkpt lat="44.70402" lon="6.6063">
        <ele>906</ele>
        <time>2019-04-19T07:08:40Z</time>
      </trkpt>
      <trkpt lat="44.70163" lon="6.60839">
        <ele>904</ele>
        <time>2019-04-19T07:09:40Z</time>
      </trkpt>
      <trkpt lat="44.701" lon="6.60889">
        <ele>903</ele>
        <time>2019-04-19T07:10:40Z</time>
      </trkpt>
      <trkpt lat="44.70053" lon="6.6093">
        <ele>902</ele>
        <time>2019-04-19T07:11:40Z</time>
      </trkpt>
      <trkpt lat="44.6998" lon="6.60977">
        <ele>902</ele>
        <time>2019-04-19T07:12:40Z</time>
      </trkpt>
      <trkpt lat="44.69946" lon="6.60994">
        <ele>901</ele>
        <time>2019-04-19T07:13:40Z</time>
      </trkpt>
      <trkpt lat="44.6993" lon="6.61">
        <ele>901</ele>
        <time>2019-04-19T07:14:40Z</time>
      </trkpt>
      <trkpt lat="44.69919" lon="6.61007">
        <ele>901</ele>
        <time>2019-04-19T07:15:40Z</time>
      </trkpt>
      <trkpt lat="44.69777" lon="6.61051">
        <ele>904</ele>
        <time>2019-04-19T07:16:40Z</time>
      </trkpt>
      <trkpt lat="44.67728" lon="6.61644">
        <ele>889</ele>
        <time>2019-04-19T07:17:40Z</time>
      </trkpt>
      <trkpt lat="44.67672" lon="6.61654">
        <ele>888</ele>
        <time>2019-04-19T07:18:40Z</time>
      </trkpt>
      <trkpt lat="44.67596" lon="6.61666">
        <ele>887</ele>
        <time>2019-04-19T07:19:40Z</time>
      </trkpt>
      <trkpt lat="44.67568" lon="6.61678">
        <ele>887</ele>
        <time>2019-04-19T07:20:40Z</time>
      </trkpt>
      <trkpt lat="44.67538" lon="6.61695">
        <ele>888</ele>
        <time>2019-04-19T07:21:40Z</time>
      </trkpt>
      <trkpt lat="44.67456" lon="6.61721">
        <ele>888</ele>
        <time>2019-04-19T07:22:40Z</time>
      </trkpt>
      <trkpt lat="44.67276" lon="6.61769">
        <ele>887</ele>
        <time>2019-04-19T07:23:40Z</time>
      </trkpt>
      <trkpt lat="44.6717" lon="6.61801">
        <ele>890</ele>
        <time>2019-04-19T07:24:40Z</time>
      </trkpt>
      <trkpt lat="44.67134" lon="6.61816">
        <ele>890</ele>
        <time>2019-04-19T07:25:40Z</time>
      </trkpt>
      <trkpt lat="44.67116" lon="6.61817">
        <ele>890</ele>
        <time>2019-04-19T07:26:40Z</time>
      </trkpt>
      <trkpt lat="44.67037" lon="6.61833">
        <ele>888</ele>
        <time>2019-04-19T07:27:40Z</time>
      </trkpt>
      <trkpt lat="44.67012" lon="6.61842">
        <ele>889</ele>
        <time>2019-04-19T07:28:40Z</time>
      </trkpt>
      <trkpt lat="44.66952" lon="6.61845">
        <ele>889</ele>
        <time>2019-04-19T07:29:40Z</time>
      </trkpt>
      <trkpt lat="44.66904" lon="6.61838">
        <ele>889</ele>
        <time>2019-04-19T07:30:40Z</time>
      </trkpt>
      <trkpt lat="44.66846" lon="6.61818">
        <ele>888</ele>
        <time>2019-04-19T07:31:40Z</time>
      </trkpt>
      <trkpt lat="44.66811" lon="6.61799">
        <ele>889</ele>
        <time>2019-04-19T07:32:40Z</time>
      </trkpt>
      <trkpt lat="44.66765" lon="6.61768">
        <ele>890</ele>
        <time>2019-04-19T07:33:40Z</time>
      </trkpt>
      <trkpt lat="44.66717" lon="6.61719">
        <ele>891</ele>
        <time>2019-04-19T07:34:40Z</time>
      </trkpt>
      <trkpt lat="44.66692" lon="6.61689">
        <ele>891</ele>
        <time>2019-04-19T07:35:40Z</time>
      </trkpt>
      <trkpt lat="44.66663" lon="6.61644">
        <ele>891</ele>
        <time>2019-04-19T07:36:40Z</time>
      </trkpt>
      <trkpt lat="44.66635" lon="6.61593">
        <ele>891</ele>
        <time>2019-04-19T07:37:40Z</time>
      </trkpt>
      <trkpt lat="44.66594" lon="6.61515">
        <ele>891</ele>
        <time>2019-04-19T07:38:40Z</time>
      </trkpt>
      <trkpt lat="44.66583" lon="6.61466">
        <ele>891</ele>
        <time>2019-04-19T07:39:40Z</time>
      </trkpt>
      <trkpt lat="44.66583" lon="6.61459">
        <ele>891</ele>
        <time>2019-04-19T07:40:40Z</time>
      </trkpt>
      <trkpt lat="44.6658" lon="6.61444">
        <ele>891</ele>
        <time>2019-04-19T07:41:40Z</time>
      </trkpt>
      <trkpt lat="44.66576" lon="6.61439">
        <ele>891</ele>
        <time>2019-04-19T07:42:40Z</time>
      </trkpt>
      <trkpt lat="44.66565" lon="6.61434">
        <ele>891</ele>
        <time>2019-04-19T07:43:40Z</time>
      </trkpt>
      <trkpt lat="44.66555" lon="6.61424">
        <ele>891</ele>
        <time>2019-04-19T07:44:40Z</time>
      </trkpt>
      <trkpt lat="44.66506" lon="6.61345">
        <ele>890</ele>
        <time>2019-04-19T07:45:40Z</time>
      </trkpt>
      <trkpt lat="44.65997" lon="6.60339">
        <ele>884</ele>
        <time>2019-04-19T07:46:40Z</time>
      </trkpt>
      <trkpt lat="44.659" lon="6.60154">
        <ele>882</ele>
        <time>2019-04-19T07:47:40Z</time>
      </trkpt>
      <trkpt lat="44.6558" lon="6.59522">
        <ele>882</ele>
        <time>2019-04-19T07:48:40Z</time>
      </trkpt>
      <trkpt lat="44.6548" lon="6.59329">
        <ele>878</ele>
        <time>2019-04-19T07:49:40Z</time>
      </trkpt>
      <trkpt lat="44.65194" lon="6.58768">
        <ele>882</ele>
        <time>2019-04-19T07:50:40Z</time>
      </trkpt>
      <trkpt lat="44.65141" lon="6.58659">
        <ele>877</ele>
        <time>2019-04-19T07:51:40Z</time>
      </trkpt>
      <trkpt lat="44.65125" lon="6.58632">
        <ele>878</ele>
        <time>2019-04-19T07:52:40Z</time>
      </trkpt>
      <trkpt lat="44.65074" lon="6.58558">
        <ele>879</ele>
        <time>2019-04-19T07:53:40Z</time>
      </trkpt>
      <trkpt lat="44.65061" lon="6.58528">
        <ele>877</ele>
        <time>2019-04-19T07:54:40Z</time>
      </trkpt>
      <trkpt lat="44.65054" lon="6.58505">
        <ele>876</ele>
        <time>2019-04-19T07:55:40Z</time>
      </trkpt>
      <trkpt lat="44.65047" lon="6.5847">
        <ele>875</ele>
        <time>2019-04-19T07:56:40Z</time>
      </trkpt>
      <trkpt lat="44.65044" lon="6.58422">
        <ele>875</ele>
        <time>2019-04-19T07:57:40Z</time>
      </trkpt>
      <trkpt lat="44.65047" lon="6.58293">
        <ele>874</ele>
        <time>2019-04-19T07:58:40Z</time>
      </trkpt>
      <trkpt lat="44.65027" lon="6.58184">
        <ele>873</ele>
        <time>2019-04-19T07:59:40Z</time>
      </trkpt>
      <trkpt lat="44.65019" lon="6.58127">
        <ele>873</ele>
        <time>2019-04-19T08:00:40Z</time>
      </trkpt>
      <trkpt lat="44.65001" lon="6.58082">
        <ele>872</ele>
        <time>2019-04-19T08:01:40Z</time>
      </trkpt>
      <trkpt lat="44.64921" lon="6.57989">
        <ele>875</ele>
        <time>2019-04-19T08:02:40Z</time>
      </trkpt>
      <trkpt lat="44.64872" lon="6.57881">
        <ele>876</ele>
        <time>2019-04-19T08:03:40Z</time>
      </trkpt>
      <trkpt lat="44.64852" lon="6.57856">
        <ele>876</ele>
        <time>2019-04-19T08:04:40Z</time>
      </trkpt>
      <trkpt lat="44.64752" lon="6.57742">
        <ele>872</ele>
        <time>2019-04-19T08:05:40Z</time>
      </trkpt>
      <trkpt lat="44.64447" lon="6.57401">
        <ele>871</ele>
        <time>2019-04-19T08:06:40Z</time>
      </trkpt>
      <trkpt lat="44.63905" lon="6.56789">
        <ele>896</ele>
        <time>2019-04-19T08:07:40Z</time>
      </trkpt>
      <trkpt lat="44.63802" lon="6.56669">
        <ele>894</ele>
        <time>2019-04-19T08:08:40Z</time>
      </trkpt>
      <trkpt lat="44.63753" lon="6.5661">
        <ele>903</ele>
        <time>2019-04-19T08:09:40Z</time>
      </trkpt>
      <trkpt lat="44.63733" lon="6.56595">
        <ele>905</ele>
        <time>2019-04-19T08:10:40Z</time>
      </trkpt>
      <trkpt lat="44.63532" lon="6.56515">
        <ele>910</ele>
        <time>2019-04-19T08:11:40Z</time>
      </trkpt>
      <trkpt lat="44.63513" lon="6.56501">
        <ele>912</ele>
        <time>2019-04-19T08:12:40Z</time>
      </trkpt>
      <trkpt lat="44.6348" lon="6.56461">
        <ele>919</ele>
        <time>2019-04-19T08:13:40Z</time>
      </trkpt>
      <trkpt lat="44.63466" lon="6.56449">
        <ele>920</ele>
        <time>2019-04-19T08:14:40Z</time>
      </trkpt>
      <trkpt lat="44.63448" lon="6.56443">
        <ele>919</ele>
        <time>2019-04-19T08:15:40Z</time>
      </trkpt>
      <trkpt lat="44.63405" lon="6.5644">
        <ele>913</ele>
        <time>2019-04-19T08:16:40Z</time>
      </trkpt>
      <trkpt lat="44.63377" lon="6.56429">
        <ele>911</ele>
        <time>2019-04-19T08:17:40Z</time>
      </trkpt>
      <trkpt lat="44.63363" lon="6.56419">
        <ele>912</ele>
        <time>2019-04-19T08:18:40Z</time>
      </trkpt>
      <trkpt lat="44.6335" lon="6.56404">
        <ele>914</ele>
        <time>2019-04-19T08:19:40Z</time>
      </trkpt>
      <trkpt lat="44.6333" lon="6.56368">
        <ele>920</ele>
        <time>2019-04-19T08:20:40Z</time>
      </trkpt>
      <trkpt lat="44.63252" lon="6.56204">
        <ele>922</ele>
        <time>2019-04-19T08:21:40Z</time>
      </trkpt>
      <trkpt lat="44.63242" lon="6.5617">
        <ele>924</ele>
        <time>2019-04-19T08:22:40Z</time>
      </trkpt>
      <trkpt lat="44.6324" lon="6.56142">
        <ele>925</ele>
        <time>2019-04-19T08:23:40Z</time>
      </trkpt>
      <trkpt lat="44.63245" lon="6.56116">
        <ele>930</ele>
        <time>2019-04-19T08:24:40Z</time>
      </trkpt>
      <trkpt lat="44.63246" lon="6.56089">
        <ele>933</ele>
        <time>2019-04-19T08:25:40Z</time>
      </trkpt>
      <trkpt lat="44.63241" lon="6.56054">
        <ele>933</ele>
        <time>2019-04-19T08:26:40Z</time>
      </trkpt>
      <trkpt lat="44.63218" lon="6.5596">
        <ele>925</ele>
        <time>2019-04-19T08:27:40Z</time>
      </trkpt>
      <trkpt lat="44.63214" lon="6.55931">
        <ele>924</ele>
        <time>2019-04-19T08:28:40Z</time>
      </trkpt>
      <trkpt lat="44.63215" lon="6.55899">
        <ele>923</ele>
        <time>2019-04-19T08:29:40Z</time>
      </trkpt>
      <trkpt lat="44.63221" lon="6.55857">
        <ele>922</ele>
        <time>2019-04-19T08:30:40Z</time>
      </trkpt>
      <trkpt lat="44.63236" lon="6.55813">
        <ele>924</ele>
        <time>2019-04-19T08:31:40Z</time>
      </trkpt>
      <trkpt lat="44.63265" lon="6.55761">
        <ele>933</ele>
        <time>2019-04-19T08:32:40Z</time>
      </trkpt>
      <trkpt lat="44.63285" lon="6.5568">
        <ele>928</ele>
        <time>2019-04-19T08:33:40Z</time>
      </trkpt>
      <trkpt lat="44.63291" lon="6.55632">
        <ele>927</ele>
        <time>2019-04-19T08:34:40Z</time>
      </trkpt>
      <trkpt lat="44.63296" lon="6.55464">
        <ele>930</ele>
        <time>2019-04-19T08:35:40Z</time>
      </trkpt>
      <trkpt lat="44.63292" lon="6.55419">
        <ele>929</ele>
        <time>2019-04-19T08:36:40Z</time>
      </trkpt>
      <trkpt lat="44.6327" lon="6.5529">
        <ele>927</ele>
        <time>2019-04-19T08:37:40Z</time>
      </trkpt>
      <trkpt lat="44.63264" lon="6.55165">
        <ele>926</ele>
        <time>2019-04-19T08:38:40Z</time>
      </trkpt>
      <trkpt lat="44.63246" lon="6.55077">
        <ele>919</ele>
        <time>2019-04-19T08:39:40Z</time>
      </trkpt>
      <trkpt lat="44.63227" lon="6.54962">
        <ele>927</ele>
        <time>2019-04-19T08:40:40Z</time>
      </trkpt>
      <trkpt lat="44.63216" lon="6.54921">
        <ele>931</ele>
        <time>2019-04-19T08:41:40Z</time>
      </trkpt>
      <trkpt lat="44.6319" lon="6.54882">
        <ele>929</ele>
        <time>2019-04-19T08:42:40Z</time>
      </trkpt>
      <trkpt lat="44.63098" lon="6.54781">
        <ele>924</ele>
        <time>2019-04-19T08:43:40Z</time>
      </trkpt>
      <trkpt lat="44.63085" lon="6.54772">
        <ele>922</ele>
        <time>2019-04-19T08:44:40Z</time>
      </trkpt>
      <trkpt lat="44.63062" lon="6.54763">
        <ele>921</ele>
        <time>2019-04-19T08:45:40Z</time>
      </trkpt>
      <trkpt lat="44.62992" lon="6.54749">
        <ele>918</ele>
        <time>2019-04-19T08:46:40Z</time>
      </trkpt>
      <trkpt lat="44.62953" lon="6.54725">
        <ele>915</ele>
        <time>2019-04-19T08:47:40Z</time>
      </trkpt>
      <trkpt lat="44.62752" lon="6.54546">
        <ele>915</ele>
        <time>2019-04-19T08:48:40Z</time>
      </trkpt>
      <trkpt lat="44.6262" lon="6.54426">
        <ele>925</ele>
        <time>2019-04-19T08:49:40Z</time>
      </trkpt>
      <trkpt lat="44.6259" lon="6.54391">
        <ele>928</ele>
        <time>2019-04-19T08:50:40Z</time>
      </trkpt>
      <trkpt lat="44.62571" lon="6.54361">
        <ele>928</ele>
        <time>2019-04-19T08:51:40Z</time>
      </trkpt>
      <trkpt lat="44.62556" lon="6.54333">
        <ele>927</ele>
        <time>2019-04-19T08:52:40Z</time>
      </trkpt>
      <trkpt lat="44.62533" lon="6.54277">
        <ele>926</ele>
        <time>2019-04-19T08:53:40Z</time>
      </trkpt>
      <trkpt lat="44.62425" lon="6.53973">
        <ele>936</ele>
        <time>2019-04-19T08:54:40Z</time>
      </trkpt>
      <trkpt lat="44.6242" lon="6.53923">
        <ele>940</ele>
        <time>2019-04-19T08:55:40Z</time>
      </trkpt>
      <trkpt lat="44.62413" lon="6.5389">
        <ele>940</ele>
        <time>2019-04-19T08:56:40Z</time>
      </trkpt>
      <trkpt lat="44.62401" lon="6.53857">
        <ele>939</ele>
        <time>2019-04-19T08:57:40Z</time>
      </trkpt>
      <trkpt lat="44.62383" lon="6.53789">
        <ele>941</ele>
        <time>2019-04-19T08:58:40Z</time>
      </trkpt>
      <trkpt lat="44.6237" lon="6.53753">
        <ele>943</ele>
        <time>2019-04-19T08:59:40Z</time>
      </trkpt>
      <trkpt lat="44.6236" lon="6.5373">
        <ele>943</ele>
        <time>2019-04-19T09:00:40Z</time>
      </trkpt>
      <trkpt lat="44.6229" lon="6.5358">
        <ele>950</ele>
        <time>2019-04-19T09:01:40Z</time>
      </trkpt>
      <trkpt lat="44.62194" lon="6.53383">
        <ele>952</ele>
        <time>2019-04-19T09:02:40Z</time>
      </trkpt>
      <trkpt lat="44.62126" lon="6.53225">
        <ele>958</ele>
        <time>2019-04-19T09:03:40Z</time>
      </trkpt>
      <trkpt lat="44.62106" lon="6.53187">
        <ele>965</ele>
        <time>2019-04-19T09:04:40Z</time>
      </trkpt>
      <trkpt lat="44.62077" lon="6.53161">
        <ele>964</ele>
        <time>2019-04-19T09:05:40Z</time>
      </trkpt>
      <trkpt lat="44.6205" lon="6.53133">
        <ele>960</ele>
        <time>2019-04-19T09:06:40Z</time>
      </trkpt>
      <trkpt lat="44.62035" lon="6.53103">
        <ele>962</ele>
        <time>2019-04-19T09:07:40Z</time>
      </trkpt>
      <trkpt lat="44.61983" lon="6.52932">
        <ele>968</ele>
        <time>2019-04-19T09:08:40Z</time>
      </trkpt>
      <trkpt lat="44.61963" lon="6.52881">
        <ele>968</ele>
        <time>2019-04-19T09:09:40Z</time>
      </trkpt>
      <trkpt lat="44.61947" lon="6.52848">
        <ele>968</ele>
        <time>2019-04-19T09:10:40Z</time>
      </trkpt>
      <trkpt lat="44.61859" lon="6.52722">
        <ele>974</ele>
        <time>2019-04-19T09:11:40Z</time>
      </trkpt>
      <trkpt lat="44.6179" lon="6.52635">
        <ele>973</ele>
        <time>2019-04-19T09:12:40Z</time>
      </trkpt>
      <trkpt lat="44.61773" lon="6.52591">
        <ele>974</ele>
        <time>2019-04-19T09:13:40Z</time>
      </trkpt>
      <trkpt lat="44.61755" lon="6.52472">
        <ele>983</ele>
        <time>2019-04-19T09:14:40Z</time>
      </trkpt>
      <trkpt lat="44.61734" lon="6.52431">
        <ele>984</ele>
        <time>2019-04-19T09:15:40Z</time>
      </trkpt>
      <trkpt lat="44.61684" lon="6.52357">
        <ele>982</ele>
        <time>2019-04-19T09:16:40Z</time>
      </trkpt>
      <trkpt lat="44.61642" lon="6.52306">
        <ele>975</ele>
        <time>2019-04-19T09:17:40Z</time>
      </trkpt>
      <trkpt lat="44.61637" lon="6.52296">
        <ele>974</ele>
        <time>2019-04-19T09:18:40Z</time>
      </trkpt>
      <trkpt lat="44.61634" lon="6.52285">
        <ele>974</ele>
        <time>2019-04-19T09:19:40Z</time>
      </trkpt>
      <trkpt lat="44.61636" lon="6.52273">
        <ele>975</ele>
        <time>2019-04-19T09:20:40Z</time>
      </trkpt>
      <trkpt lat="44.61642" lon="6.52263">
        <ele>976</ele>
        <time>2019-04-19T09:21:40Z</time>
      </trkpt>
      <trkpt lat="44.61679" lon="6.5222">
        <ele>983</ele>
        <time>2019-04-19T09:22:40Z</time>
      </trkpt>
      <trkpt lat="44.61688" lon="6.52203">
        <ele>984</ele>
        <time>2019-04-19T09:23:40Z</time>
      </trkpt>
      <trkpt lat="44.61694" lon="6.52178">
        <ele>983</ele>
        <time>2019-04-19T09:24:40Z</time>
      </trkpt>
      <trkpt lat="44.61692" lon="6.52155">
        <ele>981</ele>
        <time>2019-04-19T09:25:40Z</time>
      </trkpt>
      <trkpt lat="44.61686" lon="6.52137">
        <ele>980</ele>
        <time>2019-04-19T09:26:40Z</time>
      </trkpt>
      <trkpt lat="44.61674" lon="6.52116">
        <ele>978</ele>
        <time>2019-04-19T09:27:40Z</time>
      </trkpt>
      <trkpt lat="44.61653" lon="6.52096">
        <ele>981</ele>
        <time>2019-04-19T09:28:40Z</time>
      </trkpt>
      <trkpt lat="44.61642" lon="6.5209">
        <ele>984</ele>
        <time>2019-04-19T09:29:40Z</time>
      </trkpt>
      <trkpt lat="44.61628" lon="6.52091">
        <ele>988</ele>
        <time>2019-04-19T09:30:40Z</time>
      </trkpt>
      <trkpt lat="44.61608" lon="6.52101">
        <ele>990</ele>
        <time>2019-04-19T09:31:40Z</time>
      </trkpt>
      <trkpt lat="44.6153" lon="6.52154">
        <ele>987</ele>
        <time>2019-04-19T09:32:40Z</time>
      </trkpt>
      <trkpt lat="44.61517" lon="6.52173">
        <ele>986</ele>
        <time>2019-04-19T09:33:40Z</time>
      </trkpt>
      <trkpt lat="44.61503" lon="6.52206">
        <ele>985</ele>
        <time>2019-04-19T09:34:40Z</time>
      </trkpt>
      <trkpt lat="44.61497" lon="6.52211">
        <ele>985</ele>
        <time>2019-04-19T09:35:40Z</time>
      </trkpt>
      <trkpt lat="44.6149" lon="6.52211">
        <ele>986</ele>
        <time>2019-04-19T09:36:40Z</time>
      </trkpt>
      <trkpt lat="44.61453" lon="6.52199">
        <ele>988</ele>
        <time>2019-04-19T09:37:40Z</time>
      </trkpt>
      <trkpt lat="44.61413" lon="6.52162">
        <ele>990</ele>
        <time>2019-04-19T09:38:40Z</time>
      </trkpt>
      <trkpt lat="44.61396" lon="6.52103">
        <ele>990</ele>
        <time>2019-04-19T09:39:40Z</time>
      </trkpt>
      <trkpt lat="44.61383" lon="6.52079">
        <ele>991</ele>
        <time>2019-04-19T09:40:40Z</time>
      </trkpt>
      <trkpt lat="44.61272" lon="6.51974">
        <ele>992</ele>
        <time>2019-04-19T09:41:40Z</time>
      </trkpt>
      <trkpt lat="44.61256" lon="6.51969">
        <ele>992</ele>
        <time>2019-04-19T09:42:40Z</time>
      </trkpt>
      <trkpt lat="44.61205" lon="6.51976">
        <ele>991</ele>
        <time>2019-04-19T09:43:40Z</time>
      </trkpt>
      <trkpt lat="44.61188" lon="6.51975">
        <ele>992</ele>
        <time>2019-04-19T09:44:40Z</time>
      </trkpt>
      <trkpt lat="44.61138" lon="6.51952">
        <ele>994</ele>
        <time>2019-04-19T09:45:40Z</time>
      </trkpt>
      <trkpt lat="44.61116" lon="6.5195">
        <ele>994</ele>
        <time>2019-04-19T09:46:40Z</time>
      </trkpt>
      <trkpt lat="44.6105" lon="6.51967">
        <ele>991</ele>
        <time>2019-04-19T09:47:40Z</time>
      </trkpt>
      <trkpt lat="44.61023" lon="6.51971">
        <ele>990</ele>
        <time>2019-04-19T09:48:40Z</time>
      </trkpt>
      <trkpt lat="44.60831" lon="6.51975">
        <ele>990</ele>
        <time>2019-04-19T09:49:40Z</time>
      </trkpt>
      <trkpt lat="44.60756" lon="6.51971">
        <ele>991</ele>
        <time>2019-04-19T09:50:40Z</time>
      </trkpt>
      <trkpt lat="44.60662" lon="6.51982">
        <ele>987</ele>
        <time>2019-04-19T09:51:40Z</time>
      </trkpt>
      <trkpt lat="44.60605" lon="6.51981">
        <ele>986</ele>
        <time>2019-04-19T09:52:40Z</time>
      </trkpt>
      <trkpt lat="44.60534" lon="6.51971">
        <ele>986</ele>
        <time>2019-04-19T09:53:40Z</time>
      </trkpt>
      <trkpt lat="44.60416" lon="6.51973">
        <ele>984</ele>
        <time>2019-04-19T09:54:40Z</time>
      </trkpt>
      <trkpt lat="44.60362" lon="6.51964">
        <ele>983</ele>
        <time>2019-04-19T09:55:40Z</time>
      </trkpt>
      <trkpt lat="44.60221" lon="6.51929">
        <ele>984</ele>
        <time>2019-04-19T09:56:40Z</time>
      </trkpt>
      <trkpt lat="44.60115" lon="6.5191">
        <ele>985</ele>
        <time>2019-04-19T09:57:40Z</time>
      </trkpt>
      <trkpt lat="44.60078" lon="6.51896">
        <ele>987</ele>
        <time>2019-04-19T09:58:40Z</time>
      </trkpt>
      <trkpt lat="44.59885" lon="6.51774">
        <ele>976</ele>
        <time>2019-04-19T09:59:40Z</time>
      </trkpt>
      <trkpt lat="44.59861" lon="6.51764">
        <ele>974</ele>
        <time>2019-04-19T10:00:40Z</time>
      </trkpt>
      <trkpt lat="44.59844" lon="6.51767">
        <ele>972</ele>
        <time>2019-04-19T10:01:40Z</time>
      </trkpt>
      <trkpt lat="44.59829" lon="6.51779">
        <ele>970</ele>
        <time>2019-04-19T10:02:40Z</time>
      </trkpt>
      <trkpt lat="44.59795" lon="6.5182">
        <ele>965</ele>
        <time>2019-04-19T10:03:40Z</time>
      </trkpt>
      <trkpt lat="44.59781" lon="6.51829">
        <ele>964</ele>
        <time>2019-04-19T10:04:40Z</time>
      </trkpt>
      <trkpt lat="44.59763" lon="6.5183">
        <ele>963</ele>
        <time>2019-04-19T10:05:40Z</time>
      </trkpt>
      <trkpt lat="44.59747" lon="6.51819">
        <ele>962</ele>
        <time>2019-04-19T10:06:40Z</time>
      </trkpt>
      <trkpt lat="44.59734" lon="6.51795">
        <ele>962</ele>
        <time>2019-04-19T10:07:40Z</time>
      </trkpt>
      <trkpt lat="44.59733" lon="6.5176">
        <ele>963</ele>
        <time>2019-04-19T10:08:40Z</time>
      </trkpt>
      <trkpt lat="44.59744" lon="6.51667">
        <ele>962</ele>
        <time>2019-04-19T10:09:40Z</time>
      </trkpt>
      <trkpt lat="44.59744" lon="6.51637">
        <ele>962</ele>
        <time>2019-04-19T10:10:40Z</time>
      </trkpt>
      <trkpt lat="44.59741" lon="6.51615">
        <ele>962</ele>
        <time>2019-04-19T10:11:40Z</time>
      </trkpt>
      <trkpt lat="44.59735" lon="6.51597">
        <ele>962</ele>
        <time>2019-04-19T10:12:40Z</time>
      </trkpt>
      <trkpt lat="44.59723" lon="6.51582">
        <ele>961</ele>
        <time>2019-04-19T10:13:40Z</time>
      </trkpt>
      <trkpt lat="44.5971" lon="6.51573">
        <ele>961</ele>
        <time>2019-04-19T10:14:40Z</time>
      </trkpt>
      <trkpt lat="44.59507" lon="6.51512">
        <ele>948</ele>
        <time>2019-04-19T10:15:40Z</time>
      </trkpt>
      <trkpt lat="44.59485" lon="6.515">
        <ele>947</ele>
        <time>2019-04-19T10:16:40Z</time>
      </trkpt>
      <trkpt lat="44.59461" lon="6.51484">
        <ele>946</ele>
        <time>2019-04-19T10:17:40Z</time>
      </trkpt>
      <trkpt lat="44.59396" lon="6.51418">
        <ele>943</ele>
        <time>2019-04-19T10:18:40Z</time>
      </trkpt>
      <trkpt lat="44.59264" lon="6.51272">
        <ele>938</ele>
        <time>2019-04-19T10:19:40Z</time>
      </trkpt>
      <trkpt lat="44.59247" lon="6.51247">
        <ele>939</ele>
        <time>2019-04-19T10:20:40Z</time>
      </trkpt>
      <trkpt lat="44.59236" lon="6.51221">
        <ele>938</ele>
        <time>2019-04-19T10:21:40Z</time>
      </trkpt>
      <trkpt lat="44.59219" lon="6.51172">
        <ele>938</ele>
        <time>2019-04-19T10:22:40Z</time>
      </trkpt>
      <trkpt lat="44.59203" lon="6.51149">
        <ele>937</ele>
        <time>2019-04-19T10:23:40Z</time>
      </trkpt>
      <trkpt lat="44.59177" lon="6.5113">
        <ele>936</ele>
        <time>2019-04-19T10:24:40Z</time>
      </trkpt>
      <trkpt lat="44.59158" lon="6.51125">
        <ele>935</ele>
        <time>2019-04-19T10:25:40Z</time>
      </trkpt>
      <trkpt lat="44.59132" lon="6.5113">
        <ele>934</ele>
        <time>2019-04-19T10:26:40Z</time>
      </trkpt>
      <trkpt lat="44.59108" lon="6.51145">
        <ele>932</ele>
        <time>2019-04-19T10:27:40Z</time>
      </trkpt>
      <trkpt lat="44.59092" lon="6.51168">
        <ele>928</ele>
        <time>2019-04-19T10:28:40Z</time>
      </trkpt>
      <trkpt lat="44.59082" lon="6.51196">
        <ele>926</ele>
        <time>2019-04-19T10:29:40Z</time>
      </trkpt>
      <trkpt lat="44.59057" lon="6.51288">
        <ele>921</ele>
        <time>2019-04-19T10:30:40Z</time>
      </trkpt>
      <trkpt lat="44.59044" lon="6.51316">
        <ele>920</ele>
        <time>2019-04-19T10:31:40Z</time>
      </trkpt>
      <trkpt lat="44.5903" lon="6.51335">
        <ele>919</ele>
        <time>2019-04-19T10:32:40Z</time>
      </trkpt>
      <trkpt lat="44.59014" lon="6.5135">
        <ele>917</ele>
        <time>2019-04-19T10:33:40Z</time>
      </trkpt>
      <trkpt lat="44.58989" lon="6.51362">
        <ele>915</ele>
        <time>2019-04-19T10:34:40Z</time>
      </trkpt>
      <trkpt lat="44.58954" lon="6.51364">
        <ele>914</ele>
        <time>2019-04-19T10:35:40Z</time>
      </trkpt>
      <trkpt lat="44.58834" lon="6.51345">
        <ele>910</ele>
        <time>2019-04-19T10:36:40Z</time>
      </trkpt>
      <trkpt lat="44.58799" lon="6.51335">
        <ele>909</ele>
        <time>2019-04-19T10:37:40Z</time>
      </trkpt>
      <trkpt lat="44.58754" lon="6.51312">
        <ele>907</ele>
        <time>2019-04-19T10:38:40Z</time>
      </trkpt>
      <trkpt lat="44.58706" lon="6.51279">
        <ele>904</ele>
        <time>2019-04-19T10:39:40Z</time>
      </trkpt>
      <trkpt lat="44.58691" lon="6.51266">
        <ele>904</ele>
        <time>2019-04-19T10:40:40Z</time>
      </trkpt>
      <trkpt lat="44.58683" lon="6.51261">
        <ele>903</ele>
        <time>2019-04-19T10:41:40Z</time>
      </trkpt>
      <trkpt lat="44.58676" lon="6.51263">
        <ele>902</ele>
        <time>2019-04-19T10:42:40Z</time>
      </trkpt>
      <trkpt lat="44.58671" lon="6.51254">
        <ele>902</ele>
        <time>2019-04-19T10:43:40Z</time>
      </trkpt>
      <trkpt lat="44.58663" lon="6.51247">
        <ele>902</ele>
        <time>2019-04-19T10:44:40Z</time>
      </trkpt>
      <trkpt lat="44.58652" lon="6.51244">
        <ele>902</ele>
        <time>2019-04-19T10:45:40Z</time>
      </trkpt>
      <trkpt lat="44.58641" lon="6.51246">
        <ele>902</ele>
        <time>2019-04-19T10:46:40Z</time>
      </trkpt>
      <trkpt lat="44.58606" lon="6.51242">
        <ele>902</ele>
        <time>2019-04-19T10:47:40Z</time>
      </trkpt>
      <trkpt lat="44.58463" lon="6.51245">
        <ele>898</ele>
        <time>2019-04-19T10:48:40Z</time>
      </trkpt>
      <trkpt lat="44.58137" lon="6.5116">
        <ele>892</ele>
        <time>2019-04-19T10:49:40Z</time>
      </trkpt>
      <trkpt lat="44.58055" lon="6.51107">
        <ele>892</ele>
        <time>2019-04-19T10:50:40Z</time>
      </trkpt>
      <trkpt lat="44.57991" lon="6.51088">
        <ele>889</ele>
        <time>2019-04-19T10:51:40Z</time>
      </trkpt>
      <trkpt lat="44.5789" lon="6.51066">
        <ele>889</ele>
        <time>2019-04-19T10:52:40Z</time>
      </trkpt>
      <trkpt lat="44.5781" lon="6.51072">
        <ele>888</ele>
        <time>2019-04-19T10:53:40Z</time>
      </trkpt>
      <trkpt lat="44.57418" lon="6.50973">
        <ele>882</ele>
        <time>2019-04-19T10:54:40Z</time>
      </trkpt>
      <trkpt lat="44.57388" lon="6.50959">
        <ele>880</ele>
        <time>2019-04-19T10:55:40Z</time>
      </trkpt>
      <trkpt lat="44.57135" lon="6.50771">
        <ele>878</ele>
        <time>2019-04-19T10:56:40Z</time>
      </trkpt>
      <trkpt lat="44.57121" lon="6.5076">
        <ele>878</ele>
        <time>2019-04-19T10:57:40Z</time>
      </trkpt>
      <trkpt lat="44.57113" lon="6.50748">
        <ele>879</ele>
        <time>2019-04-19T10:58:40Z</time>
      </trkpt>
      <trkpt lat="44.57001" lon="6.50581">
        <ele>870</ele>
        <time>2019-04-19T10:59:40Z</time>
      </trkpt>
      <trkpt lat="44.5699" lon="6.5056">
        <ele>868</ele>
        <time>2019-04-19T11:00:40Z</time>
      </trkpt>
      <trkpt lat="44.56987" lon="6.50541">
        <ele>867</ele>
        <time>2019-04-19T11:01:40Z</time>
      </trkpt>
      <trkpt lat="44.56997" lon="6.50439">
        <ele>866</ele>
        <time>2019-04-19T11:02:40Z</time>
      </trkpt>
      <trkpt lat="44.56998" lon="6.50396">
        <ele>865</ele>
        <time>2019-04-19T11:03:40Z</time>
      </trkpt>
      <trkpt lat="44.56984" lon="6.50284">
        <ele>863</ele>
        <time>2019-04-19T11:04:40Z</time>
      </trkpt>
      <trkpt lat="44.56985" lon="6.50222">
        <ele>865</ele>
        <time>2019-04-19T11:05:40Z</time>
      </trkpt>
      <trkpt lat="44.5698" lon="6.50202">
        <ele>865</ele>
        <time>2019-04-19T11:06:40Z</time>
      </trkpt>
      <trkpt lat="44.56971" lon="6.50187">
        <ele>865</ele>
        <time>2019-04-19T11:07:40Z</time>
      </trkpt>
      <trkpt lat="44.56687" lon="6.49846">
        <ele>871</ele>
        <time>2019-04-19T11:08:40Z</time>
      </trkpt>
      <trkpt lat="44.56628" lon="6.49778">
        <ele>872</ele>
        <time>2019-04-19T11:09:40Z</time>
      </trkpt>
      <trkpt lat="44.56622" lon="6.49763">
        <ele>872</ele>
        <time>2019-04-19T11:10:40Z</time>
      </trkpt>
      <trkpt lat="44.56612" lon="6.4976">
        <ele>872</ele>
        <time>2019-04-19T11:11:40Z</time>
      </trkpt>
      <trkpt lat="44.56604" lon="6.49756">
        <ele>871</ele>
        <time>2019-04-19T11:12:40Z</time>
      </trkpt>
      <trkpt lat="44.5656" lon="6.49713">
        <ele>871</ele>
        <time>2019-04-19T11:13:40Z</time>
      </trkpt>
      <trkpt lat="44.56556" lon="6.49707">
        <ele>871</ele>
        <time>2019-04-19T11:14:40Z</time>
      </trkpt>
      <trkpt lat="44.56553" lon="6.49695">
        <ele>872</ele>
        <time>2019-04-19T11:15:40Z</time>
      </trkpt>
      <trkpt lat="44.56547" lon="6.49613">
        <ele>873</ele>
        <time>2019-04-19T11:16:40Z</time>
      </trkpt>
      <trkpt lat="44.56559" lon="6.49602">
        <ele>873</ele>
        <time>2019-04-19T11:17:40Z</time>
      </trkpt>
      <trkpt lat="44.56566" lon="6.49614">
        <ele>873</ele>
        <time>2019-04-19T11:18:40Z</time>
      </trkpt>
      <trkpt lat="44.56561" lon="6.4962">
        <ele>873</ele>
        <time>2019-04-19T11:19:40Z</time>
      </trkpt>
      <trkpt lat="44.56562" lon="6.49638">
        <ele>872</ele>
        <time>2019-04-19T11:20:40Z</time>
      </trkpt>
      <trkpt lat="44.56561" lon="6.4962">
        <ele>873</ele>
        <time>2019-04-19T11:21:40Z</time>
      </trkpt>
      <trkpt lat="44.56566" lon="6.49614">
        <ele>873</ele>
        <time>2019-04-19T11:22:40Z</time>
      </trkpt>
      <trkpt lat="44.56559" lon="6.49602">
        <ele>873</ele>
        <time>2019-04-19T11:23:40Z</time>
      </trkpt>
      <trkpt lat="44.56547" lon="6.49613">
        <ele>873</ele>
        <time>2019-04-19T11:24:40Z</time>
      </trkpt>
      <trkpt lat="44.56545" lon="6.49591">
        <ele>873</ele>
        <time>2019-04-19T11:25:40Z</time>
      </trkpt>
      <trkpt lat="44.56538" lon="6.49551">
        <ele>872</ele>
        <time>2019-04-19T11:26:40Z</time>
      </trkpt>
      <trkpt lat="44.56526" lon="6.49521">
        <ele>871</ele>
        <time>2019-04-19T11:27:40Z</time>
      </trkpt>
      <trkpt lat="44.56415" lon="6.49323">
        <ele>861</ele>
        <time>2019-04-19T11:28:40Z</time>
      </trkpt>
      <trkpt lat="44.56391" lon="6.49284">
        <ele>860</ele>
        <time>2019-04-19T11:29:40Z</time>
      </trkpt>
      <trkpt lat="44.56385" lon="6.49275">
        <ele>859</ele>
        <time>2019-04-19T11:30:40Z</time>
      </trkpt>
      <trkpt lat="44.56366" lon="6.49255">
        <ele>857</ele>
        <time>2019-04-19T11:31:40Z</time>
      </trkpt>
      <trkpt lat="44.56339" lon="6.49241">
        <ele>855</ele>
        <time>2019-04-19T11:32:40Z</time>
      </trkpt>
      <trkpt lat="44.56322" lon="6.49226">
        <ele>854</ele>
        <time>2019-04-19T11:33:40Z</time>
      </trkpt>
      <trkpt lat="44.56294" lon="6.49188">
        <ele>853</ele>
        <time>2019-04-19T11:34:40Z</time>
      </trkpt>
      <trkpt lat="44.56024" lon="6.48771">
        <ele>845</ele>
        <time>2019-04-19T11:35:40Z</time>
      </trkpt>
      <trkpt lat="44.56005" lon="6.48733">
        <ele>843</ele>
        <time>2019-04-19T11:36:40Z</time>
      </trkpt>
      <trkpt lat="44.55989" lon="6.48691">
        <ele>842</ele>
        <time>2019-04-19T11:37:40Z</time>
      </trkpt>
      <trkpt lat="44.55964" lon="6.48603">
        <ele>840</ele>
        <time>2019-04-19T11:38:40Z</time>
      </trkpt>
      <trkpt lat="44.5594" lon="6.48529">
        <ele>837</ele>
        <time>2019-04-19T11:39:40Z</time>
      </trkpt>
      <trkpt lat="44.55923" lon="6.48487">
        <ele>836</ele>
        <time>2019-04-19T11:40:40Z</time>
      </trkpt>
      <trkpt lat="44.55898" lon="6.48455">
        <ele>836</ele>
        <time>2019-04-19T11:41:40Z</time>
      </trkpt>
      <trkpt lat="44.55877" lon="6.48441">
        <ele>834</ele>
        <time>2019-04-19T11:42:40Z</time>
      </trkpt>
      <trkpt lat="44.55838" lon="6.4843">
        <ele>829</ele>
        <time>2019-04-19T11:43:40Z</time>
      </trkpt>
      <trkpt lat="44.55808" lon="6.48419">
        <ele>825</ele>
        <time>2019-04-19T11:44:40Z</time>
      </trkpt>
      <trkpt lat="44.55766" lon="6.48387">
        <ele>821</ele>
        <time>2019-04-19T11:45:40Z</time>
      </trkpt>
      <trkpt lat="44.55738" lon="6.48356">
        <ele>821</ele>
        <time>2019-04-19T11:46:40Z</time>
      </trkpt>
      <trkpt lat="44.5573" lon="6.48344">
        <ele>822</ele>
        <time>2019-04-19T11:47:40Z</time>
      </trkpt>
      <trkpt lat="44.55697" lon="6.48319">
        <ele>820</ele>
        <time>2019-04-19T11:48:40Z</time>
      </trkpt>
      <trkpt lat="44.55671" lon="6.48308">
        <ele>817</ele>
        <time>2019-04-19T11:49:40Z</time>
      </trkpt>
      <trkpt lat="44.55655" lon="6.48306">
        <ele>816</ele>
        <time>2019-04-19T11:50:40Z</time>
      </trkpt>
      <trkpt lat="44.55615" lon="6.48311">
        <ele>814</ele>
        <time>2019-04-19T11:51:40Z</time>
      </trkpt>
      <trkpt lat="44.5561" lon="6.48305">
        <ele>814</ele>
        <time>2019-04-19T11:52:40Z</time>
      </trkpt>
      <trkpt lat="44.55603" lon="6.48305">
        <ele>814</ele>
        <time>2019-04-19T11:53:40Z</time>
      </trkpt>
      <trkpt lat="44.55586" lon="6.48318">
        <ele>812</ele>
        <time>2019-04-19T11:54:40Z</time>
      </trkpt>
      <trkpt lat="44.55535" lon="6.48328">
        <ele>810</ele>
        <time>2019-04-19T11:55:40Z</time>
      </trkpt>
      <trkpt lat="44.55356" lon="6.48375">
        <ele>799</ele>
        <time>2019-04-19T11:56:40Z</time>
      </trkpt>
      <trkpt lat="44.5521" lon="6.48408">
        <ele>791</ele>
        <time>2019-04-19T11:57:40Z</time>
      </trkpt>
      <trkpt lat="44.55184" lon="6.48403">
        <ele>791</ele>
        <time>2019-04-19T11:58:40Z</time>
      </trkpt>
      <trkpt lat="44.55177" lon="6.48397">
        <ele>791</ele>
        <time>2019-04-19T11:59:40Z</time>
      </trkpt>
      <trkpt lat="44.55169" lon="6.48386">
        <ele>790</ele>
        <time>2019-04-19T12:00:40Z</time>
      </trkpt>
      <trkpt lat="44.55142" lon="6.48268">
        <ele>787</ele>
        <time>2019-04-19T12:01:40Z</time>
      </trkpt>
      <trkpt lat="44.55177" lon="6.48271">
        <ele>790</ele>
        <time>2019-04-19T12:02:40Z</time>
      </trkpt>
      <trkpt lat="44.55186" lon="6.48265">
        <ele>790</ele>
        <time>2019-04-19T12:03:40Z</time>
      </trkpt>
      <trkpt lat="44.55205" lon="6.4823">
        <ele>791</ele>
        <time>2019-04-19T12:04:40Z</time>
      </trkpt>
    </trkseg>
  </trk>
</gpx>